[[{"header":{"parameterUnit":"m.s-1","parameterCategory":1,"la1":30.6,"la2":29.2853,"lo1":-89.7004,"lo2":-87.6739,"dy":0.0162,"dx":0.0183,"nx":112,"ny":82,"refTime":"2024-11-22T18:00:00:Z","depth":0,"parameterNumber":2,"parameterNumberName":"U-component_of_WINDS"},"data":[0.0,0.0,0.0,0.0,0.0,0.0,0.0,0.0,0.0,0.0,0.0,0.0,0.0,0.0,0.0,0.0,0.0,0.0,0.0,0.0,0.0,0.0,0.0,0.0,0.0,0.0,0.0,0.0,0.0,0.0,0.0,0.0,0.0,0.0,0.0,0.0,0.0,0.0,0.0,0.0,0.0,0.0,0.0,0.0,0.0,0.0,0.0,0.0,0.0,0.0,0.0,0.0,0.0,0.0,0.0,0.0,0.0,0.0,0.0,0.0,0.0,0.0,0.0,0.0,0.0,0.0,0.0,0.0,0.0,0.0,0.0,0.0,0.0,0.0,0.0,0.0,0.0,0.0,0.0,0.0,0.0,0.0,0.0,0.0,0.0,0.0,0.0,0.0,0.0,0.0,0.0,-3.351,-3.3192,-3.2773,-3.2213,-3.2027,-3.1342,-2.9969,0.0,0.0,0.0,0.0,0.0,0.0,0.0,0.0,0.0,0.0,0.0,0.0,0.0,0.0,0.0,0.0,0.0,0.0,0.0,0.0,0.0,0.0,0.0,0.0,0.0,0.0,0.0,0.0,0.0,0.0,0.0,0.0,0.0,0.0,0.0,0.0,0.0,0.0,0.0,0.0,0.0,0.0,0.0,0.0,0.0,0.0,0.0,0.0,0.0,0.0,0.0,0.0,0.0,0.0,0.0,0.0,0.0,0.0,0.0,0.0,0.0,0.0,0.0,0.0,0.0,0.0,0.0,0.0,0.0,0.0,0.0,0.0,0.0,0.0,0.0,0.0,0.0,0.0,0.0,0.0,0.0,0.0,0.0,0.0,0.0,0.0,0.0,0.0,0.0,0.0,0.0,0.0,0.0,0.0,0.0,0.0,0.0,0.0,0.0,0.0,0.0,0.0,0.0,0.0,-3.2716,-3.3062,-3.304,-3.2484,-3.1225,-3.1713,-3.1166,-2.905,0.0,0.0,0.0,0.0,0.0,0.0,0.0,0.0,0.0,0.0,0.0,0.0,0.0,0.0,0.0,0.0,0.0,0.0,0.0,0.0,0.0,0.0,0.0,0.0,0.0,0.0,0.0,0.0,0.0,0.0,0.0,0.0,0.0,0.0,0.0,0.0,0.0,0.0,0.0,0.0,0.0,0.0,0.0,0.0,0.0,0.0,0.0,0.0,0.0,0.0,0.0,0.0,0.0,0.0,0.0,0.0,0.0,0.0,0.0,0.0,0.0,0.0,0.0,0.0,0.0,0.0,0.0,0.0,0.0,0.0,0.0,0.0,0.0,0.0,0.0,0.0,0.0,0.0,0.0,0.0,0.0,0.0,0.0,0.0,0.0,0.0,0.0,0.0,0.0,0.0,0.0,0.0,0.0,0.0,0.0,0.0,0.0,0.0,0.0,0.0,0.0,0.0,0.0,-3.3423,-3.3068,-3.2421,-3.2351,-3.1758,-3.0324,-3.0527,-3.0126,-2.8682,-2.8497,0.0,0.0,0.0,0.0,0.0,0.0,0.0,0.0,0.0,0.0,0.0,0.0,0.0,0.0,0.0,0.0,0.0,0.0,0.0,0.0,0.0,0.0,0.0,0.0,0.0,0.0,0.0,0.0,0.0,0.0,0.0,0.0,0.0,0.0,0.0,0.0,0.0,0.0,0.0,0.0,0.0,0.0,0.0,0.0,0.0,0.0,0.0,0.0,0.0,0.0,0.0,0.0,0.0,0.0,0.0,0.0,0.0,0.0,0.0,0.0,0.0,0.0,0.0,0.0,0.0,0.0,0.0,0.0,0.0,0.0,0.0,0.0,0.0,0.0,0.0,0.0,0.0,0.0,0.0,0.0,0.0,0.0,0.0,0.0,0.0,0.0,0.0,0.0,0.0,0.0,0.0,0.0,0.0,0.0,0.0,0.0,0.0,0.0,0.0,0.0,0.0,0.0,-3.4481,-3.3536,-3.1968,-3.1794,-3.1137,-2.9462,-2.9332,-2.8941,-2.8011,-2.7269,0.0,0.0,0.0,0.0,0.0,0.0,0.0,0.0,0.0,0.0,0.0,0.0,0.0,0.0,0.0,0.0,0.0,0.0,0.0,0.0,0.0,0.0,0.0,0.0,0.0,0.0,0.0,0.0,0.0,0.0,0.0,0.0,0.0,0.0,0.0,0.0,0.0,0.0,0.0,0.0,0.0,0.0,0.0,0.0,0.0,0.0,0.0,0.0,0.0,0.0,0.0,0.0,0.0,0.0,0.0,0.0,0.0,0.0,0.0,0.0,0.0,0.0,0.0,0.0,0.0,0.0,0.0,0.0,0.0,0.0,0.0,0.0,0.0,0.0,0.0,0.0,0.0,0.0,0.0,0.0,0.0,0.0,0.0,0.0,0.0,0.0,0.0,0.0,0.0,0.0,0.0,0.0,0.0,0.0,0.0,0.0,0.0,0.0,0.0,0.0,0.0,0.0,-3.3959,-3.3584,-3.1979,-3.1794,-3.0909,-2.8657,-2.8543,-2.7928,-2.646,-2.573,0.0,0.0,0.0,0.0,0.0,0.0,0.0,0.0,0.0,0.0,0.0,0.0,0.0,0.0,0.0,0.0,0.0,0.0,0.0,0.0,0.0,0.0,0.0,0.0,0.0,0.0,0.0,0.0,0.0,0.0,0.0,0.0,0.0,0.0,0.0,0.0,0.0,0.0,0.0,0.0,0.0,0.0,0.0,0.0,0.0,0.0,0.0,0.0,0.0,0.0,0.0,0.0,0.0,0.0,0.0,0.0,0.0,0.0,0.0,0.0,0.0,0.0,0.0,0.0,0.0,0.0,0.0,0.0,0.0,0.0,0.0,0.0,0.0,0.0,0.0,0.0,0.0,0.0,0.0,0.0,0.0,0.0,0.0,0.0,0.0,0.0,0.0,0.0,0.0,0.0,0.0,0.0,0.0,0.0,0.0,0.0,0.0,0.0,0.0,0.0,0.0,0.0,-3.3765,-3.3414,0.0,-3.1537,-3.0594,-2.8521,-2.8206,-2.7571,-2.6288,0.0,0.0,0.0,0.0,0.0,0.0,0.0,0.0,0.0,0.0,0.0,0.0,0.0,0.0,0.0,0.0,0.0,0.0,0.0,0.0,0.0,0.0,0.0,0.0,0.0,0.0,0.0,0.0,0.0,0.0,0.0,0.0,0.0,0.0,0.0,0.0,0.0,0.0,0.0,0.0,0.0,0.0,0.0,0.0,0.0,0.0,0.0,0.0,0.0,0.0,0.0,0.0,0.0,0.0,0.0,0.0,0.0,0.0,0.0,0.0,0.0,0.0,0.0,0.0,0.0,0.0,0.0,0.0,0.0,0.0,0.0,0.0,0.0,0.0,0.0,0.0,0.0,0.0,0.0,0.0,0.0,0.0,0.0,0.0,0.0,0.0,0.0,0.0,0.0,0.0,0.0,0.0,0.0,0.0,0.0,0.0,0.0,0.0,0.0,0.0,0.0,0.0,-3.2777,-3.3414,-3.3191,0.0,-3.1309,-3.0376,-2.8309,-2.7761,-2.7141,-2.6229,0.0,0.0,0.0,0.0,0.0,0.0,0.0,0.0,0.0,0.0,0.0,0.0,0.0,0.0,0.0,0.0,0.0,0.0,0.0,0.0,0.0,0.0,0.0,0.0,0.0,0.0,0.0,0.0,0.0,0.0,0.0,0.0,0.0,0.0,0.0,0.0,0.0,0.0,0.0,0.0,0.0,0.0,0.0,0.0,0.0,0.0,0.0,0.0,0.0,0.0,0.0,0.0,0.0,0.0,0.0,0.0,0.0,0.0,0.0,0.0,0.0,0.0,0.0,0.0,0.0,0.0,0.0,0.0,0.0,0.0,0.0,0.0,0.0,0.0,0.0,0.0,0.0,0.0,0.0,0.0,0.0,0.0,0.0,0.0,0.0,0.0,0.0,0.0,0.0,0.0,0.0,0.0,0.0,0.0,0.0,0.0,0.0,0.0,0.0,0.0,0.0,0.0,-3.1775,-3.2795,-3.2898,-3.1357,-3.1193,-3.027,-2.7985,-2.713,-2.6532,0.0,0.0,0.0,0.0,0.0,0.0,0.0,0.0,0.0,0.0,0.0,0.0,0.0,0.0,0.0,0.0,0.0,0.0,0.0,0.0,0.0,0.0,0.0,0.0,0.0,0.0,0.0,0.0,0.0,0.0,0.0,0.0,0.0,0.0,0.0,0.0,0.0,0.0,0.0,0.0,0.0,0.0,0.0,0.0,0.0,0.0,0.0,0.0,0.0,0.0,0.0,0.0,0.0,0.0,0.0,0.0,0.0,0.0,0.0,0.0,0.0,0.0,0.0,0.0,0.0,0.0,0.0,0.0,0.0,0.0,0.0,0.0,0.0,0.0,0.0,0.0,0.0,0.0,0.0,0.0,0.0,0.0,0.0,0.0,0.0,0.0,0.0,0.0,0.0,0.0,0.0,0.0,0.0,0.0,0.0,0.0,0.0,0.0,0.0,0.0,0.0,0.0,0.0,-3.2063,-3.2652,-3.2421,-3.0859,-3.049,-2.9642,-2.7883,-2.736,-2.6831,-2.6143,0.0,0.0,0.0,0.0,0.0,0.0,0.0,0.0,0.0,0.0,0.0,0.0,0.0,0.0,0.0,0.0,0.0,0.0,0.0,0.0,0.0,0.0,0.0,0.0,0.0,0.0,0.0,0.0,0.0,0.0,0.0,0.0,0.0,0.0,0.0,0.0,0.0,0.0,0.0,0.0,0.0,0.0,0.0,0.0,0.0,0.0,0.0,0.0,0.0,0.0,0.0,0.0,0.0,0.0,0.0,0.0,0.0,0.0,0.0,0.0,0.0,0.0,0.0,0.0,0.0,0.0,0.0,0.0,0.0,0.0,0.0,0.0,0.0,0.0,0.0,0.0,0.0,0.0,0.0,0.0,0.0,0.0,0.0,0.0,0.0,0.0,0.0,0.0,0.0,0.0,0.0,0.0,0.0,0.0,0.0,0.0,0.0,0.0,0.0,0.0,0.0,0.0,-3.174,-3.2293,-3.2017,-3.0475,-3.011,-2.9322,-2.7679,-2.739,-2.7092,-2.6609,0.0,0.0,0.0,0.0,0.0,0.0,0.0,0.0,0.0,0.0,0.0,0.0,0.0,0.0,0.0,0.0,0.0,0.0,0.0,0.0,0.0,0.0,0.0,0.0,0.0,0.0,0.0,0.0,0.0,0.0,0.0,0.0,0.0,0.0,0.0,0.0,0.0,0.0,0.0,0.0,0.0,0.0,0.0,0.0,0.0,0.0,0.0,0.0,0.0,0.0,0.0,0.0,0.0,0.0,0.0,0.0,0.0,0.0,0.0,0.0,0.0,0.0,0.0,0.0,0.0,0.0,0.0,0.0,0.0,0.0,0.0,0.0,0.0,0.0,0.0,0.0,0.0,0.0,0.0,0.0,0.0,0.0,0.0,0.0,0.0,0.0,0.0,0.0,0.0,0.0,0.0,0.0,0.0,0.0,0.0,0.0,0.0,0.0,0.0,0.0,0.0,0.0,-3.1111,-3.1845,-3.167,-3.0127,-2.9951,-2.9228,-2.7451,-2.7299,-2.7299,-2.7299,0.0,0.0,0.0,0.0,0.0,0.0,0.0,0.0,0.0,0.0,0.0,0.0,0.0,0.0,0.0,0.0,0.0,0.0,0.0,0.0,0.0,0.0,0.0,0.0,0.0,0.0,0.0,0.0,0.0,0.0,0.0,0.0,0.0,0.0,0.0,0.0,0.0,0.0,0.0,0.0,0.0,0.0,0.0,0.0,0.0,0.0,0.0,0.0,0.0,0.0,0.0,0.0,0.0,0.0,0.0,0.0,0.0,0.0,0.0,0.0,-3.5254,0.0,0.0,0.0,0.0,0.0,0.0,0.0,0.0,0.0,0.0,0.0,0.0,0.0,0.0,0.0,0.0,0.0,0.0,0.0,0.0,0.0,0.0,0.0,0.0,0.0,0.0,0.0,0.0,0.0,0.0,0.0,0.0,0.0,0.0,0.0,0.0,0.0,0.0,0.0,0.0,0.0,-3.1564,-3.1807,-3.1322,-2.9781,-2.9608,-2.8969,-2.7435,-2.7299,-2.7299,-2.7299,-2.585,0.0,0.0,0.0,0.0,0.0,0.0,0.0,0.0,0.0,0.0,0.0,0.0,0.0,0.0,0.0,0.0,0.0,0.0,0.0,0.0,0.0,0.0,0.0,0.0,0.0,0.0,0.0,0.0,0.0,0.0,0.0,0.0,0.0,0.0,0.0,0.0,0.0,0.0,0.0,0.0,0.0,0.0,0.0,0.0,0.0,0.0,0.0,0.0,0.0,0.0,0.0,0.0,0.0,0.0,0.0,0.0,0.0,0.0,0.0,0.0,-3.6059,0.0,0.0,0.0,0.0,0.0,0.0,0.0,0.0,0.0,0.0,0.0,0.0,0.0,0.0,0.0,0.0,0.0,0.0,0.0,0.0,0.0,0.0,0.0,0.0,0.0,0.0,0.0,0.0,0.0,0.0,0.0,0.0,0.0,0.0,0.0,0.0,0.0,0.0,0.0,0.0,-3.2231,-3.2334,-3.1886,-3.0731,-2.9937,-2.9058,-2.792,-2.7489,-2.7299,-2.7299,-2.6195,0.0,0.0,0.0,0.0,0.0,0.0,0.0,0.0,0.0,0.0,0.0,0.0,0.0,0.0,0.0,0.0,0.0,0.0,0.0,0.0,0.0,0.0,0.0,0.0,0.0,0.0,0.0,0.0,0.0,0.0,0.0,0.0,0.0,0.0,0.0,0.0,0.0,0.0,0.0,0.0,0.0,0.0,0.0,0.0,0.0,0.0,0.0,0.0,0.0,0.0,0.0,0.0,0.0,-3.7398,-3.7369,-3.7307,-3.7291,-3.7259,-3.7212,-3.7259,-3.7259,-3.7158,0.0,0.0,0.0,0.0,0.0,0.0,0.0,0.0,0.0,0.0,0.0,0.0,0.0,0.0,0.0,0.0,0.0,0.0,0.0,0.0,0.0,0.0,0.0,0.0,0.0,-3.4273,-3.4588,0.0,0.0,0.0,0.0,0.0,0.0,0.0,0.0,0.0,0.0,0.0,0.0,-3.2817,-3.2904,-3.2576,-3.1696,-3.0351,-2.9213,-2.8454,-2.7713,-2.7299,-2.7299,-2.654,-2.5833,0.0,0.0,0.0,0.0,0.0,0.0,0.0,0.0,0.0,0.0,0.0,0.0,0.0,0.0,0.0,0.0,0.0,0.0,0.0,0.0,0.0,0.0,0.0,0.0,0.0,0.0,0.0,0.0,0.0,0.0,0.0,0.0,-3.8707,-3.8707,0.0,0.0,0.0,0.0,0.0,0.0,0.0,0.0,0.0,0.0,0.0,0.0,0.0,-3.7771,-3.8362,-3.8362,-3.8352,-3.8329,-3.8266,-3.8223,-3.8143,-3.8077,-3.8046,-3.8046,-3.8046,0.0,-3.7991,-3.7176,0.0,0.0,0.0,0.0,0.0,0.0,0.0,0.0,0.0,0.0,0.0,0.0,0.0,0.0,0.0,0.0,0.0,0.0,0.0,0.0,0.0,0.0,-3.5177,-3.5278,-3.5469,-3.5603,0.0,-3.4576,-3.3485,-3.2627,-3.2116,0.0,0.0,0.0,0.0,0.0,0.0,0.0,-3.2886,-3.2904,-3.2369,-3.0989,-3.0041,-2.9213,-2.8454,-2.7713,-2.7299,-2.7299,-2.654,-2.6059,-2.5971,-2.4577,0.0,0.0,0.0,0.0,0.0,0.0,0.0,0.0,0.0,0.0,0.0,0.0,0.0,0.0,0.0,0.0,0.0,0.0,0.0,0.0,0.0,0.0,0.0,0.0,0.0,0.0,0.0,0.0,0.0,-3.8707,-3.8707,-3.8707,-3.8707,-3.8707,0.0,0.0,0.0,0.0,0.0,0.0,0.0,0.0,0.0,-3.8833,-3.9294,-3.9632,-3.9886,-3.9951,-3.9886,-3.9631,-3.9666,-3.9414,-3.893,-3.8879,-3.8644,-3.8209,-3.8209,-3.8209,-3.8136,-3.7339,-3.6642,-3.5986,0.0,0.0,0.0,0.0,-3.4015,-3.4083,-3.4484,-3.4636,0.0,-3.3677,0.0,0.0,0.0,0.0,0.0,0.0,0.0,0.0,0.0,0.0,0.0,-3.5498,-3.5644,-3.5808,-3.6248,-3.5574,-3.4699,0.0,-3.3762,-3.324,-3.2145,0.0,0.0,0.0,0.0,0.0,-3.3559,-3.3179,-3.249,-3.142,-3.0231,-2.9213,-2.8454,-2.7713,-2.7299,-2.7299,-2.6971,-2.6764,-2.6764,-2.568,-2.4939,0.0,0.0,0.0,0.0,0.0,0.0,0.0,0.0,0.0,0.0,0.0,0.0,0.0,0.0,0.0,0.0,0.0,0.0,0.0,0.0,0.0,0.0,0.0,0.0,0.0,0.0,0.0,0.0,-3.8735,-3.875,-3.8896,-3.878,-3.8738,0.0,0.0,0.0,0.0,0.0,0.0,-3.9276,-3.9313,-3.9588,-4.0194,-4.0799,-4.1029,-4.0877,-4.0944,-4.0843,-4.0581,-4.0652,-4.0344,-3.9677,-3.9677,-3.9242,-3.8517,-3.8517,-3.839,-3.8154,-3.7557,-3.6948,-3.6341,-3.5519,-3.4814,-3.4315,-3.466,-3.4776,-3.4861,-3.5397,-3.56,-3.5414,-3.4315,0.0,-3.4286,-3.3207,0.0,0.0,0.0,0.0,-3.41,-3.4641,-3.4776,-3.4928,-3.5464,-3.56,-3.5752,-3.6349,-3.6096,-3.5749,0.0,-3.5372,-3.4799,-3.4177,0.0,0.0,0.0,0.0,-3.4113,-3.4113,-3.3404,-3.2559,-3.161,-3.0317,-2.9213,-2.8454,-2.7713,-2.7299,-2.7299,-2.7471,-2.7489,-2.7315,-2.6902,-2.649,-2.6109,0.0,0.0,0.0,0.0,0.0,0.0,0.0,0.0,0.0,0.0,0.0,0.0,0.0,0.0,0.0,0.0,0.0,0.0,0.0,0.0,0.0,0.0,0.0,0.0,0.0,0.0,0.0,0.0,0.0,-3.9401,-3.9003,0.0,0.0,0.0,0.0,-3.9772,-3.9806,-4.012,-4.093,-4.0967,-4.1003,-4.104,-4.1077,-4.1095,-4.1095,-4.0976,-4.0874,-4.0773,-4.0722,-4.0599,-4.0438,-4.0438,-4.0039,-3.9333,-3.9333,-3.8915,-3.8209,-3.8172,-3.8119,-3.8,-3.712,-3.6757,-3.6636,-3.583,-3.5532,-3.5549,-3.5583,-3.56,-3.5583,-3.5515,-3.5047,-3.4472,-3.4404,-3.4404,0.0,0.0,-3.4928,-3.5498,-3.5532,-3.5532,-3.5549,-3.5583,-3.56,-3.5616,-3.565,-3.5616,-3.6096,0.0,-3.6388,-3.5486,-3.7008,0.0,-3.4562,-3.5921,-3.4956,-3.4113,-3.4113,-3.3404,-3.2352,-3.0921,-3.0006,-2.9213,-2.8454,-2.7713,-2.7299,-2.7299,-2.7954,-2.8023,-2.7333,-2.7937,-2.7609,-2.6143,-2.6816,0.0,0.0,0.0,0.0,0.0,0.0,0.0,0.0,0.0,0.0,0.0,0.0,0.0,0.0,0.0,0.0,0.0,0.0,0.0,0.0,0.0,0.0,0.0,0.0,0.0,0.0,0.0,0.0,-4.024,-4.0603,0.0,-4.0948,-4.0886,-4.0859,-4.0918,-4.0922,-4.1203,-4.1844,-4.1882,-4.2121,-4.2635,-4.2602,-4.2533,-4.2446,-4.2392,-4.2304,-4.2159,-4.1687,-4.1125,-4.0492,-4.0492,-4.0111,-3.9387,-3.9387,-3.9224,-3.8899,-3.8096,-3.7595,-3.7339,-3.7017,-3.656,-3.6028,-3.5717,-3.56,-3.56,-3.56,-3.56,-3.56,-3.56,-3.5414,-3.5216,-3.5216,-3.5216,-3.5216,-3.5216,-3.5397,-3.56,-3.56,-3.56,-3.56,-3.56,-3.56,-3.5735,-3.6265,-3.5977,-3.6107,-3.7819,-3.6795,-3.5711,-3.5987,-3.5732,-3.5525,-3.5576,-3.4731,-3.4113,-3.4113,-3.2972,-3.18,-3.0817,-2.9972,-2.9213,-2.8454,-2.7713,-2.7299,-2.7299,-2.7989,-2.8282,-2.8023,-2.8265,-2.8144,-2.7592,-2.732,-2.6306,0.0,0.0,0.0,0.0,0.0,0.0,0.0,0.0,0.0,0.0,0.0,0.0,0.0,0.0,0.0,0.0,0.0,0.0,0.0,0.0,0.0,0.0,0.0,0.0,0.0,0.0,-4.0885,-4.1338,-4.1763,-4.2039,-4.2128,-4.2052,-4.2015,-4.2072,-4.1975,-4.2183,-4.2853,-4.2776,-4.2947,-4.3478,-4.3464,-4.3394,-4.3269,-4.2959,-4.2723,-4.2558,-4.1778,-4.1089,-4.0492,-4.0492,-4.0111,-3.9387,-3.9387,-3.9242,-3.8917,-3.79,-3.7247,-3.688,-3.6741,-3.635,-3.5822,-3.5667,-3.56,-3.56,-3.56,-3.56,-3.56,-3.56,-3.56,-3.56,-3.56,-3.56,-3.56,-3.56,-3.56,-3.56,-3.56,-3.56,-3.56,-3.56,-3.56,-3.5735,-3.6282,-3.5994,-3.5972,-3.7155,-3.6631,-3.6062,-3.6251,-3.6297,-3.6232,-3.6011,-3.4924,-3.4113,-3.4113,-3.2748,-3.1524,-3.0783,-3.0213,-2.9506,-2.8489,-2.7954,-2.7661,-2.7661,-2.8127,-2.8403,-2.8403,-2.8386,-2.8249,-2.7957,-2.7377,-2.671,-2.6021,0.0,0.0,0.0,0.0,0.0,0.0,0.0,0.0,0.0,0.0,0.0,0.0,0.0,0.0,0.0,0.0,0.0,0.0,0.0,0.0,0.0,0.0,0.0,-4.1035,-4.0939,-4.1314,-4.2686,-4.2397,-4.2222,-4.2481,-4.2271,-4.2408,-4.3184,-4.2945,-4.3125,-4.3968,-4.3699,-4.3515,-4.3515,-4.3461,-4.3426,-4.3358,-4.2429,-4.1922,-4.1851,-4.0908,-4.0456,-4.0456,-4.0456,-4.0093,-3.9387,-3.9387,-3.8952,-3.8193,-3.7685,-3.7265,-3.686,-3.6451,-3.6301,-3.6216,-3.5778,-3.56,-3.56,-3.56,-3.56,-3.56,-3.56,-3.56,-3.56,-3.56,-3.56,-3.56,-3.56,-3.56,-3.56,-3.56,-3.56,-3.56,-3.56,-3.56,-3.56,-3.56,-3.56,-3.5689,-3.5932,-3.598,-3.6468,-3.8053,-3.7201,-3.6559,-3.7323,-3.5545,0.0,-3.4079,-3.2731,-3.1524,-3.0817,-3.0696,-3.011,-2.8592,-2.8454,-2.842,-2.8403,-2.842,-2.8454,-2.8472,-2.8405,-2.7994,-2.7188,-2.7125,-2.7401,-2.7998,0.0,0.0,0.0,0.0,0.0,0.0,0.0,0.0,0.0,0.0,0.0,0.0,0.0,0.0,0.0,0.0,0.0,0.0,0.0,0.0,0.0,0.0,-4.1159,-4.1111,-4.2248,-4.3232,-4.3614,-4.4102,-4.4421,-4.4505,-4.4443,-4.4376,-4.4373,-4.4266,-4.4153,-4.4017,-4.391,-4.3749,-4.3515,-4.279,-4.2391,-4.2392,-4.1414,-4.089,-4.089,-4.0093,-3.9695,-3.9695,-3.9695,-3.9586,-3.9387,-3.9387,-3.926,-3.8972,-3.7607,-3.6997,-3.686,-3.6451,-3.6088,-3.5761,-3.5644,-3.56,-3.56,-3.56,-3.56,-3.56,-3.56,-3.56,-3.56,-3.56,-3.56,-3.56,-3.56,-3.56,-3.56,-3.56,-3.56,-3.56,-3.56,-3.56,-3.56,-3.56,-3.56,-3.5622,-3.5711,-3.544,-3.5566,-3.6685,-3.6555,-3.6197,-3.587,-3.4855,0.0,-3.33,-3.2386,-3.1714,-3.1524,-3.1025,-3.0541,-3.0093,-2.9523,-2.8972,-2.8437,-2.8903,-2.9455,-3.0041,-2.997,-2.947,-2.8578,-2.909,-2.8883,0.0,0.0,0.0,0.0,0.0,0.0,0.0,0.0,0.0,0.0,0.0,0.0,0.0,0.0,0.0,0.0,0.0,0.0,0.0,0.0,0.0,0.0,-4.1571,-4.2487,-4.2343,-4.3285,-4.414,-4.4494,-4.4991,-4.5307,-4.5307,-4.5307,-4.5224,-4.5023,-4.4879,-4.4612,-4.4177,-4.4064,-4.368,-4.3019,-4.2422,-4.1934,-4.15,-4.0578,-4.0091,-4.0039,-3.926,-3.8915,-3.8915,-3.8915,-3.8716,0.0,-3.839,-3.8192,-3.7798,-3.6484,-3.5952,0.0,0.0,0.0,0.0,0.0,-3.56,-3.56,-3.56,-3.56,-3.56,-3.56,-3.56,-3.56,-3.56,-3.56,-3.56,-3.56,-3.56,-3.56,-3.56,-3.56,-3.56,-3.56,-3.56,-3.5515,-3.5216,-3.5148,-3.5047,-3.4803,-3.4525,0.0,-3.518,-3.5349,-3.5232,-3.4783,-3.4076,-3.3421,-3.2955,-3.2265,-3.18,-3.18,-3.142,-3.1042,-3.0731,-3.0265,0.0,0.0,0.0,-2.9834,-3.0536,-3.0499,0.0,0.0,0.0,0.0,0.0,0.0,0.0,0.0,-2.9497,-3.0429,0.0,0.0,0.0,0.0,0.0,0.0,0.0,0.0,0.0,0.0,0.0,0.0,0.0,0.0,0.0,0.0,-4.2497,-4.4025,-4.4121,-4.414,-4.4437,-4.5201,-4.5307,-4.5307,-4.5307,-4.5307,-4.5307,-4.5307,-4.5023,-4.4676,-4.4298,0.0,0.0,0.0,0.0,-4.158,-4.0698,-3.9859,-3.9393,-3.926,-3.8553,-3.8209,-3.8209,-3.8118,-3.7683,-3.6995,-3.6904,-3.6453,-3.5738,-3.4925,-3.4562,-3.4516,-3.5215,-3.5481,-3.5481,-3.5566,-3.56,-3.56,-3.56,0.0,0.0,-3.56,-3.56,-3.56,-3.56,-3.56,-3.56,-3.56,-3.56,-3.56,-3.56,-3.5532,-3.5481,-3.5481,-3.5414,-3.516,-3.4523,-3.437,-3.4227,-3.3668,-3.3522,-3.3536,-3.3719,-3.3945,-3.4059,-3.3992,-3.3352,-3.2869,-3.28,-3.2196,-3.18,-3.18,0.0,0.0,-3.0869,-3.0817,-3.0782,-3.0678,-3.0161,-3.0124,-3.0728,-3.0917,-3.1149,-3.1427,-3.0245,-3.0499,-3.2293,-3.1735,-3.2154,-3.3491,-3.2026,-3.2444,0.0,0.0,0.0,0.0,0.0,0.0,0.0,0.0,0.0,0.0,0.0,0.0,0.0,0.0,0.0,-4.2097,-4.3261,-4.4255,-4.4953,-4.5048,-4.5105,-4.5288,-4.5307,-4.5307,-4.5307,-4.5307,-4.5307,-4.5307,-4.5246,-4.4672,-4.3498,-4.3366,0.0,-4.1385,-4.0661,-4.0193,-3.9995,-3.9106,-3.8589,-3.851,0.0,0.0,-3.8191,-3.7538,-3.7158,-3.6959,-3.6309,-3.5931,-3.5738,-3.4925,-3.4222,-3.3703,-3.4418,-3.4709,-3.4776,-3.538,-3.56,-3.56,-3.56,-3.56,-3.56,-3.56,-3.56,-3.56,-3.56,-3.56,0.0,-3.56,-3.56,-3.56,-3.56,-3.5165,-3.4709,-3.4709,-3.4269,-3.3795,-3.3643,-3.3609,-3.3575,-3.3461,-3.3097,-3.279,-3.2767,-3.3422,-3.3753,-3.3212,-3.3007,-3.2697,-3.2093,-3.1886,-3.18,-3.18,-3.18,-3.1731,-3.1593,-3.1502,-3.1172,-3.0588,-3.1475,-3.2283,-3.2873,-3.4083,-3.4194,-3.3,-3.3271,-3.3072,-3.2293,-3.2747,-3.3423,-3.4269,-3.2932,-3.289,0.0,0.0,0.0,0.0,0.0,0.0,0.0,0.0,0.0,0.0,0.0,-3.9314,-3.9676,0.0,-4.247,-4.3271,-4.4112,-4.48,-4.5239,-4.5307,-4.5307,-4.5307,-4.5307,-4.5125,-4.4685,-4.4647,-4.4475,-4.4074,-4.4055,-4.3659,-4.2793,-4.2616,-4.1978,-4.0738,-4.015,-3.9619,-3.915,-3.8679,-3.8433,-3.8336,-3.7905,-3.7691,-3.7606,-3.6794,-3.6182,-3.5765,-3.5385,-3.4969,-3.4545,-3.3773,-3.3096,-3.2622,-3.3168,-3.3609,-3.3998,-3.437,-3.4484,-3.4484,-3.4484,-3.4742,-3.5064,-3.5064,-3.5295,-3.56,-3.56,-3.5329,-3.5064,-3.5064,-3.5064,-3.5064,-3.5064,-3.4776,-3.4489,-3.4489,-3.3931,-3.3305,-3.2933,-3.2848,-3.273,-3.2374,-3.2066,-3.1907,-3.1907,-3.2352,-3.2588,-3.225,-3.2238,-3.2121,-3.176,-3.1746,-3.18,-3.18,-3.18,-3.18,-3.18,-3.169,-3.1615,-3.1651,-3.2581,-3.3455,-3.4075,-3.4827,-3.4834,-3.3964,-3.3947,-3.3761,-3.341,-3.3761,-3.4539,-3.5622,-3.4718,-3.4642,0.0,0.0,0.0,0.0,0.0,0.0,0.0,0.0,-3.8296,-3.845,-3.9688,-4.0715,-4.0665,-4.2536,-4.4077,-4.4017,-4.4723,-4.5239,-4.5067,-4.5048,-4.4991,-4.4819,-4.4953,-4.4704,-4.3854,-4.3758,-4.3491,-4.2851,-4.2794,-4.2578,-4.209,-4.1814,-4.1186,-4.01,-3.9795,-3.93,-3.8559,-3.8379,-3.8274,-3.8177,-3.7314,-3.6869,-3.6835,-3.596,-3.5206,-3.4591,-3.4443,-3.3946,-3.3241,-3.2569,-3.2056,-3.1727,-3.1995,-3.2462,-3.3017,-3.3305,-3.3406,-3.3406,-3.3406,-3.3795,-3.4286,-3.4286,-3.4692,-3.516,-3.516,-3.4759,-3.4286,-3.4286,-3.4286,-3.4286,-3.4286,-3.4167,-3.4066,-3.4066,-3.3508,-3.2814,-3.2226,-3.209,-3.1921,-3.1309,-3.121,-3.1232,-3.1274,-3.1387,-3.1462,-3.15,-3.1578,-3.1617,-3.1598,-3.169,-3.1763,-3.1744,-3.1744,-3.1777,-3.1913,-3.1838,-3.2158,-3.3063,-3.3581,-3.4159,-3.4834,-3.4873,-3.4834,-3.4709,-3.4134,-3.4117,-3.4709,-3.4861,-3.5594,-3.6789,-3.6489,-3.6532,-3.9496,-3.8661,0.0,-3.895,-3.8565,-3.8392,0.0,0.0,-3.9361,-4.0073,-4.0929,-4.1552,-4.1555,-4.2957,-4.4077,-4.4017,-4.4723,-4.5029,-4.4255,-4.414,-4.3873,-4.3157,-4.3711,-4.3834,-4.3004,-4.2928,-4.2908,-4.2813,-4.2794,-4.234,-4.1298,-4.0978,-4.0343,-3.9263,-3.8966,-3.8765,-3.8673,-3.7973,-3.7561,-3.7418,-3.6553,-3.6094,-3.6002,-3.5126,-3.4682,-3.457,-3.3846,-3.3283,-3.2844,-3.2469,-3.2056,-3.1675,-3.1414,-3.136,-3.1596,-3.2916,-3.3406,-3.3406,-3.3406,-3.3457,-3.3525,-3.3525,-3.3592,-3.366,-3.366,-3.3592,-3.3525,-3.3525,-3.3525,-3.3525,-3.3525,-3.3034,-3.2547,-3.2547,-3.1989,-3.141,-3.1326,-3.1309,-3.1292,-3.1207,-3.1252,-3.1274,-3.123,-3.1254,-3.1389,-3.156,-3.169,-3.1727,-3.1617,-3.1617,-3.1596,-3.1555,-3.1536,-3.1771,-3.2375,-3.2406,-3.2941,-3.4232,-3.4363,-3.473,-3.547,-3.5504,-3.5487,-3.5481,-3.5397,-3.538,-3.5481,-3.618,-3.6626,-3.6812,-3.7418,-3.7465,-3.9958,0.0,0.0,0.0,-3.9727,-3.965,-4.0342,-4.0246,-4.0092,-4.0439,-4.1569,-4.2488,-4.2418,-4.3752,-4.4824,0.0,-4.4647,-4.4418,-4.4045,-4.3605,-4.2985,-4.2144,-4.2335,-4.2412,-4.2087,-4.203,-4.1858,-4.138,-4.1361,-4.115,-4.0661,-4.0238,-3.9802,-3.9356,-3.8459,-3.7991,-3.7991,-3.7202,-3.6765,-3.6703,-3.5802,-3.5341,-3.5297,-3.4422,-3.3986,-3.3941,-3.3553,-3.3301,-3.3114,-3.2749,-3.2368,-3.2021,-3.1638,-3.137,-3.1258,-3.1884,-3.2121,-3.2121,-3.2121,-3.2391,-3.2767,-3.2767,-3.3051,-3.3406,-3.3406,-3.3102,-3.2767,-3.2767,-3.2767,-3.2767,-3.2767,-3.253,-3.2293,-3.2293,-3.1752,-3.119,-3.119,-3.119,-3.119,-3.119,-3.1213,-3.1368,-3.1769,-3.1543,-3.1485,-3.2039,-3.1756,-3.1485,-3.143,-3.1502,-3.1709,-3.2095,-3.213,-3.2417,-3.3148,-3.3172,-3.3569,-3.4541,-3.4549,-3.4827,-3.5566,-3.56,-3.56,-3.56,-3.56,-3.56,-3.56,-3.5943,-3.6569,-3.7449,-3.777,-3.8224,-4.0015,0.0,0.0,-4.0439,-4.0496,-4.0496,-4.0496,-4.0689,-4.0854,-4.0854,-4.2231,-4.3408,-4.3281,-4.4422,0.0,-4.4993,-4.4428,-4.3855,-4.3386,-4.2813,-4.2125,-4.1266,-4.117,-4.117,-4.117,-4.117,-4.0922,-4.0339,-4.0301,-4.0301,-4.0301,-3.9792,-3.9401,-3.9176,-3.8081,-3.7382,-3.718,-3.634,-3.5936,-3.5936,-3.5003,-3.4572,-3.4554,-3.3875,-3.3549,-3.3509,-3.3422,-3.3393,-3.3364,-3.2878,-3.2518,-3.2248,-3.1768,-3.1408,-3.119,-3.119,-3.119,-3.119,-3.119,-3.1565,-3.2005,-3.2005,-3.2357,-3.2797,-3.2797,-3.2408,-3.2005,-3.2005,-3.2005,-3.2005,-3.2005,-3.2005,-3.2056,-3.2242,-3.1752,-3.1258,-3.1464,-3.1326,-3.119,-3.119,-3.136,-3.1684,-3.2209,-3.2083,-3.2021,-3.2394,-3.1953,-3.1514,-3.1312,-3.1368,-3.1779,-3.2716,-3.263,-3.2886,-3.384,-3.3879,-3.4156,-3.4902,-3.4871,-3.5047,-3.5583,-3.56,-3.56,-3.56,-3.56,-3.56,-3.56,-3.6022,-3.68,-3.7922,-3.8328,-3.9073,0.0,0.0,-3.9515,-4.0304,-4.0496,-4.0496,-4.0496,-4.1143,-4.175,-4.175,-4.3109,-4.4237,-4.4163,-4.4844,-4.5103,-4.4199,-4.4076,-4.3522,-4.181,-4.1552,-4.1246,-4.0435,-4.0339,-4.0339,0.0,-4.0339,-4.032,-4.0301,-4.0301,-4.0301,-4.0301,-3.9792,-3.9138,-3.8362,-3.7803,-3.7125,-3.634,-3.5463,-3.5041,-3.5041,-3.4147,-3.3735,-3.3735,-3.3563,-3.3491,-3.3509,-3.3422,-3.3393,-3.3349,-3.262,-3.2317,-3.2231,-3.1504,-3.121,-3.119,-3.119,-3.119,-3.119,-3.119,-3.1207,-3.1224,-3.1224,-3.1241,-3.1258,-3.1258,-3.1241,-3.1224,-3.1224,-3.1224,-3.1224,-3.1224,-3.1224,-3.141,-3.2141,-3.1752,-3.1393,-3.2107,-3.1698,-3.119,-3.119,-3.1785,-3.2276,-3.2293,-3.2865,-3.3102,-3.2412,-3.2276,-3.2029,-3.1378,-3.1252,-3.1769,-3.322,-3.275,-3.2886,-3.4358,-3.4477,-3.4776,-3.5515,-3.5566,-3.5583,-3.56,-3.56,-3.56,-3.56,-3.56,-3.56,-3.56,-3.7087,-3.7855,-3.7939,-3.9385,-4.0062,0.0,0.0,-4.0169,-4.0439,-4.0931,-4.1354,-4.1354,-4.2047,-4.2662,-4.2662,-4.3107,-4.3475,-4.3422,-4.4104,-4.4345,-4.336,-4.3226,-4.2833,-4.1657,-4.1036,-4.0597,-4.032,-4.0301,0.0,0.0,0.0,0.0,-4.0301,-4.0301,-4.0301,-4.0301,-3.9792,-3.9138,-3.8324,-3.7266,-3.6303,-3.5445,-3.4633,-3.4197,-3.4197,-3.3908,-3.3766,-3.3766,-3.3671,-3.3629,-3.3633,-3.3563,-3.3509,-3.3452,-3.3208,-3.2781,-3.2283,-3.2021,-3.1637,-3.119,-3.119,-3.119,-3.119,-3.119,-3.119,-3.119,-3.119,-3.119,-3.119,-3.119,-3.119,-3.119,-3.119,-3.119,-3.119,-3.119,-3.119,-3.1258,-3.1495,-3.1752,-3.2005,-3.2242,-3.2476,-3.2662,-3.2662,-3.2865,-3.3186,-3.3698,-3.3558,-3.3322,-3.3068,-3.2188,-3.1667,-3.1927,-3.1941,-3.2496,-3.3964,-3.3897,-3.415,-3.5165,-3.5233,-3.5329,-3.5583,-3.56,-3.56,-3.56,-3.56,-3.56,-3.56,-3.56,-3.5853,-3.64,-3.6907,-3.7669,-3.8633,-3.914,-3.9639,0.0,-3.9688,-4.015,-4.0439,-4.1162,-4.1788,-4.1788,-4.2701,-4.3451,-4.3162,-4.3585,-4.378,-4.3113,-4.3698,-4.3978,-4.2995,-4.2593,-4.2192,-4.1609,-4.0816,-4.0301,-4.0301,-4.0559,0.0,0.0,0.0,0.0,-4.032,-4.0301,-4.0301,-4.0301,-3.952,-3.87,-3.7866,-3.6544,-3.5426,-3.4582,-3.4064,-3.3807,-3.3807,-3.3807,-3.3807,-3.3807,-3.3726,-3.3698,-3.3698,-3.3633,-3.3577,-3.3506,-3.3238,-3.2797,-3.2317,-3.2021,-3.1618,-3.119,-3.119,-3.119,-3.119,-3.119,-3.119,-3.119,-3.119,-3.119,-3.119,-3.119,-3.119,-3.119,-3.119,-3.119,-3.119,-3.119,-3.119,-3.1326,-3.185,-3.2158,-3.2446,-3.297,-3.3254,-3.3406,-3.3406,-3.3609,-3.3947,-3.4421,-3.4117,-3.3795,-3.3795,-3.2763,-3.2239,-3.2987,-3.2869,-3.3254,-3.4742,-3.4658,-3.4793,-3.5532,-3.56,-3.56,-3.56,-3.56,-3.56,-3.56,-3.56,-3.56,-3.56,-3.56,-3.6011,-3.6795,-3.7043,-3.7804,-3.9005,-3.9259,-3.9656,-3.9092,-3.9323,-3.9534,-4.0304,-4.1181,-4.1865,-4.1865,-4.3124,-4.4085,-4.3316,-4.4355,-4.4904,0.0,0.0,-4.3925,-4.2983,-4.2275,-4.1759,-4.1627,-4.0873,-4.0339,0.0,0.0,0.0,0.0,0.0,0.0,-4.0358,0.0,-4.0301,-4.0291,-3.9028,-3.7892,-3.7002,-3.5697,-3.4619,-3.3807,-3.3807,-3.3807,-3.3807,-3.3807,-3.3807,-3.3807,-3.3739,-3.3712,-3.3698,-3.3647,-3.3619,-3.3545,-3.2765,-3.2419,-3.2317,-3.1542,-3.121,-3.119,-3.119,-3.119,-3.119,-3.119,-3.119,-3.119,-3.119,-3.119,-3.119,-3.119,-3.119,-3.119,-3.119,-3.119,-3.119,-3.119,-3.119,-3.1562,-3.3,-3.2831,-3.275,-3.4184,-3.3981,-3.3525,-3.3525,-3.4083,-3.4556,-3.4556,-3.4556,-3.4556,-3.4556,-3.3964,-3.3761,-3.4404,-3.3897,-3.4015,-3.5447,-3.4979,-3.4844,-3.5532,-3.56,-3.56,-3.56,-3.56,-3.56,-3.56,-3.56,-3.56,-3.56,-3.5633,-3.6062,-3.6863,-3.7601,-3.8345,-3.9056,-3.9774,-4.0096,-3.9246,-3.9746,-4.0246,-4.0458,-4.1643,-4.2777,-4.2777,-4.3566,-4.4239,-4.4047,-4.3335,-4.2635,0.0,0.0,0.0,-4.2159,-4.2889,0.0,-4.1724,-4.1332,0.0,0.0,0.0,-4.054,-4.032,-4.0492,0.0,0.0,-4.0301,-4.0206,-4.0017,-3.892,-3.7827,-3.6802,-3.5628,-3.4619,-3.3807,-3.3807,-3.3807,-3.3807,-3.3807,-3.3807,-3.3807,-3.3793,-3.378,-3.378,-3.3766,-3.3726,-3.3643,-3.3187,-3.2765,-3.2351,-3.1912,-3.1504,-3.119,-3.119,-3.119,-3.119,-3.119,-3.119,-3.119,-3.119,-3.119,-3.119,-3.119,-3.119,-3.119,-3.119,-3.119,-3.119,-3.119,-3.119,-3.1427,-3.2361,-3.2848,-3.3372,-3.4303,-3.4776,-3.5042,-3.5042,-3.5177,-3.5312,-3.5312,-3.5312,-3.5312,-3.5312,-3.5143,-3.4928,-3.4539,-3.4336,-3.4573,-3.5498,-3.543,-3.5397,-3.5583,-3.56,-3.56,-3.56,-3.56,-3.56,-3.56,-3.56,-3.56,-3.56,-3.618,-3.6857,-3.7618,-3.8362,-3.9089,-3.9825,-4.0011,-4.0096,-3.9727,-4.0169,-4.0496,-4.0496,-4.1816,-4.3008,-4.2624,-4.3451,-4.4085,-4.3355,-4.2758,0.0,0.0,0.0,0.0,0.0,0.0,0.0,-4.2728,-4.1973,-4.1323,0.0,-4.0826,0.0,-4.032,-4.0616,-4.0692,0.0,-4.0301,-4.0034,-3.9412,-3.8343,-3.7241,-3.6149,-3.5053,-3.4266,-3.3807,-3.3807,-3.3807,-3.3807,-3.3807,-3.3807,-3.3807,-3.3807,-3.3807,-3.3807,0.0,-3.378,-3.3726,-3.335,-3.2939,-3.2486,-3.2039,-3.1618,-3.1232,-3.121,-3.119,-3.119,-3.119,-3.119,-3.119,-3.119,-3.119,-3.119,-3.119,-3.119,-3.119,-3.119,-3.119,-3.119,-3.119,-3.1427,-3.187,-3.2615,-3.3339,-3.4083,-3.4827,-3.5318,-3.56,-3.56,-3.56,-3.56,-3.56,-3.56,-3.56,-3.56,-3.56,-3.5447,-3.5047,-3.4979,-3.5148,-3.5549,-3.56,-3.56,-3.56,-3.56,-3.56,-3.56,-3.56,-3.56,-3.56,-3.56,-3.5752,-3.6129,-3.6552,-3.7313,-3.8379,-3.8802,-3.9377,-4.0096,-4.0096,-4.0096,-4.0304,-4.0496,-4.0535,-4.065,-4.1893,-4.2893,-4.2143,-4.3104,-4.3701,-4.2115,0.0,0.0,-4.0785,0.0,-4.2934,-4.297,0.0,-4.3311,-4.3991,-4.2785,-4.1743,-4.1533,-4.1495,-4.117,-4.0377,-4.0922,-4.1055,-4.0339,-4.0263,-3.9823,-3.8869,-3.763,-3.6419,-3.5225,-3.4302,-3.3807,-3.3807,-3.3807,-3.3807,-3.3807,-3.3807,-3.3807,-3.3807,-3.3807,-3.3807,-3.3807,0.0,0.0,-3.3762,-3.3394,-3.3032,-3.27,-3.2092,-3.1641,-3.1353,-3.1252,-3.121,-3.119,-3.119,-3.119,-3.119,-3.119,-3.119,-3.119,-3.119,-3.119,-3.119,-3.119,-3.119,-3.1207,-3.1309,-3.1819,-3.2513,-3.3355,-3.4032,-3.4692,-3.543,-3.56,-3.56,-3.56,-3.56,-3.56,-3.56,-3.56,-3.56,-3.56,-3.56,-3.56,-3.56,-3.56,-3.56,-3.56,-3.56,-3.56,-3.56,-3.56,-3.56,-3.56,-3.56,-3.56,-3.56,-3.56,-3.5994,-3.6778,-3.6897,-3.7625,-3.8988,-3.9089,-3.9462,-4.0096,-4.0096,-4.0096,-4.0458,-4.0496,-4.0669,-4.1393,-4.2335,-4.3066,-4.2912,-4.3104,0.0,0.0,0.0,-4.0862,-4.0554,-4.1335,0.0,-4.283,0.0,0.0,0.0,0.0,-4.3061,0.0,0.0,0.0,0.0,0.0,0.0,0.0,0.0,-3.9783,-3.9392,-3.7704,-3.5918,-3.4139,-3.3907,-3.3807,-3.3807,-3.3807,-3.3807,-3.3807,-3.3807,-3.3807,-3.3807,-3.3807,-3.3807,-3.3807,-3.3807,0.0,-3.3762,-3.3422,-3.3214,-3.3063,-3.2385,-3.1967,-3.1678,-3.1393,-3.1252,-3.119,-3.119,-3.119,-3.119,-3.119,-3.119,-3.119,-3.119,-3.119,-3.119,-3.119,-3.119,-3.1326,-3.1955,-3.2209,-3.2649,-3.3981,-3.4404,-3.4692,-3.543,-3.56,-3.56,-3.56,-3.56,-3.56,-3.56,-3.56,-3.56,-3.56,-3.56,-3.56,-3.56,-3.56,-3.56,-3.56,-3.56,-3.56,-3.56,-3.56,-3.56,-3.56,-3.56,-3.56,-3.56,-3.56,-3.5994,-3.6778,-3.7398,-3.8142,-3.8988,-3.9622,-3.9977,-4.0096,-4.0096,-4.0096,-4.0129,-4.0528,-4.0971,-4.0971,-4.2364,-4.3278,-4.1508,0.0,0.0,0.0,0.0,-3.9881,-3.9881,0.0,0.0,0.0,0.0,0.0,0.0,0.0,0.0,0.0,0.0,0.0,0.0,0.0,0.0,0.0,0.0,-3.9458,-3.8906,-3.693,-3.5593,-3.5124,-3.4247,-3.4009,-3.4417,-3.4009,-3.3807,-3.3807,-3.3807,-3.3807,-3.3807,-3.3807,-3.3807,-3.3807,-3.3807,0.0,-3.3793,-3.3638,-3.3437,-3.3214,-3.286,-3.2418,-3.1985,-3.175,-3.1524,-3.1363,-3.1363,-3.1308,-3.1235,-3.1235,-3.1232,-3.119,-3.119,-3.119,-3.1275,-3.1667,-3.1769,-3.1955,-3.2679,-3.3173,-3.363,-3.432,-3.4793,-3.5182,-3.5515,-3.56,-3.56,-3.56,-3.56,-3.56,-3.56,-3.56,-3.56,-3.56,-3.56,-3.56,-3.56,-3.56,-3.56,-3.56,-3.56,-3.56,-3.56,-3.56,-3.56,-3.56,-3.56,-3.56,-3.56,-3.6011,-3.6586,-3.7347,-3.8091,-3.8836,-3.9571,-3.9943,-4.0096,-4.0096,-4.0096,-4.0096,-4.0119,-4.0817,-4.1435,-4.0816,-4.245,-4.3391,-4.021,-4.0696,0.0,0.0,-3.915,-3.9092,-3.9265,0.0,0.0,0.0,0.0,0.0,0.0,0.0,0.0,0.0,0.0,0.0,0.0,0.0,0.0,0.0,0.0,0.0,-3.8172,-3.6476,-3.5771,-3.6285,-3.5018,-3.4651,-3.5261,-3.4472,-3.4156,-3.4321,-3.4156,-3.4156,-3.4321,-3.4137,-3.4064,-3.4045,-3.3862,0.0,0.0,-3.3807,-3.3634,-3.3394,-3.3258,-3.2844,-3.2301,-3.2109,-3.1803,-3.1498,-3.1462,-3.1387,-3.1295,-3.1276,-3.1353,-3.1427,-3.1427,-3.1546,-3.1782,-3.2378,-3.2547,-3.2716,-3.344,-3.4066,-3.4539,-3.4692,-3.5182,-3.56,-3.56,-3.56,-3.56,-3.56,-3.56,-3.565,-3.5842,-3.5853,-3.5904,-3.6056,-3.5955,-3.5853,-3.5853,-3.5701,-3.56,-3.56,-3.56,-3.56,-3.56,-3.5752,-3.5853,-3.5853,-3.6005,-3.609,-3.609,-3.6705,-3.7364,-3.8125,-3.87,-3.9343,-4.0096,-4.0096,-4.0096,-4.0096,-4.0096,-4.0096,-4.1188,-4.1598,-4.2204,-4.2132,-4.3031,-4.3272,-4.0701,0.0,0.0,0.0,-3.8661,-3.8354,-3.915,-3.87,0.0,0.0,0.0,0.0,0.0,0.0,0.0,0.0,0.0,0.0,0.0,0.0,0.0,0.0,0.0,0.0,-3.7646,-3.7375,-3.6978,-3.6321,-3.6156,-3.6101,-3.6174,-3.5316,-3.5279,-3.6064,-3.5261,-3.5298,-3.6046,-3.5243,-3.4894,-3.4857,-3.4119,0.0,0.0,-3.3807,-3.3775,-3.3721,-3.3408,-3.3016,-3.262,-3.23,-3.1893,-3.1479,-3.1351,-3.1315,-3.1276,-3.1232,-3.1667,-3.2192,-3.2192,-3.2662,-3.322,-3.3288,-3.3305,-3.3474,-3.4201,-3.4438,-3.4675,-3.5329,-3.5549,-3.56,-3.56,-3.56,-3.56,-3.56,-3.56,-3.5819,-3.6575,-3.6694,-3.6907,-3.7601,-3.711,-3.6694,-3.6694,-3.6062,-3.56,-3.56,-3.56,-3.56,-3.56,-3.6265,-3.6694,-3.6694,-3.7313,-3.7702,-3.7702,-3.777,-3.8159,-3.887,-3.8954,-3.9343,-4.0096,-4.0096,-4.0096,-4.0096,-4.0096,-4.0096,-4.1362,-4.2113,-4.2605,-4.1588,-4.2633,-4.2994,-3.948,0.0,0.0,-3.8084,-3.7469,-3.7315,-3.768,-3.745,-3.7601,0.0,0.0,0.0,0.0,0.0,0.0,0.0,0.0,0.0,0.0,0.0,0.0,0.0,0.0,0.0,-3.826,-3.7768,-3.7584,-3.7734,-3.6798,-3.6523,-3.7015,-3.6193,-3.5954,-3.6303,-3.5954,-3.5973,-3.6285,-3.5936,-3.55,-3.4986,-3.4656,0.0,0.0,-3.3807,-3.3807,-3.3793,-3.3652,-3.3258,-3.2749,-3.2619,-3.2144,-3.1559,-3.1504,-3.1715,-3.2026,-3.2004,-3.274,-3.3461,-3.2564,-3.2814,-3.3491,-3.3931,-3.4066,-3.4235,-3.4979,-3.5165,-3.525,-3.5532,-3.56,-3.5718,-3.6214,-3.6315,-3.6451,-3.6907,-3.6969,-3.7094,-3.7398,-3.7449,-3.755,-3.7872,-3.7263,-3.6795,-3.6795,-3.6096,-3.56,-3.56,-3.56,-3.56,-3.56,-3.6332,-3.6795,-3.6795,-3.7483,-3.7905,-3.7905,-3.8328,-3.87,-3.8988,-3.9453,-3.9808,-4.0096,-4.0096,-4.0096,-4.0096,-4.0188,-4.0213,-4.1794,-4.2677,-4.3095,-4.1678,-4.2529,-4.2683,0.0,0.0,-3.8716,-3.7031,-3.65,-3.6423,-3.6654,-3.65,-3.6697,0.0,0.0,0.0,0.0,0.0,0.0,0.0,0.0,0.0,0.0,0.0,0.0,0.0,0.0,0.0,0.0,-3.8157,-3.8102,-3.8689,-3.7606,-3.7276,-3.786,-3.707,-3.6762,-3.7,-3.6762,-3.678,-3.7,-3.6762,-3.6321,-3.572,0.0,0.0,0.0,-3.4156,-3.4009,-3.3775,-3.3694,-3.3302,-3.2779,-3.27,-3.2231,-3.167,-3.1836,-3.2166,-3.2576,-3.27,-3.3554,-3.4303,-3.3275,-3.3457,-3.4167,-3.4675,-3.4827,-3.4945,-3.5464,-3.56,-3.56,-3.56,-3.56,-3.5802,-3.6643,-3.6795,-3.7032,-3.777,-3.7905,-3.7973,-3.8193,-3.8227,-3.8311,-3.8514,-3.7736,-3.7218,-3.7422,-3.6569,-3.6045,-3.6259,-3.6276,-3.609,-3.5633,-3.6535,-3.7134,-3.7134,-3.7821,-3.8328,-3.8531,-3.9039,-3.9326,-3.9326,-3.9842,-4.0096,-4.0096,-4.0096,-4.0138,-4.0163,-4.0255,-4.033,-4.2797,-4.3373,-4.3801,-4.2965,-4.2992,-4.2378,0.0,-3.8698,-3.8482,-3.7009,-3.6077,-3.575,-3.6558,-3.6058,-3.6029,-3.7643,0.0,0.0,0.0,0.0,0.0,0.0,0.0,0.0,0.0,0.0,0.0,0.0,0.0,0.0,0.0,-3.8689,-3.8689,-3.8707,-3.8689,-3.8689,-3.8689,-3.7896,-3.7896,-3.867,-3.7878,-3.7915,-3.8652,-3.786,-3.7474,0.0,0.0,0.0,0.0,-3.4986,-3.4509,-3.378,-3.3437,-3.3108,-3.2747,-3.2437,-3.2091,-3.1866,-3.2395,-3.2591,-3.269,-3.3215,-3.3897,-3.4489,-3.4472,-3.4996,-3.5583,-3.5583,-3.5583,-3.5583,-3.56,-3.56,-3.56,-3.56,-3.56,-3.5802,-3.6643,-3.6795,-3.7032,-3.777,-3.7905,-3.8142,-3.8853,-3.8988,-3.9225,-3.9977,-3.8819,-3.8159,-3.887,-3.7709,-3.7083,-3.7804,-3.7889,-3.7256,-3.5718,-3.7026,-3.7889,-3.7889,-3.8582,-3.9334,-4.0045,-4.0079,-4.0096,-4.0096,-4.0096,-4.0096,-4.0096,-4.0096,-4.0163,-4.0305,-4.0305,-4.0362,-4.0587,-4.1293,-4.1887,-3.9937,-3.9647,-3.9331,-3.7327,-3.7024,-3.6941,-3.6068,-3.5673,-3.5577,-3.5827,-3.5673,-3.6217,-3.8431,-3.8835,0.0,0.0,0.0,0.0,0.0,0.0,0.0,0.0,0.0,0.0,0.0,0.0,0.0,0.0,-3.8707,-3.8707,-3.8707,-3.8707,-3.8707,-3.8707,-3.845,-3.845,-3.8707,-3.8432,-3.845,-3.8689,-3.8432,0.0,0.0,0.0,0.0,0.0,-3.5899,-3.5734,-3.5467,-3.5075,-3.453,-3.3988,-3.4105,-3.3529,-3.2778,-3.3444,-3.3828,-3.4057,-3.4232,-3.4853,-3.553,-3.553,-3.5569,-3.56,-3.56,-3.56,-3.56,-3.56,-3.56,-3.56,-3.56,-3.56,-3.5955,-3.7263,-3.755,-3.7922,-3.9165,-3.9394,-3.9486,-3.9723,-3.9757,-3.9673,-3.9402,-3.8937,-3.8548,-3.8278,-3.7838,-3.7652,-3.7889,-3.8345,-3.8261,-3.7256,-3.8075,-3.865,-3.865,-3.9326,-3.9859,-4.0096,-4.0096,-4.0138,-4.0238,-4.0238,-4.0288,-4.037,-4.037,-4.0436,-4.0576,-4.0576,-4.0648,0.0,-3.9914,-4.0393,-3.8859,-3.8427,-3.809,-3.6928,-3.6537,-3.6225,-3.5619,-3.55,-3.55,-3.55,-3.55,-3.6197,-3.837,-3.8731,0.0,0.0,0.0,0.0,0.0,0.0,0.0,0.0,0.0,0.0,0.0,0.0,0.0,0.0,-3.8707,-3.8707,-3.8707,-3.8707,-3.8707,-3.8707,-3.8707,-3.8707,-3.8707,-3.8707,-3.8707,-3.8707,-3.8707,0.0,0.0,0.0,0.0,0.0,-3.6758,-3.656,-3.6256,-3.5869,-3.5401,-3.4971,-3.5056,-3.45,-3.3802,-3.4493,-3.4769,-3.484,-3.5104,-3.5513,-3.591,-3.591,-3.5817,-3.5684,-3.5684,-3.5644,-3.56,-3.56,-3.56,-3.56,-3.56,-3.56,-3.6022,-3.7584,-3.7905,-3.8345,-3.9808,-4.0096,-4.0096,-4.0096,-3.9876,-3.9537,-3.9056,-3.8514,-3.8193,-3.8311,-3.8075,-3.8125,-3.8667,-3.914,-3.9249,-3.8768,-3.8886,-3.8988,-3.8988,-3.9411,-3.9825,-4.0171,-4.0188,-4.0238,-4.0362,-4.0362,-4.0412,-4.051,-4.0558,-4.0624,-4.0697,-4.0745,-4.0817,0.0,-3.8979,-3.9183,-3.9077,-3.8644,-3.8079,-3.7547,-3.6847,0.0,-3.5619,-3.55,-3.5519,-3.5577,-3.5596,-3.6121,-3.7813,-3.8132,0.0,0.0,0.0,0.0,0.0,0.0,0.0,0.0,0.0,0.0,0.0,0.0,0.0,0.0,-3.8707,-3.8707,-3.8707,-3.8707,-3.8707,-3.8707,-3.8707,-3.8707,-3.8707,-3.8707,-3.8707,-3.8707,-3.8707,0.0,0.0,0.0,0.0,0.0,-3.7584,-3.7162,-3.6421,-3.6012,-3.5849,-3.5779,-3.5461,-3.5102,-3.4884,-3.547,-3.5399,-3.5204,-3.5818,-3.5949,-3.5839,-3.5839,-3.5817,-3.5795,-3.5795,-3.5706,-3.56,-3.56,-3.56,-3.56,-3.56,-3.5633,-3.609,-3.7584,-3.7939,-3.8396,-3.9825,-4.0096,-4.0096,-4.0096,-3.9537,-3.9039,-3.8937,-3.7811,-3.7422,-3.8667,-3.8345,-3.8497,-3.9893,-4.0079,-4.0096,-4.0096,-3.9462,-3.9073,-3.9073,-3.9073,-3.9451,-4.0271,-4.0305,-4.0379,-4.051,-4.0534,-4.0534,-4.0534,-4.0631,-4.0721,-4.0721,-4.084,-4.0912,-3.5293,0.0,-3.7088,-3.599,-3.563,-3.5562,0.0,-3.5613,-3.5498,0.0,0.0,-3.5692,-3.6308,-3.6423,-3.7173,-3.9519,-4.0403,0.0,0.0,0.0,0.0,0.0,0.0,0.0,0.0,0.0,0.0,0.0,0.0,0.0,0.0,-3.8707,-3.8707,-3.8707,-3.8707,-3.8707,-3.8707,-3.8707,-3.8707,-3.8707,-3.8707,-3.8707,-3.8707,-3.8707,0.0,0.0,0.0,0.0,-3.8414,-3.8414,-3.8303,-3.8093,-3.764,-3.7307,-3.704,-3.6827,-3.6307,-3.5844,-3.6217,-3.617,-3.5946,-3.6165,-3.6216,-3.6174,-3.6174,-3.5915,-3.5644,-3.5644,-3.5622,-3.56,-3.56,-3.56,-3.56,-3.56,-3.6079,-3.6755,-3.7702,-3.8345,-3.9005,-3.9926,-4.0096,-4.0096,-4.0096,-3.996,-3.9469,-3.8328,-3.8345,-3.8193,-3.7422,-3.8142,-3.887,-3.9208,-3.9774,-4.0096,-4.0096,-3.9943,-3.9842,-3.9842,-3.9842,-3.9977,-4.0288,-4.0305,-4.0429,-4.0648,-4.0752,-4.0799,-4.0799,-4.084,-4.0847,-4.0847,-4.0888,-4.0912,-3.4197,-3.5212,-3.6133,-3.5461,-3.5359,-3.5505,-3.582,0.0,0.0,0.0,0.0,0.0,-3.6538,0.0,0.0,0.0,0.0,0.0,0.0,0.0,0.0,0.0,0.0,0.0,0.0,0.0,0.0,0.0,0.0,0.0,0.0,-3.8707,-3.8707,-3.8707,-3.8707,-3.8707,-3.8707,-3.8707,-3.8707,-3.8707,-3.8707,-3.8707,-3.8707,-3.8707,-3.8707,0.0,0.0,0.0,-3.8707,-3.8707,-3.8707,-3.8658,-3.8419,-3.8209,-3.8022,-3.7716,-3.7238,-3.6772,-3.6953,-3.6799,-3.6509,-3.6343,-3.628,-3.6233,-3.6191,-3.5954,-3.5689,-3.5778,-3.5734,-3.5667,-3.5622,-3.56,-3.5684,-3.6062,-3.6468,-3.71,-3.8159,-3.8717,-3.9208,-3.996,-4.0096,-4.0096,-4.0096,-3.9825,-3.9309,-3.8514,-3.8464,-3.8328,-3.7879,-3.8497,-3.9123,-3.9462,-3.9859,-4.0096,-4.0096,-4.0096,-4.0096,-4.0096,-4.0096,-4.0188,-4.0387,-4.0387,-4.0527,-4.0793,-4.0847,-4.0912,-4.0912,-4.0912,-4.0912,-4.0912,-4.0912,-4.0912,-3.4364,-3.5154,-3.5935,-3.5879,-3.6112,-3.6377,-3.6446,0.0,0.0,0.0,0.0,0.0,0.0,0.0,0.0,0.0,0.0,0.0,0.0,0.0,0.0,0.0,0.0,0.0,0.0,0.0,0.0,0.0,0.0,0.0,0.0,-3.8707,-3.8707,-3.8707,-3.8707,-3.8707,-3.8707,-3.8707,-3.8707,-3.8707,-3.8707,-3.8707,-3.8707,-3.8707,-3.8707,0.0,0.0,0.0,-3.8707,-3.8707,-3.8707,-3.8707,-3.8673,-3.8673,-3.8643,-3.8236,-3.7879,-3.7578,-3.745,-3.7189,-3.6821,-3.643,-3.6255,-3.6187,-3.6062,-3.5949,-3.5883,-3.5954,-3.5968,-3.592,-3.5791,-3.5853,-3.6129,-3.6806,-3.7049,-3.7489,-3.8717,-3.9089,-3.9368,-3.9977,-4.0096,-4.0096,-4.0096,-3.9588,-3.9123,-3.9005,-3.8464,-3.8261,-3.8768,-3.892,-3.9225,-3.9876,-4.0028,-4.0096,-4.0096,-4.0096,-4.0113,-4.0138,-4.0121,-4.0246,-4.0534,-4.0558,-4.068,-4.0912,-4.0912,-4.0912,-4.0912,-4.0912,-4.0912,-4.0912,-4.0912,-4.0912,-3.5101,-3.5925,-3.6273,-3.5127,-3.549,-3.6027,0.0,0.0,0.0,0.0,0.0,0.0,0.0,0.0,0.0,0.0,0.0,0.0,0.0,0.0,0.0,0.0,0.0,0.0,0.0,0.0,0.0,0.0,0.0,0.0,0.0,-3.8707,-3.8707,-3.8707,-3.8707,-3.8707,-3.8707,-3.8707,-3.8707,-3.8707,-3.8707,-3.8707,-3.8707,-3.8707,-3.8707,0.0,0.0,-3.8707,-3.8707,-3.8707,-3.8707,-3.8692,-3.8575,-3.8609,-3.8643,-3.817,-3.8,-3.7913,-3.7227,-3.6958,-3.6821,-3.643,-3.6301,-3.6259,-3.6187,-3.6144,-3.6096,-3.5883,-3.6209,-3.6649,-3.6626,-3.7077,-3.7584,-3.7702,-3.821,-3.8717,-3.8937,-3.9503,-3.996,-4.0079,-4.0096,-4.0096,-4.0096,-4.0011,-3.9723,-3.9089,-3.8903,-3.865,-3.8142,-3.8616,-3.9039,-3.9157,-3.974,-4.0096,-4.0096,-4.0096,-4.0163,-4.0263,-4.028,-4.0404,-4.0648,-4.0793,-4.0847,-4.0912,-4.0912,-4.0912,-4.0912,-4.0912,-4.0912,-4.0912,-4.0912,-4.0912,-3.4692,-3.5417,-3.5907,-3.5247,-3.5837,-3.6463,0.0,0.0,0.0,0.0,0.0,0.0,0.0,0.0,0.0,0.0,0.0,0.0,0.0,0.0,0.0,0.0,0.0,0.0,0.0,0.0,0.0,0.0,0.0,0.0,0.0,0.0,-3.8707,-3.8707,-3.8707,-3.8707,-3.8707,-3.8707,-3.8707,-3.8707,-3.8707,-3.8707,-3.8707,-3.8707,-3.8707,-3.8707,0.0,-3.8707,-3.8707,-3.8707,-3.8707,-3.8692,-3.8624,-3.8658,-3.8661,-3.8203,-3.8068,-3.7982,-3.7189,-3.7055,-3.7132,-3.6512,-3.6301,-3.628,-3.6127,-3.6418,-3.6722,-3.6429,-3.6593,-3.6847,-3.6818,-3.7347,-3.8007,-3.8396,-3.8751,-3.9106,-3.952,-3.9859,-4.0096,-4.0096,-4.0096,-4.0096,-4.0096,-4.0096,-3.9994,-3.9656,-3.9605,-3.9462,-3.9123,-3.9377,-3.9605,-3.9605,-3.991,-4.0096,-4.0096,-4.0163,-4.0238,-4.0305,-4.0453,-4.0576,-4.0697,-4.084,-4.0912,-4.0912,-4.0912,-4.0912,-4.0912,-4.0912,-4.0912,-4.0912,-4.0912,-4.0912,-3.4104,-3.4729,-3.5336,-3.5522,0.0,-3.6767,0.0,0.0,0.0,0.0,0.0,0.0,0.0,0.0,0.0,0.0,0.0,0.0,0.0,0.0,0.0,0.0,0.0,0.0,0.0,0.0,0.0,0.0,0.0,0.0,0.0,0.0,-3.8707,-3.8707,-3.8707,-3.8707,-3.8707,-3.8707,-3.8707,-3.8707,-3.8707,-3.8707,-3.8707,-3.8707,-3.8707,-3.8707,-3.8707,-3.8707,-3.8707,-3.8707,-3.8707,-3.8707,-3.8707,-3.8707,-3.8658,-3.8352,-3.8168,-3.8,-3.7302,-3.7189,-3.7246,-3.6516,-3.6301,-3.6293,-3.6311,-3.6774,-3.7271,-3.7137,-3.7261,-3.7426,-3.7343,-3.7855,-3.8565,-3.9106,-3.9242,-3.9419,-3.9977,-4.0096,-4.0096,-4.0096,-4.0096,-4.0096,-4.0096,-4.0096,-4.0096,-4.0096,-4.0096,-4.0096,-4.0096,-4.0096,-4.0096,-4.0096,-4.0096,-4.0096,-4.0121,-4.0288,-4.0404,-4.0404,-4.0576,-4.0721,-4.0745,-4.084,-4.0912,-4.0912,-4.0912,-4.0912,-4.0912,-4.0912,-4.0912,-4.0912,-4.0912,-4.0912,-3.3788,-3.443,-3.4843,-3.5582,0.0,0.0,0.0,0.0,0.0,0.0,0.0,0.0,0.0,0.0,0.0,0.0,0.0,0.0,0.0,0.0,0.0,0.0,0.0,0.0,0.0,0.0,0.0,0.0,0.0,0.0,0.0,0.0,0.0,-3.8707,-3.8707,-3.8707,-3.8707,-3.8707,-3.8707,-3.8707,-3.8707,-3.8707,-3.8707,-3.8707,-3.8707,-3.8707,-3.8707,-3.8707,-3.8707,-3.8707,-3.8707,-3.8707,-3.8707,-3.8707,-3.8692,-3.8676,-3.8417,-3.8051,-3.7614,-3.7228,-3.686,-3.643,-3.6301,-3.6418,-3.7016,-3.7252,-3.7413,-3.7859,-3.8503,-3.8982,-3.8885,-3.9402,-3.996,-4.0011,-4.0028,-4.0045,-4.0096,-4.0096,-4.0096,-4.0096,-4.0096,-4.0096,-4.0096,-4.0096,-4.0096,-4.0096,-4.0096,-4.0096,-4.0096,-4.0096,-4.0096,-4.0096,-4.0096,-4.0163,-4.028,-4.0527,-4.0673,-4.0673,-4.0697,-4.0745,-4.0888,-4.0894,-4.0912,-4.0912,-4.0912,-4.0912,-4.0912,-4.0912,-4.0912,-4.0912,-4.0912,-4.0912,-3.2537,-3.3517,-3.4414,-3.4731,0.0,0.0,0.0,0.0,0.0,0.0,0.0,0.0,0.0,0.0,0.0,0.0,0.0,0.0,0.0,0.0,0.0,0.0,0.0,0.0,0.0,0.0,0.0,0.0,0.0,0.0,0.0,0.0,0.0,-3.8707,-3.8707,-3.8707,-3.8707,-3.8707,-3.8707,-3.8707,-3.8707,-3.8707,-3.8707,-3.8707,-3.8707,-3.8707,-3.8707,-3.8707,-3.8707,-3.8707,-3.8707,-3.8707,-3.8707,-3.8707,-3.8707,-3.8707,-3.8611,-3.8435,-3.7999,-3.7756,-3.7578,-3.7189,-3.688,-3.6798,-3.7478,-3.7876,-3.8207,-3.8766,-3.9494,-3.9949,-3.9197,-3.9554,-4.0096,-4.0096,-4.0096,-4.0096,-4.0096,-4.0096,-4.0096,-4.0096,-4.0096,-4.0096,-4.0096,-4.0096,-4.0096,-4.0096,-4.0096,-4.0096,-4.0096,-4.0096,-4.0121,-4.0213,-4.0313,-4.0412,-4.0551,-4.0648,-4.0745,-4.0817,-4.0817,-4.084,-4.0912,-4.0912,-4.0912,-4.0912,-4.0912,-4.0912,-4.0912,-4.0912,-4.0912,-4.0912,-4.1163,-4.1283,-3.2109,-3.3227,-3.4452,0.0,0.0,0.0,0.0,0.0,0.0,0.0,0.0,0.0,0.0,0.0,0.0,0.0,0.0,0.0,0.0,0.0,0.0,0.0,0.0,0.0,0.0,0.0,0.0,0.0,0.0,0.0,0.0,0.0,0.0,0.0,-3.8707,-3.8707,-3.8707,-3.8707,-3.8707,-3.8707,-3.8707,-3.8707,-3.8707,-3.8707,-3.8707,-3.8707,-3.8707,-3.8707,-3.8707,-3.8707,-3.8707,-3.8707,-3.8707,-3.8707,-3.8707,-3.8707,-3.8627,-3.8467,-3.8203,-3.8017,-3.7861,-3.7596,-3.7404,-3.7406,-3.8096,-3.8608,-3.9066,-3.963,-4.0254,-4.0504,-3.9683,-3.9815,-4.0163,-4.0096,-4.0096,-4.0096,-4.0096,-4.0096,-4.0096,-4.0096,-4.0096,-4.0096,-4.0096,-4.0096,-4.0096,-4.0096,-4.0096,-4.0096,-4.0096,-4.0138,-4.0213,-4.0337,-4.0485,-4.0583,-4.0697,-4.0745,-4.0793,-4.0894,-4.0912,-4.0912,-4.0912,-4.0912,-4.0912,-4.0912,-4.0912,-4.0912,-4.0912,-4.1018,-4.1088,-4.1094,-4.1534,-4.1713,-3.276,-3.3751,0.0,0.0,0.0,0.0,0.0,0.0,0.0,0.0,0.0,0.0,0.0,0.0,0.0,0.0,0.0,0.0,0.0,0.0,0.0,0.0,0.0,0.0,0.0,0.0,0.0,0.0,0.0,0.0,0.0,0.0,0.0,0.0,-3.8707,-3.8707,-3.8707,-3.8707,-3.8707,-3.8707,-3.8707,-3.8707,-3.8707,-3.8707,-3.8707,-3.8707,-3.8707,-3.8707,-3.8707,-3.8707,-3.8707,-3.8707,-3.8707,-3.8707,-3.8707,-3.8707,-3.8451,-3.8101,-3.8101,-3.7826,-3.7505,-3.7505,-3.7776,-3.8251,-3.8985,-3.9434,-3.9847,-4.0497,-4.0697,-4.0673,-4.0534,-4.0387,-4.028,-4.0121,-4.0096,-4.0096,-4.0096,-4.0096,-4.0096,-4.0096,-4.0096,-4.0096,-4.0096,-4.0096,-4.0096,-4.0096,-4.0096,-4.0096,-4.0096,-4.0213,-4.0337,-4.0485,-4.0624,-4.0697,-4.0697,-4.0817,-4.0912,-4.0912,-4.0894,-4.0894,-4.0912,-4.0894,-4.0912,-4.0912,-4.0912,-4.0894,-4.0894,-4.1305,-4.1512,-4.1516,-4.199,-4.2216,-3.1403,0.0,0.0,0.0,0.0,0.0,0.0,0.0,0.0,0.0,0.0,0.0,0.0,0.0,0.0,0.0,0.0,0.0,0.0,0.0,0.0,0.0,0.0,0.0,0.0,0.0,0.0,0.0,0.0,0.0,0.0,0.0,0.0,0.0,-3.8707,-3.8707,-3.8707,-3.8707,-3.8707,-3.8707,-3.8707,-3.8707,-3.8707,-3.8707,-3.8707,-3.8707,-3.8707,-3.8707,-3.8707,-3.8707,-3.8707,-3.8707,-3.8707,-3.8707,-3.8707,-3.8707,-3.8627,-3.8515,-3.8515,-3.8433,-3.8285,-3.7999,-3.8169,-3.8557,-3.9051,-3.9434,-3.9871,-4.064,-4.084,-4.0817,-4.0673,-4.0534,-4.0412,-4.0263,-4.0163,-4.0096,-4.0096,-4.0096,-4.0096,-4.0096,-4.0096,-4.0096,-4.0096,-4.0096,-4.0096,-4.0096,-4.0096,-4.0121,-4.0213,-4.0453,-4.06,-4.0648,-4.0769,-4.084,-4.084,-4.0888,-4.0912,-4.0912,-4.1163,-4.1209,-4.0894,-4.1163,-4.1328,-4.1328,-4.1644,-4.1817,-4.1817,-4.1927,-4.199,-4.2011,-4.2478,-4.2692,-3.2964,0.0,0.0,0.0,0.0,0.0,0.0,0.0,0.0,0.0,0.0,0.0,0.0,0.0,0.0,0.0,0.0,0.0,0.0,0.0,0.0,0.0,0.0,0.0,0.0,0.0,0.0,0.0,0.0,0.0,0.0,0.0,0.0,0.0,-3.8707,-3.8707,-3.8707,-3.8707,-3.8707,-3.8707,-3.8707,-3.8707,-3.8707,-3.8707,-3.8707,-3.8707,-3.8707,-3.8707,-3.8707,-3.8707,-3.8707,-3.8707,-3.8707,-3.8707,-3.8707,-3.8707,-3.8707,-3.8707,-3.8707,-3.8707,-3.8676,-3.8417,-3.867,-3.9122,-3.9363,-3.9774,-4.0267,-4.0774,-4.0912,-4.0888,-4.0793,-4.0697,-4.0534,-4.0337,-4.0188,-4.0096,-4.0096,-4.0096,-4.0096,-4.0096,-4.0096,-4.0096,-4.0096,-4.0096,-4.0096,-4.0096,-4.0163,-4.0238,-4.0412,-4.06,-4.0721,-4.0769,-4.0864,-4.0912,-4.0912,-4.0912,-4.0912,-4.0912,-4.1283,-4.1401,-4.114,-4.1556,-4.1778,-4.1778,-4.2053,-4.2198,-4.2198,-4.2398,-4.2478,-4.2478,-4.292,-4.3124,0.0,0.0,0.0,0.0,0.0,0.0,0.0,0.0,0.0,0.0,0.0,0.0,0.0,0.0,0.0,0.0,0.0,0.0,0.0,0.0,0.0,0.0,0.0,0.0,0.0,0.0,0.0,0.0,0.0,0.0,0.0,0.0,0.0,-3.8707,-3.8707,-3.8707,-3.8707,-3.8707,-3.8707,0.0,-3.8707,-3.8707,-3.8707,-3.8707,-3.8707,-3.8707,-3.8707,-3.8707,-3.8707,-3.8707,-3.8707,-3.8707,-3.8707,-3.8707,-3.8707,-3.8707,-3.8707,-3.8707,-3.8707,-3.8707,-3.871,-3.8734,-3.9225,-3.98,-3.9832,-4.0332,-4.0912,-4.0912,-4.0912,-4.0912,-4.0912,-4.0793,-4.0624,-4.0387,-4.0238,-4.0121,-4.0113,-4.0113,-4.0138,-4.0138,-4.0138,-4.0138,-4.0138,-4.0121,-4.0138,-4.0138,-4.0238,-4.0429,-4.0673,-4.0697,-4.0769,-4.0888,-4.0918,-4.0942,-4.0894,-4.0965,-4.1012,-4.0965,-4.1396,-4.1626,-4.1626,-4.2032,-4.2259,-4.2259,-4.23,-4.232,-4.232,-4.275,-4.2957,-4.2957,-4.3322,-4.3496,0.0,0.0,0.0,0.0,0.0,0.0,0.0,0.0,0.0,0.0,0.0,0.0,0.0,0.0,0.0,0.0,0.0,0.0,0.0,0.0,0.0,0.0,0.0,0.0,0.0,0.0,0.0,0.0,0.0,0.0,0.0,0.0,0.0,-3.8707,-3.8707,-3.8707,-3.8707,-3.8707,-3.8707,0.0,-3.8707,-3.8707,-3.8707,-3.8707,-3.8707,-3.8707,-3.8707,-3.8707,-3.8707,-3.8707,-3.8707,-3.8707,-3.8707,-3.8707,-3.8707,-3.8707,-3.8707,-3.8707,-3.8707,-3.8707,-3.8753,-3.9062,-3.9464,-3.9868,-4.0185,-4.0568,-4.0912,-4.0912,-4.0912,-4.0912,-4.0912,-4.0793,-4.069,-4.0624,-4.051,-4.0362,-4.0163,-4.0188,-4.0263,-4.0263,-4.0263,-4.0263,-4.0263,-4.0337,-4.0395,-4.0395,-4.051,-4.0624,-4.0697,-4.0793,-4.0864,-4.0912,-4.1186,-4.1237,-4.0918,-4.1529,-4.1756,-4.1401,-4.2136,-4.2595,-4.2595,-4.2692,-4.275,-4.275,-4.305,-4.3232,-4.3232,-4.3322,-4.3375,-4.3375,-4.3444,-4.3532,0.0,0.0,0.0,0.0,0.0,0.0,0.0,0.0,0.0,0.0,0.0,0.0,0.0,0.0,0.0,0.0,0.0,0.0,0.0,0.0,0.0,0.0,0.0,0.0,0.0,0.0,0.0,0.0,0.0,0.0,0.0,-3.8707,-3.8707,-3.8707,-3.8707,-3.8707,-3.8707,-3.8707,-3.8707,-3.8707,-3.8707,-3.8707,-3.8707,-3.8707,-3.8707,-3.8707,-3.8707,-3.8707,-3.8707,-3.8707,-3.8707,-3.8707,-3.8707,-3.8707,-3.8707,-3.8707,-3.8707,-3.8707,-3.8707,-3.8946,-3.93,-3.9524,-3.995,-4.0406,-4.063,-4.0784,-4.0912,-4.0912,-4.0912,-4.0912,-4.0912,-4.0864,-4.0793,-4.0721,-4.0583,-4.0461,-4.032,-4.0362,-4.0387,-4.0387,-4.0387,-4.0387,-4.0387,-4.0461,-4.0534,-4.0583,-4.0648,-4.0721,-4.0793,-4.0864,-4.0965,-4.1163,-4.1378,-4.1512,-4.1529,-4.1927,-4.2095,-4.1842,-4.2516,-4.2901,-4.2901,-4.3069,-4.3196,-4.3196,-4.3392,-4.3515,-4.3515,-4.3515,-4.3515,-4.3515,-4.3531,-4.3565,0.0,0.0,0.0,0.0,0.0,0.0,0.0,0.0,0.0,0.0,0.0,0.0,0.0,0.0,0.0,0.0,0.0,0.0,0.0,0.0,0.0,0.0,0.0,0.0,0.0,0.0,0.0,0.0,0.0,0.0,-3.8689,-3.8707,-3.8707,-3.8707,-3.8707,-3.8707,-3.8707,-3.8707,-3.8707,-3.8707,-3.8707,-3.8707,-3.8707,-3.8707,-3.8707,-3.8707,-3.8707,-3.8707,-3.8707,-3.8707,-3.8707,-3.8707,-3.8707,-3.8707,-3.8707,-3.8707,-3.8707,-3.8726,-3.8854,-3.9331,-3.9937,-4.013,-4.0564,-4.0998,-4.108,-4.1003,-4.0912,-4.0912,-4.0912,-4.0912,-4.0912,-4.0912,-4.0864,-4.0769,-4.0631,-4.0558,-4.051,-4.0534,-4.0534,-4.0534,-4.0534,-4.0534,-4.0558,-4.0558,-4.0583,-4.0721,-4.0721,-4.0817,-4.0989,-4.0995,-4.1163,-4.1561,-4.1692,-4.1864,-4.2157,-4.234,-4.238,-4.2338,-4.275,-4.2995,-4.2995,-4.3322,-4.3515,-4.3515,-4.3515,-4.3515,-4.3515,-4.3515,-4.3515,-4.3513,-4.3565,-4.3615,0.0,0.0,0.0,0.0,0.0,0.0,0.0,0.0,0.0,0.0,0.0,0.0,0.0,0.0,0.0,0.0,0.0,0.0,0.0,0.0,0.0,0.0,0.0,0.0,0.0,0.0,0.0,0.0,0.0,0.0,-3.867,-3.8707,-3.8707,-3.8707,-3.8707,-3.8707,-3.8707,-3.8707,-3.8707,-3.8707,-3.8707,-3.8707,-3.8707,-3.8707,-3.8707,-3.8707,-3.8707,-3.8707,-3.8707,-3.8707,-3.8707,-3.8707,-3.8707,-3.8707,-3.8707,-3.8707,-3.8707,-3.8799,-3.9496,-3.9808,-4.0054,-4.105,-4.1191,-4.1045,-4.136,-4.1173,-4.0912,-4.0912,-4.0912,-4.0912,-4.0912,-4.0912,-4.0912,-4.0888,-4.0847,-4.0776,-4.0558,-4.0583,-4.0673,-4.0673,-4.0673,-4.0721,-4.084,-4.0745,-4.0721,-4.0847,-4.0871,-4.1012,-4.1356,-4.1423,-4.16,-4.2053,-4.2458,-4.2557,-4.2236,-4.2884,-4.3178,-4.2825,-4.3178,-4.341,-4.341,-4.3462,-4.3515,-4.3515,-4.3515,-4.3515,-4.3515,-4.3515,-4.3513,-4.3582,-4.3599,-4.3682,0.0,0.0,0.0,0.0,0.0,0.0,0.0,0.0,0.0,0.0,0.0,0.0,0.0,0.0,0.0,0.0,0.0,0.0,0.0,0.0,0.0,0.0,0.0,0.0,0.0,0.0,0.0,0.0,0.0,-3.786,-3.867,-3.8707,-3.8707,-3.8707,-3.8707,-3.8707,-3.8707,-3.8707,-3.8707,-3.8707,-3.8707,-3.8707,-3.8707,-3.8707,-3.8707,-3.8707,-3.8707,-3.8707,-3.8707,-3.8707,-3.8707,-3.8707,-3.8707,-3.8707,-3.8707,-3.8707,-3.9001,-3.9423,-3.9772,-4.0487,-4.1266,-4.1506,-4.162,-4.165,-4.1542,-4.1232,-4.0912,-4.0912,-4.0912,-4.0912,-4.0912,-4.0912,-4.0912,-4.0912,-4.0912,-4.0864,-4.0752,-4.0752,-4.0817,-4.0817,-4.0817,-4.084,-4.0888,-4.0864,-4.084,-4.0888,-4.1071,-4.1305,-4.149,-4.1735,-4.2074,-4.2537,-4.2787,-4.292,-4.2939,-4.3286,-4.3427,-4.325,-4.3392,-4.3515,-4.3515,-4.3515,-4.3515,-4.3515,-4.3515,-4.3515,-4.3515,-4.3549,-4.3565,-4.3599,-4.3718,-4.3816,0.0,0.0,0.0,0.0,0.0,0.0,0.0,0.0,0.0,0.0,0.0,0.0,0.0,0.0,0.0,0.0,0.0,0.0,0.0,0.0,0.0,0.0,0.0,0.0,0.0,0.0,0.0,0.0,0.0,-3.786,-3.867,-3.8707,-3.8707,-3.8707,-3.8707,-3.8707,-3.8707,-3.8707,-3.8707,-3.8707,-3.8707,-3.8707,-3.8707,-3.8707,-3.8707,-3.8707,-3.8707,-3.8707,-3.8707,-3.8707,-3.8707,-3.8707,-3.8707,-3.8707,-3.8726,-3.8927,-3.9386,-3.9955,-4.0359,-4.1295,-4.2238,-4.1868,-4.1956,-4.2095,-4.1512,-4.114,-4.0912,-4.0912,-4.0912,-4.0912,-4.0912,-4.0912,-4.0912,-4.0912,-4.0912,-4.0912,-4.0912,-4.0912,-4.0912,-4.0912,-4.0912,-4.0912,-4.0912,-4.0912,-4.0918,-4.1041,-4.1305,-4.1583,-4.1821,-4.2157,-4.2557,-4.2995,-4.305,-4.316,-4.3462,-4.3515,-4.3515,-4.3515,-4.3515,-4.3515,-4.3515,-4.3515,-4.3515,-4.3532,-4.3532,-4.3532,-4.3532,-4.3565,-4.3615,-4.3666,-4.3832,-4.3913,0.0,0.0,0.0,0.0,0.0,0.0,0.0,0.0,0.0,0.0,0.0,0.0,0.0,0.0,0.0,0.0,0.0,0.0,0.0,0.0,0.0,0.0,0.0,0.0,0.0,0.0,0.0,0.0,0.0,-3.786,-3.867,-3.8707,-3.8707,-3.8707,-3.8707,-3.8707,-3.8707,-3.8707,-3.8707,-3.8707,-3.8707,-3.8707,-3.8707,-3.8707,-3.8707,-3.8707,-3.8707,-3.8707,-3.8707,-3.8707,-3.8707,-3.8707,-3.8707,-3.8707,-3.8799,-3.9551,-3.9845,-4.012,-4.1644,-4.2231,-4.2295,-4.2212,-4.2183,-4.2032,-4.1186,-4.0935,-4.0912,-4.0912,-4.0912,-4.0912,-4.0912,-4.0912,-4.0912,-4.0912,-4.0912,-4.0912,-4.0912,-4.0912,-4.0912,-4.0912,-4.0912,-4.0912,-4.0912,-4.0912,-4.1018,-4.1401,-4.149,-4.1821,-4.2711,-4.2844,-4.3013,-4.3445,-4.348,-4.348,-4.3515,-4.3515,-4.3515,-4.3515,-4.3515,-4.3515,-4.3515,-4.3515,-4.3513,-4.3582,-4.3582,-4.3582,-4.3582,-4.3599,-4.3701,-4.3881,-4.3915,-4.3945,0.0,0.0,0.0,0.0,0.0,0.0,0.0,0.0,0.0,0.0,0.0,0.0,0.0,0.0,0.0,0.0,0.0,0.0,0.0,0.0,0.0,0.0,0.0,0.0,0.0,0.0,0.0,0.0,0.0,0.0,-3.867,-3.8707,-3.8707,-3.8707,-3.8707,-3.8707,-3.8707,-3.8707,-3.8707,-3.8707,-3.8707,-3.8707,-3.8707,-3.8707,-3.8707,-3.8707,-3.8707,-3.8707,-3.8707,-3.8707,-3.8707,-3.8707,-3.8707,-3.9019,-3.9515,-3.979,-4.0543,-4.1515,-4.2103,-4.248,-4.2632,-4.2309,-4.199,-4.1626,-4.1065,-4.0912,-4.0912,-4.0912,-4.0912,-4.0912,-4.0912,-4.0912,-4.0912,-4.0912,-4.0912,-4.0912,-4.0912,-4.0912,-4.0912,-4.0912,-4.0912,-4.0989,-4.1237,-4.1283,-4.1423,-4.1885,-4.2216,-4.2518,-4.2863,-4.3142,-4.3339,-4.3479,-4.3515,-4.3515,-4.3515,-4.3515,-4.3515,-4.3515,-4.3515,-4.3515,-4.3515,-4.3515,-4.3515,-4.3549,-4.3565,-4.3651,-4.3736,-4.3767,-4.3832,-4.3897,-4.3926,-4.3974,0.0,0.0,0.0,0.0,0.0,0.0,0.0,0.0,0.0,0.0,0.0,0.0,0.0,0.0,0.0,0.0,0.0,0.0,0.0,0.0,0.0,0.0,0.0,0.0,0.0,0.0,0.0,0.0,0.0,0.0,-3.8652,-3.8707,-3.8707,-3.8707,-3.8707,-3.8707,-3.8707,-3.8707,-3.8707,-3.8707,-3.8707,-3.8707,-3.8707,-3.8707,-3.8707,-3.8707,-3.8707,-3.8707,-3.8707,-3.8707,-3.8707,-3.8726,-3.9001,-3.9423,-3.9971,-4.0506,-4.1387,-4.2341,-4.2598,-4.2794,-4.2825,-4.2358,-4.1885,-4.1423,-4.1018,-4.0912,-4.0912,-4.0912,-4.0912,-4.0912,-4.0912,-4.0912,-4.0912,-4.0912,-4.0912,-4.0912,-4.0912,-4.0912,-4.0912,-4.0912,-4.0912,-4.1018,-4.1423,-4.1494,-4.1713,-4.2338,-4.2692,-4.2939,-4.3069,-4.3339,-4.3515,-4.3515,-4.3515,-4.3515,-4.3515,-4.3515,-4.3515,-4.3515,-4.3515,-4.3515,-4.3515,-4.3515,-4.3532,-4.36,-4.3634,-4.3734,-4.3867,-4.3899,-4.3913,-4.3945,-4.3974,-4.4005,0.0,0.0,0.0,0.0,0.0,0.0,0.0,0.0,0.0,0.0,0.0,0.0,0.0,0.0,0.0,0.0,0.0,0.0,0.0,0.0,0.0,0.0,0.0,0.0,0.0,0.0,0.0,0.0,0.0,-3.7055,-3.8615,-3.8707,-3.8707,-3.8707,-3.8707,-3.8707,-3.8707,-3.8707,-3.8707,-3.8707,-3.8707,-3.8707,-3.8707,-3.8707,-3.8707,-3.8707,-3.8707,-3.8707,-3.8707,-3.8707,-3.8707,-3.8781,-3.9551,-3.9882,-4.012,-4.168,-4.2286,-4.2451,-4.3222,-4.3232,-4.2806,-4.2358,-4.1864,-4.1401,-4.1018,-4.0912,-4.0912,-4.0912,-4.0912,-4.0912,-4.0912,-4.0912,-4.0912,-4.0912,-4.0912,-4.0912,-4.0912,-4.0912,-4.0912,-4.0912,-4.0912,-4.1041,-4.1445,-4.1516,-4.1864,-4.2769,-4.2919,-4.305,-4.3444,-4.3515,-4.3515,-4.3515,-4.3515,-4.3515,-4.3515,-4.3515,-4.3515,-4.3515,-4.3515,-4.3515,-4.3515,-4.3515,-4.3583,-4.3788,-4.3804,-4.3867,-4.4005,-4.3929,-4.3945,-4.4005,-4.4005,-4.4005,-3.3876,0.0,0.0,0.0,0.0,0.0,0.0,0.0,0.0,0.0,0.0,0.0,0.0,0.0,0.0,0.0,0.0,0.0,0.0,0.0,0.0,0.0,0.0,0.0,0.0,0.0,0.0,0.0,-3.7698,-3.823,-3.8689,-3.8707,-3.8707,-3.8707,-3.8707,-3.8707,-3.8707,-3.8707,-3.8707,-3.8707,-3.8707,-3.8707,-3.8707,-3.8707,-3.8707,-3.8707,-3.8707,-3.8707,-3.8707,-3.8707,-3.8707,-3.8726,-3.8946,-3.9753,-4.0836,-4.126,-4.2176,-4.3185,-4.3423,-4.3014,-4.2378,-4.2239,-4.1687,-4.1041,-4.0918,-4.0912,-4.0912,-4.0912,-4.0912,-4.0912,-4.0912,-4.0912,-4.0912,-4.0912,-4.0912,-4.0912,-4.0912,-4.0912,-4.0912,-4.0912,-4.114,-4.149,-4.1927,-4.2297,-4.2693,-4.325,-4.3339,-4.3375,-4.3497,-4.3515,-4.3515,-4.3515,-4.3515,-4.3515,-4.3515,-4.3515,-4.3515,-4.3515,-4.3515,-4.3515,-4.3515,-4.3515,-4.3549,-4.3651,-4.3736,-4.3835,-4.3929,-4.3961,-4.3974,-4.4005,-4.4005,-4.4005,0.0,0.0,0.0,0.0,0.0,0.0,0.0,0.0,0.0,0.0,0.0,0.0,0.0,0.0,0.0,0.0,0.0,0.0,0.0,0.0,0.0,0.0,0.0,0.0,0.0,0.0,0.0,-3.7474,-3.7933,-3.834,-3.8689,-3.8707,-3.8707,-3.8707,-3.8707,-3.8707,-3.8707,-3.8707,-3.8707,-3.8707,-3.8707,-3.8707,-3.8707,-3.8707,-3.8707,-3.8707,-3.8707,-3.8707,-3.8726,-3.9056,-3.9203,-3.9239,-3.957,-4.0471,-4.1644,-4.1992,-4.269,-4.348,-4.3304,-4.2789,-4.2157,-4.1969,-4.1463,-4.0912,-4.0912,-4.0912,-4.0912,-4.0912,-4.0912,-4.0912,-4.0912,-4.0912,-4.0912,-4.0912,-4.0912,-4.0912,-4.0912,-4.1018,-4.114,-4.114,-4.1333,-4.1713,-4.2378,-4.2711,-4.305,-4.3427,-4.3515,-4.3515,-4.3515,-4.3515,-4.3515,-4.3515,-4.3515,-4.3515,-4.3515,-4.3515,-4.3515,-4.3515,-4.3515,-4.3496,-4.3531,-4.3531,-4.3599,-4.3716,-4.3802,-4.3883,-4.3945,-4.3974,-4.4005,-4.4005,-4.4005,-4.4005,-3.0806,0.0,0.0,0.0,0.0,0.0,-3.757,-3.7156,0.0,0.0,0.0,0.0,0.0,0.0,0.0,0.0,0.0,0.0,0.0,0.0,0.0,0.0,0.0,0.0,0.0,-3.656,-3.6853,-3.7584,-3.7639,-3.7936,-3.867,-3.8707,-3.8707,-3.8707,-3.8707,-3.8707,-3.8707,-3.8707,-3.8707,-3.8707,-3.8707,-3.8707,-3.8707,-3.8707,-3.8707,-3.8707,-3.8707,-3.8762,-3.8891,-3.9606,-3.99,-3.9974,-4.0799,-4.1589,-4.2378,-4.3041,-4.3354,-4.3375,-4.2957,-4.2498,-4.2053,-4.1626,-4.1232,-4.0912,-4.0912,-4.0912,-4.0912,-4.0912,-4.0912,-4.0912,-4.0912,-4.0912,-4.0912,-4.0912,-4.0912,-4.0894,-4.0965,-4.1237,-4.1516,-4.1626,-4.1648,-4.1927,-4.2768,-4.2957,-4.3105,-4.3444,-4.3515,-4.3515,-4.3515,-4.3515,-4.3515,-4.3515,-4.3515,-4.3515,-4.3515,-4.3515,-4.3496,-4.3515,-4.3515,-4.3531,-4.3615,-4.3615,-4.3718,-4.3915,-4.3897,-4.3945,-4.4005,-4.4005,-4.4005,-4.4005,-4.4005,-4.4005,-3.4012,-3.4512,0.0,0.0,0.0,0.0,0.0,-3.4688,0.0,0.0,0.0,0.0,0.0,0.0,0.0,0.0,0.0,0.0,0.0,0.0,0.0,0.0,0.0,0.0,0.0,-3.823,-3.8303,-3.845,-3.8469,-3.8524,-3.8689,-3.8707,-3.8707,-3.8707,-3.8707,-3.8707,-3.8707,-3.8707,-3.8707,-3.8707,-3.8707,-3.8707,-3.8707,-3.8707,-3.8707,-3.8707,-3.8707,-3.9074,-3.968,-3.9827,-3.99,-3.9974,-4.0799,-4.1589,-4.2271,-4.2049,-4.2414,-4.2957,-4.2498,-4.2032,-4.1626,-4.1516,-4.1232,-4.0912,-4.0912,-4.0912,-4.0912,-4.0912,-4.0912,-4.0912,-4.0912,-4.0912,-4.0912,-4.0912,-4.0912,-4.0989,-4.1305,-4.1445,-4.1713,-4.2478,-4.2634,-4.2692,-4.2863,-4.3178,-4.341,-4.3497,-4.3515,-4.3515,-4.3515,-4.3515,-4.3515,-4.3515,-4.3515,-4.3515,-4.3515,-4.3515,-4.3513,-4.3565,-4.3582,-4.3634,-4.3771,-4.3753,-4.3802,-4.3915,-4.3942,-4.3989,-4.4005,-4.4005,-4.4005,-4.4005,-4.4005,-4.4005,-3.3971,-3.401,0.0,-3.4067,0.0,0.0,0.0,0.0,0.0,0.0,0.0,0.0,0.0,0.0,0.0,0.0,0.0,0.0,0.0,0.0,0.0,0.0,0.0,0.0,0.0,-3.8707,-3.8872,-3.9276,-3.8927,-3.8891,-3.9276,-3.8927,-3.8707,-3.8707,-3.8707,-3.8707,-3.8707,-3.8707,-3.8707,-3.8707,-3.8707,-3.8707,-3.8707,-3.8707,-3.8707,-3.8707,-3.8707,-3.8927,-3.935,-4.0175,-4.0506,-4.0579,-4.1387,-4.2194,-4.2875,-4.2629,-4.2813,-4.3105,-4.242,-4.2053,-4.1778,-4.1351,-4.1065,-4.0912,-4.0912,-4.0912,-4.0912,-4.0912,-4.0912,-4.0912,-4.0912,-4.0912,-4.0942,-4.114,-4.1209,-4.1328,-4.1756,-4.2032,-4.2338,-4.2806,-4.305,-4.3214,-4.3214,-4.3375,-4.3515,-4.3515,-4.3515,-4.3515,-4.3515,-4.3515,-4.3515,-4.3515,-4.3515,-4.3515,-4.3515,-4.3513,-4.3565,-4.3599,-4.3667,-4.3753,-4.3851,-4.3851,-4.3883,-4.3961,-4.3974,-4.4005,-4.4005,-4.4005,-4.3782,-4.3392,-4.3392,-4.3188,0.0,0.0,0.0,0.0,0.0,-3.3406,0.0,0.0,0.0,0.0,0.0,0.0,0.0,0.0,0.0,0.0,0.0,0.0,0.0,0.0,0.0,0.0,0.0,0.0,0.0,-3.8799,-3.8964,-3.9625,-3.8909,-3.8817,-3.9625,-3.9056,-3.8707,-3.8707,-3.8707,-3.8707,-3.8707,-3.8707,-3.8707,-3.8707,-3.8707,-3.8707,-3.8707,-3.8707,-3.8707,-3.8707,-3.8707,-3.8799,-3.9038,-4.0341,-4.0948,-4.1187,-4.2158,-4.2928,-4.3479,-4.341,-4.3339,-4.3142,-4.234,-4.2011,-4.1839,-4.1134,-4.0912,-4.0912,-4.0912,-4.0912,-4.0912,-4.0912,-4.0912,-4.0935,-4.1012,-4.1035,-4.1117,-4.1534,-4.1626,-4.1756,-4.2218,-4.2634,-4.292,-4.2995,-4.3286,-4.3515,-4.3515,-4.3515,-4.3515,-4.3515,-4.3515,-4.3515,-4.3515,-4.3515,-4.3515,-4.3515,-4.3515,-4.3515,-4.3532,-4.3565,-4.3615,-4.3667,-4.3769,-4.3851,-4.3913,-4.3913,-4.3926,-4.4005,-4.4005,-4.4005,-4.4005,-4.4005,-4.3596,-4.2797,-4.2839,-4.2441,0.0,0.0,0.0,0.0,-3.4458,0.0,0.0,0.0,0.0,0.0,0.0,0.0,0.0,0.0,0.0,0.0,0.0,0.0,0.0,0.0,0.0,0.0,0.0,0.0,0.0,0.0,-3.8744,-3.8836,-3.8098,-3.7988,-3.8799,-3.8762,-3.8707,-3.8707,-3.8707,-3.8707,-3.8707,-3.8707,-3.8707,-3.8707,-3.8707,-3.8707,-3.8707,-3.8707,-3.8707,-3.8707,-3.8707,-3.9093,-3.9772,-3.9955,-4.0469,-4.1242,-4.2763,-4.3423,-4.3463,-4.3087,-4.2693,-4.2279,-4.1756,-4.1351,-4.1035,-4.0918,-4.0912,-4.0912,-4.0912,-4.0912,-4.0912,-4.0912,-4.0912,-4.0989,-4.1351,-4.1423,-4.1556,-4.2011,-4.2115,-4.2239,-4.2711,-4.2863,-4.3013,-4.3357,-4.348,-4.3515,-4.3515,-4.3515,-4.3515,-4.3515,-4.3515,-4.3515,-4.3515,-4.3515,-4.3515,-4.3515,-4.3515,-4.3513,-4.3582,-4.3599,-4.3684,-4.3849,-4.3881,-4.3913,-4.3989,-4.3989,-4.3989,-4.4005,-4.4005,-4.4005,-4.4005,-4.4005,-4.3596,-4.2813,-4.3044,-4.2687,0.0,0.0,0.0,0.0,0.0,0.0,-3.196,0.0,-3.1859,0.0,0.0,0.0,0.0,0.0,0.0,0.0,0.0,0.0,0.0,0.0,0.0,0.0,0.0,0.0,0.0,0.0,0.0,0.0,0.0,-3.8542,-3.935,-3.9405,-3.9184,-3.8707,-3.8707,-3.8707,-3.8707,-3.8707,-3.8707,-3.8707,-3.8707,-3.8707,-3.8707,-3.8707,-3.8707,-3.8707,-3.8707,-3.8891,-3.9239,-3.9698,-4.0377,-4.1205,-4.2359,-4.28,-4.2838,-4.3139,-4.2976,-4.2537,-4.2074,-4.1622,-4.1209,-4.0989,-4.0912,-4.0912,-4.0912,-4.0912,-4.0942,-4.1186,-4.1237,-4.1351,-4.1799,-4.1906,-4.2011,-4.2498,-4.2614,-4.2731,-4.316,-4.325,-4.3304,-4.348,-4.3515,-4.3515,-4.3515,-4.3515,-4.3515,-4.3515,-4.3515,-4.3515,-4.3515,-4.3515,-4.3515,-4.3515,-4.3531,-4.3565,-4.3599,-4.3718,-4.3816,-4.3897,-4.3945,-4.3958,-4.4005,-4.4005,-4.4005,-4.4005,-4.4005,-4.4079,-4.4236,-4.4236,-4.3648,-4.2502,-4.2468,-4.1819,-3.5714,0.0,0.0,0.0,0.0,0.0,0.0,0.0,0.0,0.0,0.0,0.0,0.0,0.0,0.0,0.0,0.0,0.0,0.0,0.0,0.0,0.0,0.0,0.0,0.0,0.0,0.0,0.0,0.0,0.0,-3.9827,-3.99,-3.9735,-3.9368,-3.9148,-3.9129,-3.9368,-3.8927,-3.8927,-3.935,-3.8909,-3.8817,-3.9019,-3.8799,-3.8707,-3.8707,-3.8707,-3.8707,-3.8762,-3.9331,-4.0047,-4.0855,-4.1662,-4.2121,-4.2396,-4.3185,-4.325,-4.2844,-4.2358,-4.1821,-4.1283,-4.0995,-4.0965,-4.1065,-4.1065,-4.114,-4.1323,-4.1622,-4.1692,-4.1799,-4.2277,-4.2398,-4.2498,-4.2957,-4.305,-4.3142,-4.3427,-4.3515,-4.3515,-4.3515,-4.3515,-4.3515,-4.3515,-4.3515,-4.3515,-4.3515,-4.3515,-4.3515,-4.3515,-4.3515,-4.3515,-4.3532,-4.3565,-4.3615,-4.3666,-4.3816,-4.3897,-4.3929,-4.3974,-4.4005,-4.4005,-4.4005,-4.4033,-4.4106,-4.4106,-4.425,-4.4506,-4.4506,-4.3788,-4.2397,-4.2212,-4.1328,0.0,0.0,0.0,-3.3674,0.0,0.0,0.0,0.0,-3.1806,0.0,0.0,0.0,0.0,0.0,0.0,0.0,0.0,0.0,0.0,0.0,0.0,0.0,0.0,0.0,0.0,0.0,0.0,0.0,0.0,0.0,-3.9769,-3.99,-4.0249,-4.1003,-4.0267,-4.023,-4.1022,-3.9478,-3.9478,-4.1003,-3.9426,-3.9111,-3.9827,-3.9056,-3.8707,-3.8707,-3.8707,-3.8707,-3.8707,-3.8726,-3.9203,-4.001,-4.0836,-4.1625,-4.2396,-4.3185,-4.325,-4.2844,-4.2358,-4.1644,-4.0935,-4.0894,-4.1163,-4.1472,-4.1472,-4.1799,-4.2157,-4.2157,-4.2177,-4.2297,-4.2768,-4.2882,-4.2976,-4.3375,-4.3479,-4.3479,-4.3497,-4.3515,-4.3515,-4.3515,-4.3515,-4.3515,-4.3515,-4.3515,-4.3515,-4.3515,-4.3515,-4.3515,-4.3515,-4.3515,-4.3513,-4.3582,-4.3599,-4.3666,-4.3865,-4.3915,-4.3929,-4.3989,-4.4005,-4.4005,-4.4005,-4.4005,-4.4121,-4.4369,-4.4402,-4.4519,-4.4776,-4.4776,-4.406,-4.2677,-4.2677,-4.1771,0.0,0.0,-3.5902,-3.4166,0.0,0.0,0.0,0.0,0.0,0.0,0.0,0.0,0.0,0.0,0.0,0.0,0.0,0.0,0.0,0.0,0.0,0.0,0.0,0.0,0.0,0.0,0.0,0.0,0.0,0.0,0.0,-4.091,-4.1368,-4.1113,-4.0838,-4.082,-4.1095,-4.0563,-4.0563,-4.1095,-4.0545,-4.0157,-3.9882,-3.9625,-3.9203,-3.8707,-3.8707,-3.8707,-3.8744,-3.9276,-3.9974,-4.0781,-4.1589,-4.2396,-4.313,-4.3387,-4.325,-4.2844,-4.2358,-4.2008,-4.1753,-4.1753,-4.1842,-4.1969,-4.1969,-4.2074,-4.2259,-4.2595,-4.2653,-4.275,-4.3178,-4.3304,-4.3339,-4.348,-4.3515,-4.3515,-4.3515,-4.3515,-4.3515,-4.3515,-4.3515,-4.3515,-4.3515,-4.3515,-4.3515,-4.3515,-4.3549,-4.3565,-4.3565,-4.3634,-4.3703,-4.3736,-4.3767,-4.3832,-4.3881,-4.3945,-4.3974,-4.4005,-4.4005,-4.4005,-4.4005,-4.4181,-4.4303,-4.4402,-4.4013,-4.3942,-4.4195,-4.367,-4.2965,-4.2099,-4.2099,-4.1494,-3.5654,-3.5712,0.0,-3.4494,-3.3782,0.0,-3.2223,0.0,0.0,0.0,0.0,0.0,0.0,0.0,0.0,0.0,0.0,0.0,0.0,0.0,0.0,0.0,0.0,0.0,0.0,0.0,-3.7551,-3.7915,0.0,0.0,0.0,0.0,-4.2194,-4.1974,-4.168,-4.1645,-4.1956,-4.1389,-4.1389,-4.1956,-4.137,-4.082,-4.0322,-4.0029,-3.946,-3.8707,-3.8707,-3.8707,-3.8762,-3.957,-4.0377,-4.1168,-4.1992,-4.2782,-4.3515,-4.3515,-4.325,-4.2863,-4.2537,-4.2338,-4.2198,-4.2198,-4.2318,-4.2438,-4.2438,-4.2557,-4.2732,-4.3032,-4.3105,-4.316,-4.3427,-4.3515,-4.3515,-4.3515,-4.3515,-4.3515,-4.3515,-4.3515,-4.3515,-4.3515,-4.3515,-4.3515,-4.3515,-4.3513,-4.3549,-4.3549,-4.3565,-4.3634,-4.3667,-4.3754,-4.3804,-4.3818,-4.3883,-4.3913,-4.3929,-4.3974,-4.4005,-4.4005,-4.4094,-4.4151,-4.4151,-4.4402,-4.4435,-4.4222,-4.4135,-4.3928,-4.3599,-4.3369,-4.2763,-4.1788,-4.1788,-4.1335]},{"header":{"parameterUnit":"m.s-1","parameterCategory":1,"la1":30.6,"la2":29.2853,"lo1":-89.7004,"lo2":-87.6739,"dy":0.0162,"dx":0.0183,"nx":112,"ny":82,"refTime":"2024-11-22T18:00:00:Z","depth":0,"parameterNumber":3,"parameterNumberName":"V-component_of_WINDS"},"data":[0.0,0.0,0.0,0.0,0.0,0.0,0.0,0.0,0.0,0.0,0.0,0.0,0.0,0.0,0.0,0.0,0.0,0.0,0.0,0.0,0.0,0.0,0.0,0.0,0.0,0.0,0.0,0.0,0.0,0.0,0.0,0.0,0.0,0.0,0.0,0.0,0.0,0.0,0.0,0.0,0.0,0.0,0.0,0.0,0.0,0.0,0.0,0.0,0.0,0.0,0.0,0.0,0.0,0.0,0.0,0.0,0.0,0.0,0.0,0.0,0.0,0.0,0.0,0.0,0.0,0.0,0.0,0.0,0.0,0.0,0.0,0.0,0.0,0.0,0.0,0.0,0.0,0.0,0.0,0.0,0.0,0.0,0.0,0.0,0.0,0.0,0.0,0.0,0.0,0.0,0.0,-1.2321,-1.1348,-1.1125,-1.2164,-1.2858,-1.3587,-1.4294,0.0,0.0,0.0,0.0,0.0,0.0,0.0,0.0,0.0,0.0,0.0,0.0,0.0,0.0,0.0,0.0,0.0,0.0,0.0,0.0,0.0,0.0,0.0,0.0,0.0,0.0,0.0,0.0,0.0,0.0,0.0,0.0,0.0,0.0,0.0,0.0,0.0,0.0,0.0,0.0,0.0,0.0,0.0,0.0,0.0,0.0,0.0,0.0,0.0,0.0,0.0,0.0,0.0,0.0,0.0,0.0,0.0,0.0,0.0,0.0,0.0,0.0,0.0,0.0,0.0,0.0,0.0,0.0,0.0,0.0,0.0,0.0,0.0,0.0,0.0,0.0,0.0,0.0,0.0,0.0,0.0,0.0,0.0,0.0,0.0,0.0,0.0,0.0,0.0,0.0,0.0,0.0,0.0,0.0,0.0,0.0,0.0,0.0,0.0,0.0,0.0,0.0,0.0,0.0,-1.1989,-1.1062,-1.0815,-1.1185,-1.2339,-1.2853,-1.3551,-1.4484,0.0,0.0,0.0,0.0,0.0,0.0,0.0,0.0,0.0,0.0,0.0,0.0,0.0,0.0,0.0,0.0,0.0,0.0,0.0,0.0,0.0,0.0,0.0,0.0,0.0,0.0,0.0,0.0,0.0,0.0,0.0,0.0,0.0,0.0,0.0,0.0,0.0,0.0,0.0,0.0,0.0,0.0,0.0,0.0,0.0,0.0,0.0,0.0,0.0,0.0,0.0,0.0,0.0,0.0,0.0,0.0,0.0,0.0,0.0,0.0,0.0,0.0,0.0,0.0,0.0,0.0,0.0,0.0,0.0,0.0,0.0,0.0,0.0,0.0,0.0,0.0,0.0,0.0,0.0,0.0,0.0,0.0,0.0,0.0,0.0,0.0,0.0,0.0,0.0,0.0,0.0,0.0,0.0,0.0,0.0,0.0,0.0,0.0,0.0,0.0,0.0,0.0,0.0,-1.233,-1.1467,-1.0573,-1.0472,-1.1013,-1.2329,-1.2606,-1.3295,-1.4693,-1.4795,0.0,0.0,0.0,0.0,0.0,0.0,0.0,0.0,0.0,0.0,0.0,0.0,0.0,0.0,0.0,0.0,0.0,0.0,0.0,0.0,0.0,0.0,0.0,0.0,0.0,0.0,0.0,0.0,0.0,0.0,0.0,0.0,0.0,0.0,0.0,0.0,0.0,0.0,0.0,0.0,0.0,0.0,0.0,0.0,0.0,0.0,0.0,0.0,0.0,0.0,0.0,0.0,0.0,0.0,0.0,0.0,0.0,0.0,0.0,0.0,0.0,0.0,0.0,0.0,0.0,0.0,0.0,0.0,0.0,0.0,0.0,0.0,0.0,0.0,0.0,0.0,0.0,0.0,0.0,0.0,0.0,0.0,0.0,0.0,0.0,0.0,0.0,0.0,0.0,0.0,0.0,0.0,0.0,0.0,0.0,0.0,0.0,0.0,0.0,0.0,0.0,0.0,-1.1621,-1.1059,-1.0387,-1.0292,-1.0836,-1.2166,-1.2225,-1.2885,-1.4504,-1.4195,0.0,0.0,0.0,0.0,0.0,0.0,0.0,0.0,0.0,0.0,0.0,0.0,0.0,0.0,0.0,0.0,0.0,0.0,0.0,0.0,0.0,0.0,0.0,0.0,0.0,0.0,0.0,0.0,0.0,0.0,0.0,0.0,0.0,0.0,0.0,0.0,0.0,0.0,0.0,0.0,0.0,0.0,0.0,0.0,0.0,0.0,0.0,0.0,0.0,0.0,0.0,0.0,0.0,0.0,0.0,0.0,0.0,0.0,0.0,0.0,0.0,0.0,0.0,0.0,0.0,0.0,0.0,0.0,0.0,0.0,0.0,0.0,0.0,0.0,0.0,0.0,0.0,0.0,0.0,0.0,0.0,0.0,0.0,0.0,0.0,0.0,0.0,0.0,0.0,0.0,0.0,0.0,0.0,0.0,0.0,0.0,0.0,0.0,0.0,0.0,0.0,0.0,-1.1818,-1.0912,-1.0352,-1.0292,-1.0718,-1.176,-1.1677,-1.218,-1.3591,-1.3216,0.0,0.0,0.0,0.0,0.0,0.0,0.0,0.0,0.0,0.0,0.0,0.0,0.0,0.0,0.0,0.0,0.0,0.0,0.0,0.0,0.0,0.0,0.0,0.0,0.0,0.0,0.0,0.0,0.0,0.0,0.0,0.0,0.0,0.0,0.0,0.0,0.0,0.0,0.0,0.0,0.0,0.0,0.0,0.0,0.0,0.0,0.0,0.0,0.0,0.0,0.0,0.0,0.0,0.0,0.0,0.0,0.0,0.0,0.0,0.0,0.0,0.0,0.0,0.0,0.0,0.0,0.0,0.0,0.0,0.0,0.0,0.0,0.0,0.0,0.0,0.0,0.0,0.0,0.0,0.0,0.0,0.0,0.0,0.0,0.0,0.0,0.0,0.0,0.0,0.0,0.0,0.0,0.0,0.0,0.0,0.0,0.0,0.0,0.0,0.0,0.0,0.0,-1.2248,-1.1424,0.0,-1.1052,-1.1477,-1.1887,-1.2228,-1.2783,-1.3539,0.0,0.0,0.0,0.0,0.0,0.0,0.0,0.0,0.0,0.0,0.0,0.0,0.0,0.0,0.0,0.0,0.0,0.0,0.0,0.0,0.0,0.0,0.0,0.0,0.0,0.0,0.0,0.0,0.0,0.0,0.0,0.0,0.0,0.0,0.0,0.0,0.0,0.0,0.0,0.0,0.0,0.0,0.0,0.0,0.0,0.0,0.0,0.0,0.0,0.0,0.0,0.0,0.0,0.0,0.0,0.0,0.0,0.0,0.0,0.0,0.0,0.0,0.0,0.0,0.0,0.0,0.0,0.0,0.0,0.0,0.0,0.0,0.0,0.0,0.0,0.0,0.0,0.0,0.0,0.0,0.0,0.0,0.0,0.0,0.0,0.0,0.0,0.0,0.0,0.0,0.0,0.0,0.0,0.0,0.0,0.0,0.0,0.0,0.0,0.0,0.0,0.0,-1.3451,-1.2743,-1.1998,0.0,-1.1628,-1.2042,-1.2382,-1.2651,-1.3055,-1.3654,0.0,0.0,0.0,0.0,0.0,0.0,0.0,0.0,0.0,0.0,0.0,0.0,0.0,0.0,0.0,0.0,0.0,0.0,0.0,0.0,0.0,0.0,0.0,0.0,0.0,0.0,0.0,0.0,0.0,0.0,0.0,0.0,0.0,0.0,0.0,0.0,0.0,0.0,0.0,0.0,0.0,0.0,0.0,0.0,0.0,0.0,0.0,0.0,0.0,0.0,0.0,0.0,0.0,0.0,0.0,0.0,0.0,0.0,0.0,0.0,0.0,0.0,0.0,0.0,0.0,0.0,0.0,0.0,0.0,0.0,0.0,0.0,0.0,0.0,0.0,0.0,0.0,0.0,0.0,0.0,0.0,0.0,0.0,0.0,0.0,0.0,0.0,0.0,0.0,0.0,0.0,0.0,0.0,0.0,0.0,0.0,0.0,0.0,0.0,0.0,0.0,0.0,-1.3816,-1.325,-1.267,-1.1998,-1.1935,-1.2307,-1.3236,-1.2759,-1.2833,0.0,0.0,0.0,0.0,0.0,0.0,0.0,0.0,0.0,0.0,0.0,0.0,0.0,0.0,0.0,0.0,0.0,0.0,0.0,0.0,0.0,0.0,0.0,0.0,0.0,0.0,0.0,0.0,0.0,0.0,0.0,0.0,0.0,0.0,0.0,0.0,0.0,0.0,0.0,0.0,0.0,0.0,0.0,0.0,0.0,0.0,0.0,0.0,0.0,0.0,0.0,0.0,0.0,0.0,0.0,0.0,0.0,0.0,0.0,0.0,0.0,0.0,0.0,0.0,0.0,0.0,0.0,0.0,0.0,0.0,0.0,0.0,0.0,0.0,0.0,0.0,0.0,0.0,0.0,0.0,0.0,0.0,0.0,0.0,0.0,0.0,0.0,0.0,0.0,0.0,0.0,0.0,0.0,0.0,0.0,0.0,0.0,0.0,0.0,0.0,0.0,0.0,0.0,-1.5165,-1.4538,-1.3846,-1.3178,-1.3535,-1.3704,-1.3449,-1.3716,-1.3893,-1.3901,0.0,0.0,0.0,0.0,0.0,0.0,0.0,0.0,0.0,0.0,0.0,0.0,0.0,0.0,0.0,0.0,0.0,0.0,0.0,0.0,0.0,0.0,0.0,0.0,0.0,0.0,0.0,0.0,0.0,0.0,0.0,0.0,0.0,0.0,0.0,0.0,0.0,0.0,0.0,0.0,0.0,0.0,0.0,0.0,0.0,0.0,0.0,0.0,0.0,0.0,0.0,0.0,0.0,0.0,0.0,0.0,0.0,0.0,0.0,0.0,0.0,0.0,0.0,0.0,0.0,0.0,0.0,0.0,0.0,0.0,0.0,0.0,0.0,0.0,0.0,0.0,0.0,0.0,0.0,0.0,0.0,0.0,0.0,0.0,0.0,0.0,0.0,0.0,0.0,0.0,0.0,0.0,0.0,0.0,0.0,0.0,0.0,0.0,0.0,0.0,0.0,0.0,-1.5566,-1.5273,-1.4802,-1.4089,-1.4362,-1.442,-1.3951,-1.4258,-1.4405,-1.4148,0.0,0.0,0.0,0.0,0.0,0.0,0.0,0.0,0.0,0.0,0.0,0.0,0.0,0.0,0.0,0.0,0.0,0.0,0.0,0.0,0.0,0.0,0.0,0.0,0.0,0.0,0.0,0.0,0.0,0.0,0.0,0.0,0.0,0.0,0.0,0.0,0.0,0.0,0.0,0.0,0.0,0.0,0.0,0.0,0.0,0.0,0.0,0.0,0.0,0.0,0.0,0.0,0.0,0.0,0.0,0.0,0.0,0.0,0.0,0.0,0.0,0.0,0.0,0.0,0.0,0.0,0.0,0.0,0.0,0.0,0.0,0.0,0.0,0.0,0.0,0.0,0.0,0.0,0.0,0.0,0.0,0.0,0.0,0.0,0.0,0.0,0.0,0.0,0.0,0.0,0.0,0.0,0.0,0.0,0.0,0.0,0.0,0.0,0.0,0.0,0.0,0.0,-1.5384,-1.5661,-1.5575,-1.4775,-1.4689,-1.4652,-1.4519,-1.4515,-1.4515,-1.4515,0.0,0.0,0.0,0.0,0.0,0.0,0.0,0.0,0.0,0.0,0.0,0.0,0.0,0.0,0.0,0.0,0.0,0.0,0.0,0.0,0.0,0.0,0.0,0.0,0.0,0.0,0.0,0.0,0.0,0.0,0.0,0.0,0.0,0.0,0.0,0.0,0.0,0.0,0.0,0.0,0.0,0.0,0.0,0.0,0.0,0.0,0.0,0.0,0.0,0.0,0.0,0.0,0.0,0.0,0.0,0.0,0.0,0.0,0.0,0.0,-1.3887,0.0,0.0,0.0,0.0,0.0,0.0,0.0,0.0,0.0,0.0,0.0,0.0,0.0,0.0,0.0,0.0,0.0,0.0,0.0,0.0,0.0,0.0,0.0,0.0,0.0,0.0,0.0,0.0,0.0,0.0,0.0,0.0,0.0,0.0,0.0,0.0,0.0,0.0,0.0,0.0,0.0,-1.6519,-1.6602,-1.6349,-1.5544,-1.5454,-1.5201,-1.4549,-1.4515,-1.4515,-1.4515,-1.3745,0.0,0.0,0.0,0.0,0.0,0.0,0.0,0.0,0.0,0.0,0.0,0.0,0.0,0.0,0.0,0.0,0.0,0.0,0.0,0.0,0.0,0.0,0.0,0.0,0.0,0.0,0.0,0.0,0.0,0.0,0.0,0.0,0.0,0.0,0.0,0.0,0.0,0.0,0.0,0.0,0.0,0.0,0.0,0.0,0.0,0.0,0.0,0.0,0.0,0.0,0.0,0.0,0.0,0.0,0.0,0.0,0.0,0.0,0.0,0.0,-1.4295,0.0,0.0,0.0,0.0,0.0,0.0,0.0,0.0,0.0,0.0,0.0,0.0,0.0,0.0,0.0,0.0,0.0,0.0,0.0,0.0,0.0,0.0,0.0,0.0,0.0,0.0,0.0,0.0,0.0,0.0,0.0,0.0,0.0,0.0,0.0,0.0,0.0,0.0,0.0,0.0,-1.7138,-1.7193,-1.6954,-1.634,-1.5918,-1.545,-1.4845,-1.4616,-1.4515,-1.4515,-1.3928,0.0,0.0,0.0,0.0,0.0,0.0,0.0,0.0,0.0,0.0,0.0,0.0,0.0,0.0,0.0,0.0,0.0,0.0,0.0,0.0,0.0,0.0,0.0,0.0,0.0,0.0,0.0,0.0,0.0,0.0,0.0,0.0,0.0,0.0,0.0,0.0,0.0,0.0,0.0,0.0,0.0,0.0,0.0,0.0,0.0,0.0,0.0,0.0,0.0,0.0,0.0,0.0,0.0,-1.4356,-1.4485,-1.4696,-1.4736,-1.4818,-1.4988,-1.4818,-1.4818,-1.4966,0.0,0.0,0.0,0.0,0.0,0.0,0.0,0.0,0.0,0.0,0.0,0.0,0.0,0.0,0.0,0.0,0.0,0.0,0.0,0.0,0.0,0.0,0.0,0.0,0.0,-1.9738,-1.9819,0.0,0.0,0.0,0.0,0.0,0.0,0.0,0.0,0.0,0.0,0.0,0.0,-1.7449,-1.7495,-1.7321,-1.6853,-1.6138,-1.5533,-1.5129,-1.4735,-1.4515,-1.4515,-1.4112,-1.3736,0.0,0.0,0.0,0.0,0.0,0.0,0.0,0.0,0.0,0.0,0.0,0.0,0.0,0.0,0.0,0.0,0.0,0.0,0.0,0.0,0.0,0.0,0.0,0.0,0.0,0.0,0.0,0.0,0.0,0.0,0.0,0.0,-1.4088,-1.4088,0.0,0.0,0.0,0.0,0.0,0.0,0.0,0.0,0.0,0.0,0.0,0.0,0.0,-1.3748,-1.401,-1.401,-1.4149,-1.4378,-1.4546,-1.4768,-1.5025,-1.5191,-1.5323,-1.5323,-1.5323,0.0,-1.5301,-1.4973,0.0,0.0,0.0,0.0,0.0,0.0,0.0,0.0,0.0,0.0,0.0,0.0,0.0,0.0,0.0,0.0,0.0,0.0,0.0,0.0,0.0,0.0,-2.0361,-2.0419,-2.0323,-2.0246,0.0,-1.9363,-1.8513,-1.8086,-1.7392,0.0,0.0,0.0,0.0,0.0,0.0,0.0,-1.7486,-1.7495,-1.7211,-1.6477,-1.5973,-1.5533,-1.5129,-1.4735,-1.4515,-1.4515,-1.4112,-1.3892,-1.3809,-1.3102,0.0,0.0,0.0,0.0,0.0,0.0,0.0,0.0,0.0,0.0,0.0,0.0,0.0,0.0,0.0,0.0,0.0,0.0,0.0,0.0,0.0,0.0,0.0,0.0,0.0,0.0,0.0,0.0,0.0,-1.4088,-1.4088,-1.4088,-1.4088,-1.4088,0.0,0.0,0.0,0.0,0.0,0.0,0.0,0.0,0.0,-1.4086,-1.4302,-1.4572,-1.5012,-1.4838,-1.5012,-1.5511,-1.5475,-1.5476,-1.5532,-1.5659,-1.5564,-1.5389,-1.5389,-1.5389,-1.536,-1.5039,-1.5648,-1.6828,0.0,0.0,0.0,0.0,-1.9639,-1.9678,-1.9959,-2.0048,0.0,-1.9443,0.0,0.0,0.0,0.0,0.0,0.0,0.0,0.0,0.0,0.0,0.0,-2.0546,-2.0527,-2.0518,-2.077,-2.0178,-1.9383,0.0,-1.8331,-1.786,-1.7092,0.0,0.0,0.0,0.0,0.0,-1.7844,-1.7642,-1.7275,-1.6707,-1.6074,-1.5533,-1.5129,-1.4735,-1.4515,-1.4515,-1.4341,-1.4231,-1.4231,-1.369,-1.3295,0.0,0.0,0.0,0.0,0.0,0.0,0.0,0.0,0.0,0.0,0.0,0.0,0.0,0.0,0.0,0.0,0.0,0.0,0.0,0.0,0.0,0.0,0.0,0.0,0.0,0.0,0.0,0.0,-1.3955,-1.3913,-1.344,-1.3828,-1.4004,0.0,0.0,0.0,0.0,0.0,0.0,-1.4295,-1.4309,-1.4409,-1.4629,-1.485,-1.5187,-1.5538,-1.5359,-1.5627,-1.6242,-1.6064,-1.5994,-1.603,-1.603,-1.5855,-1.5513,-1.5513,-1.5462,-1.5367,-1.5126,-1.5779,-1.6898,-1.7084,-1.793,-1.907,-1.981,-2.0078,-2.0127,-2.0488,-2.0605,-2.0498,-1.9862,0.0,-1.9795,-1.9124,0.0,0.0,0.0,0.0,-1.9687,-2.0,-2.0078,-2.0166,-2.0527,-2.0605,-2.0693,-2.0986,-2.0683,-2.0226,0.0,-1.9255,-1.8796,-1.822,0.0,0.0,0.0,0.0,-1.8091,-1.8091,-1.7761,-1.7312,-1.6807,-1.612,-1.5533,-1.5129,-1.4735,-1.4515,-1.4515,-1.4607,-1.4616,-1.4485,-1.4304,-1.4122,-1.3882,0.0,0.0,0.0,0.0,0.0,0.0,0.0,0.0,0.0,0.0,0.0,0.0,0.0,0.0,0.0,0.0,0.0,0.0,0.0,0.0,0.0,0.0,0.0,0.0,0.0,0.0,0.0,0.0,0.0,-1.1671,-1.3003,0.0,0.0,0.0,0.0,-1.4476,-1.4439,-1.4603,-1.4948,-1.4961,-1.4975,-1.4988,-1.5001,-1.5008,-1.5008,-1.5218,-1.5435,-1.5754,-1.5938,-1.6146,-1.6389,-1.6389,-1.6177,-1.5891,-1.5891,-1.5673,-1.5389,-1.5374,-1.5401,-1.5643,-1.7309,-1.7977,-1.8266,-1.9963,-2.0566,-2.0576,-2.0595,-2.0605,-2.0595,-2.0556,-2.0234,-1.9902,-1.9863,-1.9863,0.0,0.0,-2.0166,-2.0546,-2.0566,-2.0566,-2.0576,-2.0595,-2.0605,-2.0615,-2.0635,-2.0615,-2.0683,0.0,-1.9963,-1.9167,-1.9677,0.0,-1.8329,-1.91,-1.8586,-1.8091,-1.8091,-1.7761,-1.7202,-1.6398,-1.5955,-1.5533,-1.5129,-1.4735,-1.4515,-1.4515,-1.4864,-1.49,-1.4533,-1.4854,-1.468,-1.3901,-1.4258,0.0,0.0,0.0,0.0,0.0,0.0,0.0,0.0,0.0,0.0,0.0,0.0,0.0,0.0,0.0,0.0,0.0,0.0,0.0,0.0,0.0,0.0,0.0,0.0,0.0,0.0,0.0,0.0,-1.1586,-1.222,0.0,-1.2227,-1.25,-1.2981,-1.3741,-1.3792,-1.4238,-1.5178,-1.5244,-1.5331,-1.5518,-1.5664,-1.585,-1.6028,-1.6114,-1.6345,-1.6713,-1.6474,-1.6355,-1.6411,-1.6411,-1.6206,-1.5913,-1.5913,-1.5848,-1.5766,-1.6073,-1.6591,-1.7115,-1.7755,-1.8678,-1.9766,-2.0362,-2.0605,-2.0605,-2.0605,-2.0605,-2.0605,-2.0605,-2.0498,-2.0332,-2.0332,-2.0332,-2.0332,-2.0332,-2.0488,-2.0605,-2.0605,-2.0605,-2.0605,-2.0605,-2.0605,-2.0683,-2.0937,-2.0771,-2.0742,-2.1288,-2.0396,-1.949,-1.9185,-1.8999,-1.8889,-1.8916,-1.8467,-1.8091,-1.8091,-1.7532,-1.6908,-1.6343,-1.5936,-1.5533,-1.5129,-1.4735,-1.4515,-1.4515,-1.4882,-1.5038,-1.49,-1.5029,-1.4964,-1.4671,-1.4641,-1.4135,0.0,0.0,0.0,0.0,0.0,0.0,0.0,0.0,0.0,0.0,0.0,0.0,0.0,0.0,0.0,0.0,0.0,0.0,0.0,0.0,0.0,0.0,0.0,0.0,0.0,0.0,-1.1387,-1.0835,-1.1435,-1.1757,-1.1436,-1.1711,-1.2197,-1.2963,-1.3336,-1.3961,-1.4965,-1.5358,-1.5631,-1.5771,-1.5981,-1.617,-1.6447,-1.6437,-1.6614,-1.7033,-1.6668,-1.6445,-1.6411,-1.6411,-1.6206,-1.5913,-1.5913,-1.5855,-1.5773,-1.643,-1.722,-1.8037,-1.8318,-1.9125,-2.0216,-2.0489,-2.0605,-2.0605,-2.0605,-2.0605,-2.0605,-2.0605,-2.0605,-2.0605,-2.0605,-2.0605,-2.0605,-2.0605,-2.0605,-2.0605,-2.0605,-2.0605,-2.0605,-2.0605,-2.0605,-2.0683,-2.0947,-2.0781,-2.0664,-2.0914,-2.041,-1.9784,-1.9478,-1.935,-1.9265,-1.9097,-1.8521,-1.8091,-1.8091,-1.7413,-1.6762,-1.6325,-1.6065,-1.5689,-1.5148,-1.4864,-1.4708,-1.4708,-1.4955,-1.5102,-1.5102,-1.5133,-1.5099,-1.4983,-1.4865,-1.4578,-1.4128,0.0,0.0,0.0,0.0,0.0,0.0,0.0,0.0,0.0,0.0,0.0,0.0,0.0,0.0,0.0,0.0,0.0,0.0,0.0,0.0,0.0,0.0,0.0,-1.0041,-1.0969,-1.0925,-0.9317,-1.0718,-1.1462,-1.0542,-1.1277,-1.196,-1.223,-1.3181,-1.3908,-1.4286,-1.5207,-1.5784,-1.5784,-1.5818,-1.5913,-1.6211,-1.6128,-1.625,-1.6485,-1.6424,-1.6397,-1.6397,-1.6397,-1.6199,-1.5913,-1.5913,-1.5738,-1.548,-1.6386,-1.7229,-1.8078,-1.8975,-1.9301,-1.946,-2.0294,-2.0605,-2.0605,-2.0605,-2.0605,-2.0605,-2.0605,-2.0605,-2.0605,-2.0605,-2.0605,-2.0605,-2.0605,-2.0605,-2.0605,-2.0605,-2.0605,-2.0605,-2.0605,-2.0605,-2.0605,-2.0605,-2.0605,-2.045,-2.002,-1.9893,-2.0059,-2.0661,-1.9937,-1.9439,-1.9793,-1.885,0.0,-1.8072,-1.7403,-1.6762,-1.6343,-1.6321,-1.5968,-1.5203,-1.5129,-1.5111,-1.5102,-1.5111,-1.5129,-1.5139,-1.5263,-1.516,-1.4762,-1.4959,-1.5306,-1.58,0.0,0.0,0.0,0.0,0.0,0.0,0.0,0.0,0.0,0.0,0.0,0.0,0.0,0.0,0.0,0.0,0.0,0.0,0.0,0.0,0.0,0.0,-0.9078,-1.006,-1.0094,-0.9832,-0.937,-0.9878,-1.0153,-0.9867,-1.0056,-1.0603,-1.1424,-1.1758,-1.2609,-1.4196,-1.4586,-1.5064,-1.5784,-1.5945,-1.6061,-1.6114,-1.6261,-1.6365,-1.6417,-1.6148,-1.6038,-1.6038,-1.6038,-1.5994,-1.5913,-1.5913,-1.5862,-1.5845,-1.7138,-1.7796,-1.8078,-1.8975,-1.9696,-2.0284,-2.0527,-2.0605,-2.0605,-2.0605,-2.0605,-2.0605,-2.0605,-2.0605,-2.0605,-2.0605,-2.0605,-2.0605,-2.0605,-2.0605,-2.0605,-2.0605,-2.0605,-2.0605,-2.0605,-2.0605,-2.0605,-2.0605,-2.0605,-2.0566,-2.0411,-1.9898,-1.9512,-1.966,-1.9488,-1.9246,-1.9072,-1.8484,0.0,-1.7706,-1.722,-1.6862,-1.6762,-1.6453,-1.6196,-1.6001,-1.5698,-1.5404,-1.512,-1.5368,-1.5661,-1.5973,-1.6146,-1.6168,-1.6004,-1.6249,-1.6258,0.0,0.0,0.0,0.0,0.0,0.0,0.0,0.0,0.0,0.0,0.0,0.0,0.0,0.0,0.0,0.0,0.0,0.0,0.0,0.0,0.0,0.0,-0.8836,-0.9225,-0.9776,-0.9596,-0.9433,-0.9458,-0.9563,-0.9579,-0.9579,-0.9579,-0.9871,-1.0498,-1.093,-1.1901,-1.3559,-1.4052,-1.4721,-1.5604,-1.5756,-1.5835,-1.5931,-1.5933,-1.5995,-1.6177,-1.5862,-1.5673,-1.5673,-1.5673,-1.5593,0.0,-1.5462,-1.5431,-1.5415,-1.6916,-1.7535,0.0,0.0,0.0,0.0,0.0,-2.0605,-2.0605,-2.0605,-2.0605,-2.0605,-2.0605,-2.0605,-2.0605,-2.0605,-2.0605,-2.0605,-2.0605,-2.0605,-2.0605,-2.0605,-2.0605,-2.0605,-2.0605,-2.0605,-2.0556,-2.0332,-2.0293,-2.0234,-1.9992,-1.9533,0.0,-1.8953,-1.8845,-1.8733,-1.8495,-1.8119,-1.777,-1.7523,-1.7156,-1.6908,-1.6908,-1.6707,-1.6462,-1.6297,-1.6092,0.0,0.0,0.0,-1.5946,-1.6537,-1.6646,0.0,0.0,0.0,0.0,0.0,0.0,0.0,0.0,-1.7073,-1.7568,0.0,0.0,0.0,0.0,0.0,0.0,0.0,0.0,0.0,0.0,0.0,0.0,0.0,0.0,0.0,0.0,-0.9082,-0.9408,-0.9429,-0.9433,-0.9445,-0.9608,-0.9579,-0.9579,-0.9579,-0.9579,-0.9579,-0.9579,-1.0498,-1.1502,-1.2598,0.0,0.0,0.0,0.0,-1.5443,-1.5623,-1.5301,-1.5369,-1.5812,-1.5528,-1.5389,-1.5389,-1.5352,-1.5177,-1.49,-1.4863,-1.4728,-1.4621,-1.6239,-1.6997,-1.7397,-1.9621,-2.0537,-2.0537,-2.0586,-2.0605,-2.0605,-2.0605,0.0,0.0,-2.0605,-2.0605,-2.0605,-2.0605,-2.0605,-2.0605,-2.0605,-2.0605,-2.0605,-2.0605,-2.0566,-2.0537,-2.0537,-2.0498,-2.0351,-1.9932,-1.9844,-1.9662,-1.9145,-1.8966,-1.8781,-1.8451,-1.8239,-1.8109,-1.8027,-1.7734,-1.7477,-1.744,-1.7119,-1.6908,-1.6908,0.0,0.0,-1.6413,-1.6386,-1.6367,-1.6355,-1.6121,-1.6314,-1.7121,-1.7182,-1.7489,-1.8144,-1.7418,-1.7564,-1.8598,-1.8276,-1.8564,-1.9336,-1.863,-1.8921,0.0,0.0,0.0,0.0,0.0,0.0,0.0,0.0,0.0,0.0,0.0,0.0,0.0,0.0,0.0,-0.89,-0.9245,-0.9457,-0.9555,-0.9575,-0.9587,-0.9575,-0.9579,-0.9579,-0.9579,-0.9579,-0.9579,-0.9579,-0.9772,-1.0622,-1.2268,-1.2589,0.0,-1.5012,-1.5001,-1.5027,-1.5053,-1.4865,-1.4958,-1.5267,0.0,0.0,-1.5382,-1.5119,-1.4966,-1.4885,-1.467,-1.4562,-1.4621,-1.6239,-1.7673,-1.8923,-1.9721,-2.0039,-2.0078,-2.0478,-2.0605,-2.0605,-2.0605,-2.0605,-2.0605,-2.0605,-2.0605,-2.0605,-2.0605,-2.0605,0.0,-2.0605,-2.0605,-2.0605,-2.0605,-2.0303,-2.0039,-2.0039,-1.9785,-1.9512,-1.9424,-1.9404,-1.9385,-1.927,-1.8726,-1.8316,-1.8397,-1.8384,-1.8184,-1.7706,-1.755,-1.7385,-1.7064,-1.6954,-1.6908,-1.6908,-1.6908,-1.6872,-1.6798,-1.6927,-1.6881,-1.6565,-1.7223,-1.7941,-1.8646,-1.9283,-1.9445,-1.9053,-1.9209,-1.9046,-1.8598,-1.8906,-1.9297,-1.9785,-1.9935,-2.0303,0.0,0.0,0.0,0.0,0.0,0.0,0.0,0.0,0.0,0.0,0.0,-0.7375,-0.7667,0.0,-0.8737,-0.9198,-0.9376,-0.9522,-0.9616,-0.9579,-0.9579,-0.9579,-0.9579,-0.9592,-0.9498,-0.949,-0.9453,-0.9368,-0.9364,-0.9979,-1.1366,-1.1869,-1.2734,-1.4027,-1.4465,-1.4665,-1.4638,-1.4558,-1.4657,-1.4908,-1.4884,-1.4894,-1.5003,-1.4772,-1.4618,-1.445,-1.4296,-1.4128,-1.4133,-1.5659,-1.7,-1.8176,-1.8957,-1.9404,-1.9629,-1.9844,-1.9959,-1.9959,-1.9959,-2.0059,-2.0244,-2.0244,-2.0429,-2.0605,-2.0605,-2.0449,-2.0244,-2.0244,-2.0244,-2.0244,-2.0244,-2.0078,-1.9912,-1.9912,-1.959,-1.9228,-1.9014,-1.8965,-1.8896,-1.8691,-1.8327,-1.8052,-1.8052,-1.7979,-1.7832,-1.7556,-1.7413,-1.7259,-1.7065,-1.6968,-1.6908,-1.6908,-1.6908,-1.6908,-1.6908,-1.7072,-1.721,-1.7185,-1.7967,-1.8688,-1.9377,-1.9754,-1.9859,-1.9609,-1.96,-1.9492,-1.9241,-1.9492,-1.9941,-2.0566,-2.1171,-2.1333,0.0,0.0,0.0,0.0,0.0,0.0,0.0,0.0,-0.6753,-0.678,-0.7177,-0.7638,-0.7904,-0.8509,-0.9068,-0.9356,-0.9506,-0.9616,-0.9579,-0.9575,-0.9563,-0.9527,-0.9555,-0.9502,-0.9371,-0.9351,-0.9294,-0.9108,-0.9096,-0.9537,-1.0494,-1.14,-1.2249,-1.2981,-1.3946,-1.4401,-1.4321,-1.4302,-1.4358,-1.4559,-1.4464,-1.4477,-1.451,-1.4438,-1.4269,-1.402,-1.3916,-1.3844,-1.3811,-1.5144,-1.6158,-1.7003,-1.8056,-1.8695,-1.9062,-1.9228,-1.9287,-1.9287,-1.9287,-1.9512,-1.9795,-1.9795,-2.0029,-2.0351,-2.0351,-2.0068,-1.9795,-1.9795,-1.9795,-1.9795,-1.9795,-1.9727,-1.9668,-1.9668,-1.9346,-1.8945,-1.8559,-1.8481,-1.8383,-1.8076,-1.7974,-1.7896,-1.7784,-1.7623,-1.7529,-1.7461,-1.7279,-1.7166,-1.7201,-1.7072,-1.6978,-1.7012,-1.7012,-1.7075,-1.7193,-1.7332,-1.7642,-1.8186,-1.8662,-1.9228,-1.9859,-1.9831,-1.9859,-2.0039,-1.9707,-1.9697,-2.0039,-2.0127,-2.0498,-2.124,-2.1979,-2.2059,-0.692,-0.6817,0.0,-0.6868,-0.68,-0.677,0.0,0.0,-0.6896,-0.7021,-0.7447,-0.7842,-0.803,-0.8593,-0.9068,-0.9356,-0.9506,-0.9571,-0.9457,-0.9433,-0.9375,-0.9173,-0.9291,-0.9367,-0.9141,-0.9125,-0.912,-0.91,-0.9096,-0.9435,-1.0201,-1.1124,-1.1998,-1.271,-1.3655,-1.4157,-1.4124,-1.3821,-1.381,-1.4083,-1.394,-1.3991,-1.4227,-1.4103,-1.4056,-1.3967,-1.3675,-1.3914,-1.4537,-1.5357,-1.6158,-1.6975,-1.7773,-1.8105,-1.8242,-1.9004,-1.9287,-1.9287,-1.9287,-1.9316,-1.9355,-1.9355,-1.9394,-1.9434,-1.9434,-1.9394,-1.9355,-1.9355,-1.9355,-1.9355,-1.9355,-1.9072,-1.8744,-1.8744,-1.8422,-1.8135,-1.8086,-1.8076,-1.8066,-1.8018,-1.7862,-1.7784,-1.794,-1.7818,-1.7579,-1.727,-1.7072,-1.7003,-1.7166,-1.7166,-1.7245,-1.7401,-1.7436,-1.7656,-1.8177,-1.8241,-1.8685,-1.9615,-1.9739,-2.0001,-2.0478,-2.0498,-2.0488,-2.0537,-2.0488,-2.0478,-2.0537,-2.0889,-2.1093,-2.12,-2.1712,-2.2289,-0.7001,0.0,0.0,0.0,-0.696,-0.6947,-0.7068,-0.7051,-0.7024,-0.7085,-0.7423,-0.7827,-0.8197,-0.8604,-0.9018,0.0,-0.949,-0.9441,-0.9412,-0.9318,-0.9137,-0.8958,-0.8999,-0.9015,-0.8946,-0.8934,-0.8897,-0.8796,-0.8792,-0.8935,-0.9247,-1.0641,-1.1554,-1.1892,-1.3149,-1.3828,-1.3828,-1.354,-1.3427,-1.354,-1.3386,-1.339,-1.3505,-1.3386,-1.343,-1.3541,-1.3514,-1.3666,-1.4013,-1.4752,-1.5525,-1.6271,-1.7044,-1.7613,-1.8047,-1.8408,-1.8545,-1.8545,-1.8545,-1.8701,-1.887,-1.887,-1.9082,-1.9287,-1.9287,-1.9111,-1.887,-1.887,-1.887,-1.887,-1.887,-1.8734,-1.8598,-1.8598,-1.8286,-1.8008,-1.8008,-1.8008,-1.8008,-1.8008,-1.793,-1.7974,-1.8295,-1.7982,-1.7768,-1.7897,-1.7603,-1.7407,-1.7467,-1.7417,-1.7486,-1.7837,-1.7856,-1.8062,-1.8516,-1.8672,-1.9041,-1.9742,-1.9847,-2.0107,-2.0586,-2.0605,-2.0605,-2.0605,-2.0605,-2.0605,-2.0605,-2.0752,-2.1113,-2.1621,-2.1807,-2.2347,-0.7011,0.0,0.0,-0.7085,-0.7095,-0.7095,-0.7095,-0.7129,-0.7204,-0.7204,-0.7494,-0.7898,-0.8364,-0.8635,0.0,-0.9461,-0.9393,-0.9272,-0.9222,-0.91,-0.8954,-0.8771,-0.8751,-0.8751,-0.8751,-0.8751,-0.8698,-0.862,-0.8612,-0.8612,-0.8612,-1.0337,-1.1252,-1.1187,-1.2742,-1.356,-1.3487,-1.3227,-1.308,-1.308,-1.2957,-1.2883,-1.2876,-1.2961,-1.3046,-1.32,-1.3419,-1.3492,-1.3564,-1.451,-1.5207,-1.5816,-1.6802,-1.7545,-1.8008,-1.8008,-1.8008,-1.8008,-1.8008,-1.8178,-1.8432,-1.8432,-1.8682,-1.8936,-1.8936,-1.8711,-1.8432,-1.8432,-1.8432,-1.8432,-1.8432,-1.8432,-1.8461,-1.8568,-1.8286,-1.8047,-1.812,-1.8086,-1.8008,-1.8008,-1.8105,-1.8247,-1.8549,-1.8337,-1.8209,-1.8421,-1.817,-1.7875,-1.7716,-1.7657,-1.7843,-1.8368,-1.8321,-1.8464,-1.9,-1.9168,-1.9472,-1.9898,-2.0031,-2.0234,-2.0595,-2.0605,-2.0605,-2.0605,-2.0605,-2.0605,-2.0605,-2.085,-2.13,-2.1894,-2.2129,-2.2559,0.0,0.0,-0.6923,-0.7061,-0.7095,-0.7095,-0.7095,-0.7255,-0.7409,-0.7409,-0.7795,-0.8249,-0.8534,-0.8717,-0.892,-0.9344,-0.9168,-0.8954,-0.8839,-0.8832,-0.8767,-0.8641,-0.862,-0.862,0.0,-0.862,-0.8616,-0.8612,-0.8612,-0.8612,-0.8612,-1.0337,-1.1177,-1.091,-1.2649,-1.3467,-1.3227,-1.2951,-1.2797,-1.2797,-1.2682,-1.2613,-1.2613,-1.301,-1.3193,-1.32,-1.3419,-1.3492,-1.3601,-1.5081,-1.5675,-1.5851,-1.7373,-1.7974,-1.8008,-1.8008,-1.8008,-1.8008,-1.8008,-1.8018,-1.8027,-1.8027,-1.8037,-1.8047,-1.8047,-1.8037,-1.8027,-1.8027,-1.8027,-1.8027,-1.8027,-1.8027,-1.8135,-1.851,-1.8286,-1.8125,-1.849,-1.8301,-1.8008,-1.8008,-1.8305,-1.8588,-1.8598,-1.8975,-1.9111,-1.8666,-1.8588,-1.8352,-1.7798,-1.7862,-1.8295,-1.918,-1.8861,-1.8939,-1.9787,-1.9855,-2.0078,-2.0556,-2.0586,-2.0595,-2.0605,-2.0605,-2.0605,-2.0605,-2.0605,-2.0605,-2.0605,-2.1466,-2.1855,-2.1904,-2.2682,-2.3071,0.0,0.0,-0.7038,-0.7085,-0.7217,-0.7292,-0.7292,-0.7414,-0.7522,-0.7522,-0.7698,-0.7861,-0.8146,-0.8324,-0.8519,-0.8871,-0.8843,-0.8812,-0.8807,-0.8723,-0.8629,-0.8616,-0.8612,0.0,0.0,0.0,0.0,-0.8612,-0.8612,-0.8612,-0.8612,-1.0337,-1.1177,-1.0899,-1.2469,-1.3213,-1.2945,-1.2605,-1.2489,-1.2489,-1.2425,-1.2415,-1.2415,-1.2673,-1.2783,-1.2826,-1.301,-1.32,-1.3346,-1.384,-1.4681,-1.5745,-1.6271,-1.7088,-1.8008,-1.8008,-1.8008,-1.8008,-1.8008,-1.8008,-1.8008,-1.8008,-1.8008,-1.8008,-1.8008,-1.8008,-1.8008,-1.8008,-1.8008,-1.8008,-1.8008,-1.8008,-1.8047,-1.8184,-1.8286,-1.8432,-1.8568,-1.875,-1.8857,-1.8857,-1.8975,-1.916,-1.9407,-1.9375,-1.9238,-1.9092,-1.8584,-1.8237,-1.8294,-1.8348,-1.8715,-1.9609,-1.957,-1.9717,-2.0303,-2.0342,-2.0449,-2.0595,-2.0605,-2.0605,-2.0605,-2.0605,-2.0605,-2.0605,-2.0605,-2.0752,-2.1016,-2.1309,-2.1748,-2.2305,-2.2598,-2.2828,0.0,-0.6953,-0.7034,-0.7085,-0.7258,-0.7415,-0.7415,-0.7529,-0.7662,-0.7611,-0.7685,-0.7818,-0.7991,-0.805,-0.8151,-0.8504,-0.8521,-0.8536,-0.8655,-0.8629,-0.8612,-0.8612,-0.8621,0.0,0.0,0.0,0.0,-0.8616,-0.8612,-0.8612,-0.8612,-1.0221,-1.1006,-1.0724,-1.2227,-1.2938,-1.263,-1.2398,-1.2305,-1.2305,-1.2305,-1.2305,-1.2305,-1.2526,-1.2599,-1.2599,-1.2826,-1.2973,-1.3156,-1.3768,-1.4645,-1.5675,-1.6271,-1.7123,-1.8008,-1.8008,-1.8008,-1.8008,-1.8008,-1.8008,-1.8008,-1.8008,-1.8008,-1.8008,-1.8008,-1.8008,-1.8008,-1.8008,-1.8008,-1.8008,-1.8008,-1.8008,-1.8086,-1.8389,-1.852,-1.8685,-1.8987,-1.9199,-1.9287,-1.9287,-1.9404,-1.96,-1.9873,-1.9697,-1.9512,-1.9512,-1.8916,-1.8613,-1.8997,-1.8929,-1.9199,-2.0059,-2.001,-2.0088,-2.0566,-2.0605,-2.0605,-2.0605,-2.0605,-2.0605,-2.0605,-2.0605,-2.0605,-2.0605,-2.0605,-2.0791,-2.119,-2.1387,-2.1826,-2.2519,-2.2666,-2.2838,-0.6849,-0.6889,-0.6927,-0.7061,-0.7261,-0.7429,-0.7429,-0.7604,-0.7773,-0.7638,-0.7821,-0.7968,0.0,0.0,-0.7893,-0.8258,-0.8217,-0.8212,-0.8375,-0.8548,-0.862,0.0,0.0,0.0,0.0,0.0,0.0,-0.8624,0.0,-0.8612,-0.8656,-1.0093,-1.0776,-1.0479,-1.1987,-1.2643,-1.2305,-1.2305,-1.2305,-1.2305,-1.2305,-1.2305,-1.2305,-1.2489,-1.2562,-1.2599,-1.279,-1.2863,-1.3003,-1.4716,-1.5463,-1.5675,-1.7304,-1.7974,-1.8008,-1.8008,-1.8008,-1.8008,-1.8008,-1.8008,-1.8008,-1.8008,-1.8008,-1.8008,-1.8008,-1.8008,-1.8008,-1.8008,-1.8008,-1.8008,-1.8008,-1.8008,-1.8223,-1.9053,-1.8955,-1.8861,-1.9736,-1.9619,-1.9355,-1.9355,-1.9678,-1.9951,-1.9951,-1.9951,-1.9951,-1.9951,-1.9609,-1.9492,-1.9863,-1.957,-1.9639,-2.0517,-2.0195,-2.0117,-2.0566,-2.0605,-2.0605,-2.0605,-2.0605,-2.0605,-2.0605,-2.0605,-2.0605,-2.0605,-2.0625,-2.082,-2.1229,-2.1709,-2.2139,-2.2549,-2.2906,-2.3091,-0.6876,-0.6964,-0.7051,-0.7088,-0.7343,-0.7543,-0.7543,-0.7682,-0.7801,-0.7767,-0.7641,-0.7566,0.0,0.0,0.0,-0.8099,-0.8337,0.0,-0.8679,-0.8738,0.0,0.0,0.0,-0.8617,-0.8616,-0.8653,0.0,0.0,-0.8612,-0.8867,-0.9515,-1.0429,-1.107,-1.1427,-1.2311,-1.2643,-1.2305,-1.2305,-1.2305,-1.2305,-1.2305,-1.2305,-1.2305,-1.2342,-1.2378,-1.2378,-1.2415,-1.2526,-1.2746,-1.3789,-1.4716,-1.5604,-1.6568,-1.7373,-1.8008,-1.8008,-1.8008,-1.8008,-1.8008,-1.8008,-1.8008,-1.8008,-1.8008,-1.8008,-1.8008,-1.8008,-1.8008,-1.8008,-1.8008,-1.8008,-1.8008,-1.8008,-1.8144,-1.8637,-1.8965,-1.9268,-1.9805,-2.0078,-2.0282,-2.0282,-2.0361,-2.0439,-2.0439,-2.0439,-2.0439,-2.0439,-2.0341,-2.0166,-1.9941,-1.9824,-1.9961,-2.0546,-2.0507,-2.0488,-2.0595,-2.0605,-2.0605,-2.0605,-2.0605,-2.0605,-2.0605,-2.0605,-2.0605,-2.0605,-2.0889,-2.1279,-2.1719,-2.2148,-2.2568,-2.2935,-2.3042,-2.3091,-0.696,-0.7038,-0.7095,-0.7095,-0.7373,-0.7584,-0.7516,-0.7662,-0.7773,-0.7645,-0.7539,0.0,0.0,0.0,0.0,0.0,0.0,0.0,-0.8839,-0.8826,-0.8783,0.0,-0.8678,0.0,-0.8616,-0.8633,-0.8649,0.0,-0.8612,-0.8921,-0.969,-1.0319,-1.0987,-1.1615,-1.2241,-1.2472,-1.2305,-1.2305,-1.2305,-1.2305,-1.2305,-1.2305,-1.2305,-1.2305,-1.2305,-1.2305,0.0,-1.2378,-1.2526,-1.339,-1.4322,-1.5321,-1.6237,-1.7123,-1.7896,-1.7974,-1.8008,-1.8008,-1.8008,-1.8008,-1.8008,-1.8008,-1.8008,-1.8008,-1.8008,-1.8008,-1.8008,-1.8008,-1.8008,-1.8008,-1.8008,-1.8144,-1.8354,-1.8783,-1.9248,-1.9678,-2.0107,-2.0391,-2.0605,-2.0605,-2.0605,-2.0605,-2.0605,-2.0605,-2.0605,-2.0605,-2.0605,-2.0517,-2.0234,-2.0195,-2.0293,-2.0576,-2.0605,-2.0605,-2.0605,-2.0605,-2.0605,-2.0605,-2.0605,-2.0605,-2.0605,-2.0605,-2.0693,-2.0859,-2.1103,-2.1543,-2.2158,-2.2402,-2.2734,-2.3091,-2.3091,-2.3091,-0.7061,-0.7095,-0.7102,-0.7122,-0.7387,-0.7563,-0.7431,-0.76,-0.7706,-0.7473,0.0,0.0,-0.7146,0.0,-0.7667,-0.8013,0.0,-0.8517,-0.9,-0.8948,-0.8873,-0.8828,-0.882,-0.8751,-0.8629,-0.8698,-0.8727,-0.862,-0.8696,-0.9057,-0.9691,-1.0259,-1.0874,-1.1488,-1.2021,-1.2305,-1.2305,-1.2305,-1.2305,-1.2305,-1.2305,-1.2305,-1.2305,-1.2305,-1.2305,-1.2305,0.0,0.0,-1.2372,-1.328,-1.4106,-1.4859,-1.6044,-1.6957,-1.7604,-1.7862,-1.7974,-1.8008,-1.8008,-1.8008,-1.8008,-1.8008,-1.8008,-1.8008,-1.8008,-1.8008,-1.8008,-1.8008,-1.8008,-1.8018,-1.8076,-1.8325,-1.8724,-1.9258,-1.9648,-2.0029,-2.0507,-2.0605,-2.0605,-2.0605,-2.0605,-2.0605,-2.0605,-2.0605,-2.0605,-2.0605,-2.0605,-2.0605,-2.0605,-2.0605,-2.0605,-2.0605,-2.0605,-2.0605,-2.0605,-2.0605,-2.0605,-2.0605,-2.0605,-2.0605,-2.0605,-2.0605,-2.0781,-2.1181,-2.1249,-2.1668,-2.251,-2.2568,-2.2783,-2.3091,-2.3091,-2.3091,-0.7088,-0.7095,-0.7125,-0.7299,-0.7465,-0.7594,-0.7567,-0.76,0.0,0.0,0.0,-0.7159,-0.7105,-0.7288,0.0,-0.8228,0.0,0.0,0.0,0.0,-0.9153,0.0,0.0,0.0,0.0,0.0,0.0,0.0,0.0,-1.0058,-1.0924,-1.1348,-1.1757,-1.2131,-1.2257,-1.2305,-1.2305,-1.2305,-1.2305,-1.2305,-1.2305,-1.2305,-1.2305,-1.2305,-1.2305,-1.2305,-1.2305,0.0,-1.2372,-1.3208,-1.3673,-1.4034,-1.5534,-1.6376,-1.6888,-1.7491,-1.7862,-1.8008,-1.8008,-1.8008,-1.8008,-1.8008,-1.8008,-1.8008,-1.8008,-1.8008,-1.8008,-1.8008,-1.8008,-1.8086,-1.8403,-1.8549,-1.8802,-1.9619,-1.9863,-2.0029,-2.0507,-2.0605,-2.0605,-2.0605,-2.0605,-2.0605,-2.0605,-2.0605,-2.0605,-2.0605,-2.0605,-2.0605,-2.0605,-2.0605,-2.0605,-2.0605,-2.0605,-2.0605,-2.0605,-2.0605,-2.0605,-2.0605,-2.0605,-2.0605,-2.0605,-2.0605,-2.0781,-2.1181,-2.1592,-2.2021,-2.251,-2.2818,-2.3023,-2.3091,-2.3091,-2.3091,-0.8575,-0.8291,-0.7964,-0.7964,-0.7852,-0.7631,-0.7319,0.0,0.0,0.0,0.0,-0.6987,-0.6987,0.0,0.0,0.0,0.0,0.0,0.0,0.0,0.0,0.0,0.0,0.0,0.0,0.0,0.0,0.0,0.0,-1.0758,-1.1064,-1.1866,-1.2473,-1.2741,-1.2465,-1.2378,-1.2569,-1.2378,-1.2305,-1.2305,-1.2305,-1.2305,-1.2305,-1.2305,-1.2305,-1.2305,-1.2305,0.0,-1.2342,-1.2703,-1.3171,-1.3673,-1.4502,-1.5419,-1.6341,-1.6793,-1.7295,-1.7745,-1.7745,-1.7803,-1.7852,-1.7852,-1.7896,-1.8008,-1.8008,-1.8008,-1.8057,-1.8237,-1.8295,-1.8403,-1.8867,-1.9104,-1.9368,-1.9814,-2.0088,-2.0312,-2.0556,-2.0605,-2.0605,-2.0605,-2.0605,-2.0605,-2.0605,-2.0605,-2.0605,-2.0605,-2.0605,-2.0605,-2.0605,-2.0605,-2.0605,-2.0605,-2.0605,-2.0605,-2.0605,-2.0605,-2.0605,-2.0605,-2.0605,-2.0605,-2.0605,-2.0791,-2.1123,-2.1562,-2.1992,-2.2422,-2.2789,-2.3003,-2.3091,-2.3091,-2.3091,-2.3091,-1.0003,-0.9611,-0.9186,-0.9002,-0.854,-0.7993,-0.7362,-0.7313,0.0,0.0,-0.6859,-0.6849,-0.6879,0.0,0.0,0.0,0.0,0.0,0.0,0.0,0.0,0.0,0.0,0.0,0.0,0.0,0.0,0.0,0.0,0.0,-1.1488,-1.2426,-1.3019,-1.3206,-1.2746,-1.2612,-1.2878,-1.2589,-1.2432,-1.2492,-1.2432,-1.2432,-1.2492,-1.2425,-1.2398,-1.2392,-1.2325,0.0,0.0,-1.2305,-1.2659,-1.328,-1.3564,-1.4537,-1.5798,-1.614,-1.6777,-1.7505,-1.7529,-1.7623,-1.7706,-1.774,-1.792,-1.8144,-1.8144,-1.8213,-1.835,-1.8646,-1.8744,-1.8841,-1.9307,-1.9668,-1.9941,-2.0029,-2.0312,-2.0605,-2.0605,-2.0605,-2.0605,-2.0605,-2.0605,-2.0635,-2.0693,-2.0752,-2.0781,-2.0869,-2.0811,-2.0752,-2.0752,-2.0664,-2.0605,-2.0605,-2.0605,-2.0605,-2.0605,-2.0693,-2.0752,-2.0752,-2.084,-2.0889,-2.0889,-2.1191,-2.1572,-2.2012,-2.2344,-2.2715,-2.3091,-2.3091,-2.3091,-2.3091,-2.3091,-2.3091,-1.0317,-1.0371,-1.0523,-1.0407,-0.9836,-0.9099,-0.8512,0.0,0.0,0.0,-0.6817,-0.6763,-0.6859,-0.6824,0.0,0.0,0.0,0.0,0.0,0.0,0.0,0.0,0.0,0.0,0.0,0.0,0.0,0.0,0.0,0.0,-1.3285,-1.3465,-1.3413,-1.322,-1.316,-1.314,-1.3166,-1.2898,-1.2884,-1.3126,-1.2878,-1.2891,-1.312,-1.2871,-1.2744,-1.273,-1.2418,0.0,0.0,-1.2305,-1.2335,-1.2482,-1.3244,-1.4142,-1.5081,-1.5754,-1.6647,-1.7539,-1.7647,-1.7672,-1.774,-1.7896,-1.8237,-1.8539,-1.8539,-1.8857,-1.918,-1.9219,-1.9228,-1.9326,-1.9746,-1.9883,-2.0019,-2.0449,-2.0576,-2.0605,-2.0605,-2.0605,-2.0605,-2.0605,-2.0605,-2.0732,-2.1064,-2.1132,-2.1309,-2.1709,-2.1426,-2.1132,-2.1132,-2.082,-2.0605,-2.0605,-2.0605,-2.0605,-2.0605,-2.0937,-2.1132,-2.1132,-2.1543,-2.1768,-2.1768,-2.1807,-2.2031,-2.2441,-2.249,-2.2715,-2.3091,-2.3091,-2.3091,-2.3091,-2.3091,-2.3091,-1.2203,-1.1927,-1.1615,-1.1338,-1.0334,-0.9188,-0.8437,0.0,0.0,-0.6715,-0.6607,-0.658,-0.6644,-0.6603,-0.6757,0.0,0.0,0.0,0.0,0.0,0.0,0.0,0.0,0.0,0.0,0.0,0.0,0.0,0.0,0.0,-1.3831,-1.37,-1.3633,-1.3734,-1.3394,-1.3293,-1.3427,-1.3173,-1.3086,-1.3213,-1.3086,-1.3093,-1.3206,-1.308,-1.2965,-1.2777,-1.2656,0.0,0.0,-1.2305,-1.2305,-1.2342,-1.2666,-1.3564,-1.4752,-1.5037,-1.607,-1.7314,-1.7373,-1.7716,-1.812,-1.8199,-1.876,-1.927,-1.8754,-1.8945,-1.9336,-1.959,-1.9668,-1.9766,-2.0195,-2.0303,-2.0352,-2.0566,-2.0605,-2.0674,-2.0908,-2.0967,-2.1045,-2.1309,-2.1398,-2.1416,-2.1592,-2.1621,-2.168,-2.1865,-2.1514,-2.119,-2.119,-2.084,-2.0605,-2.0605,-2.0605,-2.0605,-2.0605,-2.0977,-2.119,-2.119,-2.1641,-2.1885,-2.1885,-2.2129,-2.2344,-2.251,-2.2721,-2.2925,-2.3091,-2.3091,-2.3091,-2.3091,-2.2969,-2.2925,-1.358,-1.3252,-1.2817,-1.2444,-1.1296,-0.9952,0.0,0.0,-0.7176,-0.6613,-0.6477,-0.6463,-0.6504,-0.6477,-0.6595,0.0,0.0,0.0,0.0,0.0,0.0,0.0,0.0,0.0,0.0,0.0,0.0,0.0,0.0,0.0,0.0,-1.3888,-1.3868,-1.4082,-1.3687,-1.3567,-1.3733,-1.3447,-1.338,-1.3467,-1.338,-1.3387,-1.3467,-1.338,-1.322,-1.3045,0.0,0.0,0.0,-1.2432,-1.2378,-1.2335,-1.2556,-1.3455,-1.4637,-1.4859,-1.5851,-1.7151,-1.7376,-1.783,-1.8337,-1.8595,-1.9226,-1.9805,-1.9163,-1.9316,-1.9727,-2.0019,-2.0107,-2.0176,-2.0527,-2.0605,-2.0605,-2.0605,-2.0605,-2.0723,-2.1103,-2.119,-2.1327,-2.1807,-2.1885,-2.1924,-2.2051,-2.207,-2.2119,-2.2236,-2.1787,-2.1434,-2.1551,-2.1113,-2.081,-2.0987,-2.0997,-2.0889,-2.0625,-2.1094,-2.1385,-2.1385,-2.1836,-2.2129,-2.2246,-2.2539,-2.2705,-2.2705,-2.2945,-2.3091,-2.3091,-2.3091,-2.3057,-2.3013,-2.2891,-2.2759,-1.3906,-1.4093,-1.4232,-1.396,-1.3093,-1.1852,0.0,-0.9068,-0.796,-0.6734,-0.6402,-0.6344,-0.6487,-0.6399,-0.6556,-0.7275,0.0,0.0,0.0,0.0,0.0,0.0,0.0,0.0,0.0,0.0,0.0,0.0,0.0,0.0,0.0,-1.4082,-1.4082,-1.4088,-1.4082,-1.4082,-1.4082,-1.3746,-1.3746,-1.4075,-1.374,-1.3753,-1.4068,-1.3733,-1.3593,0.0,0.0,0.0,0.0,-1.2777,-1.2603,-1.2378,-1.3171,-1.3926,-1.4708,-1.5471,-1.6263,-1.7033,-1.7819,-1.8112,-1.8214,-1.9032,-1.957,-1.9912,-1.9902,-2.0205,-2.0595,-2.0595,-2.0595,-2.0595,-2.0605,-2.0605,-2.0605,-2.0605,-2.0605,-2.0723,-2.1103,-2.119,-2.1327,-2.1807,-2.1885,-2.2021,-2.2432,-2.251,-2.2646,-2.3023,-2.2412,-2.2031,-2.2441,-2.1717,-2.1356,-2.1826,-2.1875,-2.1564,-2.0674,-2.1377,-2.1875,-2.1875,-2.2275,-2.2652,-2.3062,-2.3081,-2.3091,-2.3091,-2.3091,-2.3091,-2.3091,-2.3091,-2.3013,-2.2803,-2.2803,-2.2662,-1.3188,-1.3417,-1.361,-1.2976,-1.2074,-1.1,-0.9653,-0.859,-0.76,-0.6563,-0.633,-0.6313,-0.6358,-0.633,-0.6508,-0.721,-0.7066,0.0,0.0,0.0,0.0,0.0,0.0,0.0,0.0,0.0,0.0,0.0,0.0,0.0,0.0,-1.4088,-1.4088,-1.4088,-1.4088,-1.4088,-1.4088,-1.3995,-1.3995,-1.4088,-1.3988,-1.3995,-1.4082,-1.3988,0.0,0.0,0.0,0.0,0.0,-1.3066,-1.3006,-1.2997,-1.3861,-1.417,-1.4252,-1.5498,-1.6353,-1.7063,-1.7643,-1.8415,-1.9171,-1.9417,-1.9669,-1.9898,-1.9898,-2.0227,-2.0605,-2.0605,-2.0605,-2.0605,-2.0605,-2.0605,-2.0605,-2.0605,-2.0605,-2.0811,-2.1514,-2.168,-2.1894,-2.2555,-2.2744,-2.274,-2.2877,-2.2896,-2.2847,-2.2691,-2.248,-2.2256,-2.21,-2.1846,-2.1738,-2.1875,-2.2139,-2.209,-2.1564,-2.1982,-2.2314,-2.2314,-2.2705,-2.2955,-2.3091,-2.3091,-2.3057,-2.2882,-2.2882,-2.2794,-2.2608,-2.2608,-2.253,-2.2318,-2.2318,-2.2185,0.0,-1.2729,-1.2639,-1.2113,-1.1246,-1.0206,-0.9079,-0.8268,-0.7494,-0.6521,-0.63,-0.63,-0.63,-0.63,-0.6505,-0.7111,-0.7091,0.0,0.0,0.0,0.0,0.0,0.0,0.0,0.0,0.0,0.0,0.0,0.0,0.0,0.0,-1.4088,-1.4088,-1.4088,-1.4088,-1.4088,-1.4088,-1.4088,-1.4088,-1.4088,-1.4088,-1.4088,-1.4088,-1.4088,0.0,0.0,0.0,0.0,0.0,-1.3333,-1.3307,-1.3286,-1.4084,-1.4258,-1.4174,-1.5379,-1.6271,-1.6991,-1.7528,-1.8438,-1.9412,-1.9659,-1.9888,-2.0059,-2.0059,-2.0264,-2.0498,-2.0498,-2.0527,-2.0605,-2.0605,-2.0605,-2.0605,-2.0605,-2.0605,-2.085,-2.1699,-2.1885,-2.2139,-2.2925,-2.3091,-2.3091,-2.3091,-2.2964,-2.2769,-2.2549,-2.2236,-2.2051,-2.2119,-2.1982,-2.2012,-2.2324,-2.2598,-2.2604,-2.2383,-2.2451,-2.251,-2.251,-2.2754,-2.2935,-2.296,-2.2969,-2.2882,-2.2662,-2.2662,-2.2574,-2.2397,-2.2309,-2.223,-2.2097,-2.2008,-2.1874,0.0,-1.2057,-1.1514,-1.139,-1.0626,-0.9627,-0.8496,-0.8042,0.0,-0.6521,-0.63,-0.6303,-0.6313,-0.6317,-0.6491,-0.7008,-0.711,0.0,0.0,0.0,0.0,0.0,0.0,0.0,0.0,0.0,0.0,0.0,0.0,0.0,0.0,-1.4088,-1.4088,-1.4088,-1.4088,-1.4088,-1.4088,-1.4088,-1.4088,-1.4088,-1.4088,-1.4088,-1.4088,-1.4088,0.0,0.0,0.0,0.0,0.0,-1.3633,-1.348,-1.3346,-1.4095,-1.4348,-1.4365,-1.5281,-1.6136,-1.6873,-1.754,-1.833,-1.9114,-1.9701,-2.0029,-2.0225,-2.0225,-2.0264,-2.0303,-2.0303,-2.0459,-2.0605,-2.0605,-2.0605,-2.0605,-2.0605,-2.0625,-2.0889,-2.1699,-2.1904,-2.2168,-2.2935,-2.3091,-2.3091,-2.3091,-2.2769,-2.2539,-2.248,-2.1775,-2.1551,-2.2324,-2.2139,-2.2227,-2.2974,-2.3081,-2.3091,-2.3091,-2.2783,-2.2559,-2.2559,-2.2559,-2.2605,-2.2784,-2.2803,-2.2671,-2.2397,-2.2353,-2.2353,-2.2353,-2.2176,-2.2052,-2.2052,-2.183,-2.1696,-1.1467,0.0,-1.156,-1.0533,-1.0091,-0.9529,0.0,-0.7651,-0.7343,0.0,0.0,-0.6334,-0.6443,-0.6463,-0.6596,-0.7013,-0.7397,0.0,0.0,0.0,0.0,0.0,0.0,0.0,0.0,0.0,0.0,0.0,0.0,0.0,0.0,-1.4088,-1.4088,-1.4088,-1.4088,-1.4088,-1.4088,-1.4088,-1.4088,-1.4088,-1.4088,-1.4088,-1.4088,-1.4088,0.0,0.0,0.0,0.0,-1.3981,-1.3981,-1.3941,-1.4006,-1.4969,-1.4696,-1.4033,-1.6156,-1.6834,-1.681,-1.8057,-1.8879,-1.9466,-1.9432,-1.946,-1.9539,-1.9539,-2.001,-2.0527,-2.0527,-2.0566,-2.0605,-2.0605,-2.0605,-2.0605,-2.0605,-2.083,-2.1221,-2.1768,-2.2139,-2.2519,-2.2994,-2.3091,-2.3091,-2.3091,-2.3013,-2.273,-2.2129,-2.2139,-2.2051,-2.1551,-2.2021,-2.2441,-2.2637,-2.2906,-2.3091,-2.3091,-2.3003,-2.2945,-2.2945,-2.2945,-2.2906,-2.2794,-2.2803,-2.2583,-2.2185,-2.1954,-2.1865,-2.1865,-2.183,-2.1776,-2.1776,-2.1741,-2.1696,-1.1111,-1.1145,-1.0875,-0.9751,-0.9227,-0.8647,-0.7328,0.0,0.0,0.0,0.0,0.0,-0.6484,0.0,0.0,0.0,0.0,0.0,0.0,0.0,0.0,0.0,0.0,0.0,0.0,0.0,0.0,0.0,0.0,0.0,0.0,-1.4088,-1.4088,-1.4088,-1.4088,-1.4088,-1.4088,-1.4088,-1.4088,-1.4088,-1.4088,-1.4088,-1.4088,-1.4088,-1.4088,0.0,0.0,0.0,-1.4088,-1.4088,-1.4088,-1.4166,-1.4748,-1.4476,-1.4027,-1.5816,-1.6531,-1.6758,-1.7527,-1.8247,-1.8904,-1.9222,-1.9341,-1.9469,-1.9548,-1.9981,-2.045,-2.0294,-2.0372,-2.0489,-2.0566,-2.0605,-2.0654,-2.082,-2.1055,-2.1366,-2.2031,-2.2353,-2.2637,-2.3013,-2.3091,-2.3091,-2.3091,-2.2935,-2.2695,-2.2236,-2.2207,-2.2129,-2.1814,-2.2227,-2.2588,-2.2783,-2.2955,-2.3091,-2.3091,-2.3091,-2.3091,-2.3091,-2.3091,-2.2969,-2.2618,-2.2618,-2.2407,-2.1919,-2.1776,-2.1696,-2.1696,-2.1696,-2.1696,-2.1696,-2.1696,-2.1696,-1.1166,-1.0873,-1.0304,-0.9321,-0.8545,-0.7815,-0.6878,0.0,0.0,0.0,0.0,0.0,0.0,0.0,0.0,0.0,0.0,0.0,0.0,0.0,0.0,0.0,0.0,0.0,0.0,0.0,0.0,0.0,0.0,0.0,0.0,-1.4088,-1.4088,-1.4088,-1.4088,-1.4088,-1.4088,-1.4088,-1.4088,-1.4088,-1.4088,-1.4088,-1.4088,-1.4088,-1.4088,0.0,0.0,0.0,-1.4088,-1.4088,-1.4088,-1.4088,-1.4124,-1.4124,-1.4208,-1.511,-1.5884,-1.6535,-1.6821,-1.7391,-1.8158,-1.9015,-1.9429,-1.9597,-1.9784,-2.0029,-2.0147,-1.9981,-2.0195,-2.0478,-2.0664,-2.0752,-2.0859,-2.125,-2.1337,-2.159,-2.2353,-2.2568,-2.2672,-2.3023,-2.3091,-2.3091,-2.3091,-2.2799,-2.2588,-2.2519,-2.2207,-2.209,-2.2383,-2.2471,-2.2646,-2.2964,-2.3052,-2.3091,-2.3091,-2.3091,-2.3101,-2.3057,-2.3047,-2.2828,-2.2353,-2.2309,-2.2087,-2.1696,-2.1696,-2.1696,-2.1696,-2.1696,-2.1696,-2.1696,-2.1696,-2.1696,-1.1363,-1.1543,-1.135,-1.0073,-0.9344,-0.8649,0.0,0.0,0.0,0.0,0.0,0.0,0.0,0.0,0.0,0.0,0.0,0.0,0.0,0.0,0.0,0.0,0.0,0.0,0.0,0.0,0.0,0.0,0.0,0.0,0.0,-1.4088,-1.4088,-1.4088,-1.4088,-1.4088,-1.4088,-1.4088,-1.4088,-1.4088,-1.4088,-1.4088,-1.4088,-1.4088,-1.4088,0.0,0.0,-1.4088,-1.4088,-1.4088,-1.4088,-1.413,-1.4279,-1.4243,-1.4208,-1.5276,-1.5643,-1.5801,-1.731,-1.7876,-1.8158,-1.9015,-1.9301,-1.9381,-1.9597,-1.9676,-1.9803,-2.0147,-2.0643,-2.1053,-2.1093,-2.1406,-2.1699,-2.1768,-2.206,-2.2353,-2.248,-2.275,-2.3013,-2.3081,-2.3091,-2.3091,-2.3091,-2.3042,-2.2877,-2.2568,-2.2461,-2.2314,-2.2021,-2.2295,-2.2539,-2.2607,-2.2886,-2.3091,-2.3091,-2.3091,-2.3013,-2.2838,-2.2847,-2.2627,-2.2185,-2.1919,-2.1776,-2.1696,-2.1696,-2.1696,-2.1696,-2.1696,-2.1696,-2.1696,-2.1696,-2.1696,-1.123,-1.1465,-1.1537,-1.0902,-1.0361,-0.9558,0.0,0.0,0.0,0.0,0.0,0.0,0.0,0.0,0.0,0.0,0.0,0.0,0.0,0.0,0.0,0.0,0.0,0.0,0.0,0.0,0.0,0.0,0.0,0.0,0.0,0.0,-1.4088,-1.4088,-1.4088,-1.4088,-1.4088,-1.4088,-1.4088,-1.4088,-1.4088,-1.4088,-1.4088,-1.4088,-1.4088,-1.4088,0.0,-1.4088,-1.4088,-1.4088,-1.4088,-1.413,-1.4201,-1.4166,-1.4215,-1.5193,-1.5477,-1.5636,-1.7391,-1.7674,-1.7513,-1.8856,-1.9301,-1.9341,-1.9666,-1.9825,-2.0042,-2.0611,-2.0915,-2.106,-2.115,-2.1562,-2.1943,-2.2168,-2.2373,-2.2578,-2.276,-2.2955,-2.3091,-2.3091,-2.3091,-2.3091,-2.3091,-2.3091,-2.3033,-2.2838,-2.2808,-2.2783,-2.2588,-2.2734,-2.2808,-2.2808,-2.2984,-2.3091,-2.3091,-2.3013,-2.2882,-2.2803,-2.2539,-2.2318,-2.2097,-2.183,-2.1696,-2.1696,-2.1696,-2.1696,-2.1696,-2.1696,-2.1696,-2.1696,-2.1696,-2.1696,-1.1081,-1.1117,-1.1141,-1.12,0.0,-0.9938,0.0,0.0,0.0,0.0,0.0,0.0,0.0,0.0,0.0,0.0,0.0,0.0,0.0,0.0,0.0,0.0,0.0,0.0,0.0,0.0,0.0,0.0,0.0,0.0,0.0,0.0,-1.4088,-1.4088,-1.4088,-1.4088,-1.4088,-1.4088,-1.4088,-1.4088,-1.4088,-1.4088,-1.4088,-1.4088,-1.4088,-1.4088,-1.4088,-1.4088,-1.4088,-1.4088,-1.4088,-1.4088,-1.4088,-1.4088,-1.4166,-1.4866,-1.5228,-1.5643,-1.7147,-1.7391,-1.7269,-1.8807,-1.9301,-1.9399,-1.9818,-2.0071,-2.0342,-2.1065,-2.1242,-2.1228,-2.1452,-2.1855,-2.2266,-2.2578,-2.2656,-2.2701,-2.3023,-2.3091,-2.3091,-2.3091,-2.3091,-2.3091,-2.3091,-2.3091,-2.3091,-2.3091,-2.3091,-2.3091,-2.3091,-2.3091,-2.3091,-2.3091,-2.3091,-2.3091,-2.3047,-2.2794,-2.2627,-2.2627,-2.2318,-2.2052,-2.2008,-2.183,-2.1696,-2.1696,-2.1696,-2.1696,-2.1696,-2.1696,-2.1696,-2.1696,-2.1696,-2.1696,-1.0979,-1.0567,-1.0073,-1.0329,0.0,0.0,0.0,0.0,0.0,0.0,0.0,0.0,0.0,0.0,0.0,0.0,0.0,0.0,0.0,0.0,0.0,0.0,0.0,0.0,0.0,0.0,0.0,0.0,0.0,0.0,0.0,0.0,0.0,-1.4088,-1.4088,-1.4088,-1.4088,-1.4088,-1.4088,-1.4088,-1.4088,-1.4088,-1.4088,-1.4088,-1.4088,-1.4088,-1.4088,-1.4088,-1.4088,-1.4088,-1.4088,-1.4088,-1.4088,-1.4088,-1.413,-1.4173,-1.4699,-1.5519,-1.6453,-1.7261,-1.8078,-1.9015,-1.9301,-1.9415,-1.9993,-2.0173,-2.0367,-2.1256,-2.1784,-2.2167,-2.2337,-2.2691,-2.3013,-2.3042,-2.3052,-2.3062,-2.3091,-2.3091,-2.3091,-2.3091,-2.3091,-2.3091,-2.3091,-2.3091,-2.3091,-2.3091,-2.3091,-2.3091,-2.3091,-2.3091,-2.3091,-2.3091,-2.3091,-2.3013,-2.2847,-2.2407,-2.2141,-2.2141,-2.2097,-2.2008,-2.1741,-2.1687,-2.1696,-2.1696,-2.1696,-2.1696,-2.1696,-2.1696,-2.1696,-2.1696,-2.1696,-2.1696,-1.0533,-1.0608,-1.0686,-1.0784,0.0,0.0,0.0,0.0,0.0,0.0,0.0,0.0,0.0,0.0,0.0,0.0,0.0,0.0,0.0,0.0,0.0,0.0,0.0,0.0,0.0,0.0,0.0,0.0,0.0,0.0,0.0,0.0,0.0,-1.4088,-1.4088,-1.4088,-1.4088,-1.4088,-1.4088,-1.4088,-1.4088,-1.4088,-1.4088,-1.4088,-1.4088,-1.4088,-1.4088,-1.4088,-1.4088,-1.4088,-1.4088,-1.4088,-1.4088,-1.4088,-1.4088,-1.4088,-1.4292,-1.4706,-1.5594,-1.6124,-1.6535,-1.7391,-1.8037,-1.8598,-1.9199,-1.9875,-2.0583,-2.1433,-2.1892,-2.2201,-2.246,-2.2779,-2.3091,-2.3091,-2.3091,-2.3091,-2.3091,-2.3091,-2.3091,-2.3091,-2.3091,-2.3091,-2.3091,-2.3091,-2.3091,-2.3091,-2.3091,-2.3091,-2.3091,-2.3091,-2.3047,-2.2925,-2.275,-2.2574,-2.2362,-2.2185,-2.2008,-2.1874,-2.1874,-2.183,-2.1696,-2.1696,-2.1696,-2.1696,-2.1696,-2.1696,-2.1696,-2.1696,-2.1696,-2.1696,-2.1087,-2.0808,-1.0394,-1.0556,-1.0697,0.0,0.0,0.0,0.0,0.0,0.0,0.0,0.0,0.0,0.0,0.0,0.0,0.0,0.0,0.0,0.0,0.0,0.0,0.0,0.0,0.0,0.0,0.0,0.0,0.0,0.0,0.0,0.0,0.0,0.0,0.0,-1.4088,-1.4088,-1.4088,-1.4088,-1.4088,-1.4088,-1.4088,-1.4088,-1.4088,-1.4088,-1.4088,-1.4088,-1.4088,-1.4088,-1.4088,-1.4088,-1.4088,-1.4088,-1.4088,-1.4088,-1.4088,-1.4088,-1.425,-1.4622,-1.5193,-1.5602,-1.5925,-1.6494,-1.7392,-1.8295,-1.8839,-1.9778,-2.0881,-2.1686,-2.197,-2.2164,-2.2395,-2.2756,-2.3013,-2.3091,-2.3091,-2.3091,-2.3091,-2.3091,-2.3091,-2.3091,-2.3091,-2.3091,-2.3091,-2.3091,-2.3091,-2.3091,-2.3091,-2.3091,-2.3091,-2.3057,-2.2925,-2.2706,-2.2441,-2.2264,-2.2097,-2.2008,-2.1919,-2.1687,-2.1696,-2.1696,-2.1696,-2.1696,-2.1696,-2.1696,-2.1696,-2.1696,-2.1696,-2.141,-2.1275,-2.1221,-2.0257,-1.984,-1.0605,-1.0319,0.0,0.0,0.0,0.0,0.0,0.0,0.0,0.0,0.0,0.0,0.0,0.0,0.0,0.0,0.0,0.0,0.0,0.0,0.0,0.0,0.0,0.0,0.0,0.0,0.0,0.0,0.0,0.0,0.0,0.0,0.0,0.0,-1.4088,-1.4088,-1.4088,-1.4088,-1.4088,-1.4088,-1.4088,-1.4088,-1.4088,-1.4088,-1.4088,-1.4088,-1.4088,-1.4088,-1.4088,-1.4088,-1.4088,-1.4088,-1.4088,-1.4088,-1.4088,-1.4088,-1.4664,-1.5394,-1.5394,-1.5959,-1.6698,-1.6698,-1.7565,-1.8656,-1.9067,-2.0093,-2.1243,-2.1931,-2.2097,-2.2141,-2.2353,-2.2618,-2.2847,-2.3047,-2.3091,-2.3091,-2.3091,-2.3091,-2.3091,-2.3091,-2.3091,-2.3091,-2.3091,-2.3091,-2.3091,-2.3091,-2.3091,-2.3091,-2.3091,-2.2925,-2.2706,-2.2441,-2.223,-2.2097,-2.2097,-2.1874,-2.1696,-2.1696,-2.1687,-2.1687,-2.1696,-2.1687,-2.1696,-2.1696,-2.1696,-2.1687,-2.1687,-2.0763,-2.0303,-2.0249,-1.9247,-1.8796,-1.0166,0.0,0.0,0.0,0.0,0.0,0.0,0.0,0.0,0.0,0.0,0.0,0.0,0.0,0.0,0.0,0.0,0.0,0.0,0.0,0.0,0.0,0.0,0.0,0.0,0.0,0.0,0.0,0.0,0.0,0.0,0.0,0.0,0.0,-1.4088,-1.4088,-1.4088,-1.4088,-1.4088,-1.4088,-1.4088,-1.4088,-1.4088,-1.4088,-1.4088,-1.4088,-1.4088,-1.4088,-1.4088,-1.4088,-1.4088,-1.4088,-1.4088,-1.4088,-1.4088,-1.4088,-1.425,-1.4496,-1.4496,-1.4657,-1.4985,-1.5594,-1.6646,-1.7877,-1.8888,-2.0093,-2.12,-2.1666,-2.183,-2.1874,-2.2141,-2.2353,-2.2574,-2.2838,-2.3013,-2.3091,-2.3091,-2.3091,-2.3091,-2.3091,-2.3091,-2.3091,-2.3091,-2.3091,-2.3091,-2.3091,-2.3091,-2.3047,-2.2925,-2.2539,-2.2274,-2.2185,-2.1963,-2.183,-2.183,-2.1741,-2.1696,-2.1696,-2.1087,-2.0997,-2.1687,-2.1087,-2.0718,-2.0718,-2.0031,-1.9666,-1.9666,-1.9384,-1.9247,-1.9201,-1.8195,-1.7738,-1.0671,0.0,0.0,0.0,0.0,0.0,0.0,0.0,0.0,0.0,0.0,0.0,0.0,0.0,0.0,0.0,0.0,0.0,0.0,0.0,0.0,0.0,0.0,0.0,0.0,0.0,0.0,0.0,0.0,0.0,0.0,0.0,0.0,0.0,-1.4088,-1.4088,-1.4088,-1.4088,-1.4088,-1.4088,-1.4088,-1.4088,-1.4088,-1.4088,-1.4088,-1.4088,-1.4088,-1.4088,-1.4088,-1.4088,-1.4088,-1.4088,-1.4088,-1.4088,-1.4088,-1.4088,-1.4088,-1.4088,-1.4088,-1.4088,-1.4173,-1.4699,-1.6067,-1.7675,-1.846,-1.9939,-2.141,-2.1623,-2.1696,-2.1741,-2.1919,-2.2097,-2.2353,-2.2706,-2.2969,-2.3091,-2.3091,-2.3091,-2.3091,-2.3091,-2.3091,-2.3091,-2.3091,-2.3091,-2.3091,-2.3091,-2.3013,-2.2882,-2.2574,-2.2274,-2.2052,-2.1963,-2.1785,-2.1696,-2.1696,-2.1696,-2.1696,-2.1696,-2.0808,-2.0529,-2.1132,-2.0212,-1.9704,-1.9704,-1.9109,-1.8788,-1.8788,-1.838,-1.8195,-1.8195,-1.7178,-1.6716,0.0,0.0,0.0,0.0,0.0,0.0,0.0,0.0,0.0,0.0,0.0,0.0,0.0,0.0,0.0,0.0,0.0,0.0,0.0,0.0,0.0,0.0,0.0,0.0,0.0,0.0,0.0,0.0,0.0,0.0,0.0,0.0,0.0,-1.4088,-1.4088,-1.4088,-1.4088,-1.4088,-1.4088,0.0,-1.4088,-1.4088,-1.4088,-1.4088,-1.4088,-1.4088,-1.4088,-1.4088,-1.4088,-1.4088,-1.4088,-1.4088,-1.4088,-1.4088,-1.4088,-1.4088,-1.4088,-1.4088,-1.4088,-1.4088,-1.4137,-1.4242,-1.5898,-1.7929,-1.8048,-1.978,-2.1696,-2.1696,-2.1696,-2.1696,-2.1696,-2.1919,-2.223,-2.2618,-2.2882,-2.3047,-2.3101,-2.3101,-2.3057,-2.3057,-2.3057,-2.3057,-2.3057,-2.3047,-2.3057,-2.3057,-2.2882,-2.2583,-2.2141,-2.2097,-2.1963,-2.1741,-2.1642,-2.1597,-2.1687,-2.1553,-2.1463,-2.1553,-2.0583,-2.0022,-2.0022,-1.9155,-1.865,-1.865,-1.8557,-1.8511,-1.8511,-1.7598,-1.7138,-1.7138,-1.6251,-1.5778,0.0,0.0,0.0,0.0,0.0,0.0,0.0,0.0,0.0,0.0,0.0,0.0,0.0,0.0,0.0,0.0,0.0,0.0,0.0,0.0,0.0,0.0,0.0,0.0,0.0,0.0,0.0,0.0,0.0,0.0,0.0,0.0,0.0,-1.4088,-1.4088,-1.4088,-1.4088,-1.4088,-1.4088,0.0,-1.4088,-1.4088,-1.4088,-1.4088,-1.4088,-1.4088,-1.4088,-1.4088,-1.4088,-1.4088,-1.4088,-1.4088,-1.4088,-1.4088,-1.4088,-1.4088,-1.4088,-1.4088,-1.4088,-1.4088,-1.4249,-1.5142,-1.6548,-1.8064,-1.9006,-2.0448,-2.1696,-2.1696,-2.1696,-2.1696,-2.1696,-2.1919,-2.215,-2.223,-2.2397,-2.2662,-2.3013,-2.2969,-2.2838,-2.2838,-2.2838,-2.2838,-2.2838,-2.2706,-2.2564,-2.2564,-2.2397,-2.223,-2.2097,-2.1919,-2.1785,-2.1696,-2.1042,-2.0898,-2.1642,-2.0311,-1.9749,-2.0529,-1.8926,-1.7971,-1.7971,-1.7738,-1.7598,-1.7598,-1.685,-1.6433,-1.6433,-1.6251,-1.6109,-1.6109,-1.592,-1.5737,0.0,0.0,0.0,0.0,0.0,0.0,0.0,0.0,0.0,0.0,0.0,0.0,0.0,0.0,0.0,0.0,0.0,0.0,0.0,0.0,0.0,0.0,0.0,0.0,0.0,0.0,0.0,0.0,0.0,0.0,0.0,-1.4088,-1.4088,-1.4088,-1.4088,-1.4088,-1.4088,-1.4088,-1.4088,-1.4088,-1.4088,-1.4088,-1.4088,-1.4088,-1.4088,-1.4088,-1.4088,-1.4088,-1.4088,-1.4088,-1.4088,-1.4088,-1.4088,-1.4088,-1.4088,-1.4088,-1.4088,-1.4088,-1.4088,-1.4175,-1.4401,-1.4974,-1.6497,-1.8202,-1.8838,-2.0278,-2.1696,-2.1696,-2.1696,-2.1696,-2.1696,-2.1785,-2.1919,-2.2052,-2.2264,-2.2485,-2.2696,-2.2662,-2.2618,-2.2618,-2.2618,-2.2618,-2.2618,-2.2485,-2.2353,-2.2264,-2.2185,-2.2052,-2.1919,-2.1785,-2.1553,-2.1087,-2.0574,-2.0303,-2.0311,-1.9384,-1.9018,-1.9567,-1.8156,-1.7279,-1.7279,-1.6857,-1.6581,-1.6581,-1.6062,-1.5784,-1.5784,-1.5784,-1.5784,-1.5784,-1.5683,-1.5588,0.0,0.0,0.0,0.0,0.0,0.0,0.0,0.0,0.0,0.0,0.0,0.0,0.0,0.0,0.0,0.0,0.0,0.0,0.0,0.0,0.0,0.0,0.0,0.0,0.0,0.0,0.0,0.0,0.0,0.0,-1.4082,-1.4088,-1.4088,-1.4088,-1.4088,-1.4088,-1.4088,-1.4088,-1.4088,-1.4088,-1.4088,-1.4088,-1.4088,-1.4088,-1.4088,-1.4088,-1.4088,-1.4088,-1.4088,-1.4088,-1.4088,-1.4088,-1.4088,-1.4088,-1.4088,-1.4088,-1.4088,-1.4095,-1.4142,-1.4315,-1.4536,-1.4805,-1.6441,-1.8361,-1.8559,-2.0054,-2.1696,-2.1696,-2.1696,-2.1696,-2.1696,-2.1696,-2.1785,-2.1963,-2.2176,-2.2309,-2.2397,-2.2353,-2.2353,-2.2353,-2.2353,-2.2353,-2.2309,-2.2309,-2.2264,-2.2052,-2.2052,-2.1874,-2.1508,-2.1454,-2.1087,-2.0158,-1.9886,-1.9521,-1.888,-1.8465,-1.8373,-1.8519,-1.7598,-1.7044,-1.7044,-1.6251,-1.5784,-1.5784,-1.5784,-1.5784,-1.5784,-1.5784,-1.5784,-1.573,-1.5588,-1.5445,0.0,0.0,0.0,0.0,0.0,0.0,0.0,0.0,0.0,0.0,0.0,0.0,0.0,0.0,0.0,0.0,0.0,0.0,0.0,0.0,0.0,0.0,0.0,0.0,0.0,0.0,0.0,0.0,0.0,0.0,-1.4075,-1.4088,-1.4088,-1.4088,-1.4088,-1.4088,-1.4088,-1.4088,-1.4088,-1.4088,-1.4088,-1.4088,-1.4088,-1.4088,-1.4088,-1.4088,-1.4088,-1.4088,-1.4088,-1.4088,-1.4088,-1.4088,-1.4088,-1.4088,-1.4088,-1.4088,-1.4088,-1.4122,-1.4376,-1.4489,-1.4727,-1.6118,-1.7379,-1.8543,-1.9673,-2.0809,-2.1696,-2.1696,-2.1696,-2.1696,-2.1696,-2.1696,-2.1696,-2.1741,-2.1776,-2.1909,-2.2309,-2.2264,-2.2141,-2.2141,-2.2141,-2.2052,-2.183,-2.2008,-2.2052,-2.1776,-2.1731,-2.1463,-2.0619,-2.0484,-2.0121,-1.9109,-1.8241,-1.801,-1.875,-1.7217,-1.6574,-1.7466,-1.6574,-1.6015,-1.6015,-1.5872,-1.5784,-1.5784,-1.5784,-1.5784,-1.5784,-1.5784,-1.573,-1.554,-1.5493,-1.5255,0.0,0.0,0.0,0.0,0.0,0.0,0.0,0.0,0.0,0.0,0.0,0.0,0.0,0.0,0.0,0.0,0.0,0.0,0.0,0.0,0.0,0.0,0.0,0.0,0.0,0.0,0.0,0.0,0.0,-1.3733,-1.4075,-1.4088,-1.4088,-1.4088,-1.4088,-1.4088,-1.4088,-1.4088,-1.4088,-1.4088,-1.4088,-1.4088,-1.4088,-1.4088,-1.4088,-1.4088,-1.4088,-1.4088,-1.4088,-1.4088,-1.4088,-1.4088,-1.4088,-1.4088,-1.4088,-1.4088,-1.4195,-1.4349,-1.4476,-1.4736,-1.5224,-1.6507,-1.7667,-1.8817,-1.9926,-2.0952,-2.1696,-2.1696,-2.1696,-2.1696,-2.1696,-2.1696,-2.1696,-2.1696,-2.1696,-2.1785,-2.1954,-2.1954,-2.1874,-2.1874,-2.1874,-2.183,-2.1741,-2.1785,-2.183,-2.1741,-2.1266,-2.0763,-2.0348,-1.9795,-1.9063,-1.8056,-1.7559,-1.7232,-1.7131,-1.6292,-1.5967,-1.644,-1.6062,-1.5784,-1.5784,-1.5784,-1.5784,-1.5784,-1.5784,-1.5784,-1.5784,-1.5689,-1.5588,-1.5493,-1.5213,-1.4927,0.0,0.0,0.0,0.0,0.0,0.0,0.0,0.0,0.0,0.0,0.0,0.0,0.0,0.0,0.0,0.0,0.0,0.0,0.0,0.0,0.0,0.0,0.0,0.0,0.0,0.0,0.0,0.0,0.0,-1.3733,-1.4075,-1.4088,-1.4088,-1.4088,-1.4088,-1.4088,-1.4088,-1.4088,-1.4088,-1.4088,-1.4088,-1.4088,-1.4088,-1.4088,-1.4088,-1.4088,-1.4088,-1.4088,-1.4088,-1.4088,-1.4088,-1.4088,-1.4088,-1.4088,-1.4095,-1.4168,-1.4335,-1.4543,-1.4689,-1.503,-1.5635,-1.6969,-1.8026,-1.9018,-2.0303,-2.1132,-2.1696,-2.1696,-2.1696,-2.1696,-2.1696,-2.1696,-2.1696,-2.1696,-2.1696,-2.1696,-2.1696,-2.1696,-2.1696,-2.1696,-2.1696,-2.1696,-2.1696,-2.1696,-2.1642,-2.1365,-2.0763,-2.0113,-1.9613,-1.888,-1.801,-1.7044,-1.6904,-1.6622,-1.5872,-1.5784,-1.5784,-1.5784,-1.5784,-1.5784,-1.5784,-1.5784,-1.5784,-1.5737,-1.5737,-1.5737,-1.5737,-1.5588,-1.5445,-1.5302,-1.4879,-1.464,0.0,0.0,0.0,0.0,0.0,0.0,0.0,0.0,0.0,0.0,0.0,0.0,0.0,0.0,0.0,0.0,0.0,0.0,0.0,0.0,0.0,0.0,0.0,0.0,0.0,0.0,0.0,0.0,0.0,-1.3733,-1.4075,-1.4088,-1.4088,-1.4088,-1.4088,-1.4088,-1.4088,-1.4088,-1.4088,-1.4088,-1.4088,-1.4088,-1.4088,-1.4088,-1.4088,-1.4088,-1.4088,-1.4088,-1.4088,-1.4088,-1.4088,-1.4088,-1.4088,-1.4088,-1.4122,-1.4396,-1.4502,-1.4603,-1.5157,-1.5371,-1.5761,-1.7972,-1.8726,-1.9155,-2.1042,-2.1651,-2.1696,-2.1696,-2.1696,-2.1696,-2.1696,-2.1696,-2.1696,-2.1696,-2.1696,-2.1696,-2.1696,-2.1696,-2.1696,-2.1696,-2.1696,-2.1696,-2.1696,-2.1696,-2.141,-2.0529,-2.0348,-1.9613,-1.7692,-1.7419,-1.6998,-1.5974,-1.5879,-1.5879,-1.5784,-1.5784,-1.5784,-1.5784,-1.5784,-1.5784,-1.5784,-1.5784,-1.573,-1.554,-1.554,-1.554,-1.554,-1.5493,-1.5261,-1.4736,-1.4694,-1.4544,0.0,0.0,0.0,0.0,0.0,0.0,0.0,0.0,0.0,0.0,0.0,0.0,0.0,0.0,0.0,0.0,0.0,0.0,0.0,0.0,0.0,0.0,0.0,0.0,0.0,0.0,0.0,0.0,0.0,0.0,-1.4075,-1.4088,-1.4088,-1.4088,-1.4088,-1.4088,-1.4088,-1.4088,-1.4088,-1.4088,-1.4088,-1.4088,-1.4088,-1.4088,-1.4088,-1.4088,-1.4088,-1.4088,-1.4088,-1.4088,-1.4088,-1.4088,-1.4088,-1.4202,-1.4382,-1.4482,-1.4756,-1.511,-1.5324,-1.5936,-1.6847,-1.8341,-1.9247,-2.0022,-2.132,-2.1696,-2.1696,-2.1696,-2.1696,-2.1696,-2.1696,-2.1696,-2.1696,-2.1696,-2.1696,-2.1696,-2.1696,-2.1696,-2.1696,-2.1696,-2.1696,-2.1508,-2.0898,-2.0808,-2.0484,-1.9476,-1.8796,-1.8102,-1.7372,-1.6723,-1.6204,-1.5825,-1.5784,-1.5784,-1.5784,-1.5784,-1.5784,-1.5784,-1.5784,-1.5784,-1.5784,-1.5784,-1.5784,-1.5689,-1.5588,-1.5404,-1.522,-1.507,-1.4879,-1.4688,-1.4538,-1.4394,0.0,0.0,0.0,0.0,0.0,0.0,0.0,0.0,0.0,0.0,0.0,0.0,0.0,0.0,0.0,0.0,0.0,0.0,0.0,0.0,0.0,0.0,0.0,0.0,0.0,0.0,0.0,0.0,0.0,0.0,-1.4068,-1.4088,-1.4088,-1.4088,-1.4088,-1.4088,-1.4088,-1.4088,-1.4088,-1.4088,-1.4088,-1.4088,-1.4088,-1.4088,-1.4088,-1.4088,-1.4088,-1.4088,-1.4088,-1.4088,-1.4088,-1.4095,-1.4195,-1.4349,-1.4499,-1.4743,-1.5064,-1.5411,-1.5504,-1.632,-1.7466,-1.8473,-1.9476,-2.0484,-2.141,-2.1696,-2.1696,-2.1696,-2.1696,-2.1696,-2.1696,-2.1696,-2.1696,-2.1696,-2.1696,-2.1696,-2.1696,-2.1696,-2.1696,-2.1696,-2.1696,-2.141,-2.0484,-2.0294,-1.984,-1.8519,-1.7738,-1.7185,-1.6857,-1.6204,-1.5784,-1.5784,-1.5784,-1.5784,-1.5784,-1.5784,-1.5784,-1.5784,-1.5784,-1.5784,-1.5784,-1.5784,-1.5737,-1.5547,-1.5452,-1.5166,-1.4838,-1.4742,-1.464,-1.4544,-1.4394,-1.4298,0.0,0.0,0.0,0.0,0.0,0.0,0.0,0.0,0.0,0.0,0.0,0.0,0.0,0.0,0.0,0.0,0.0,0.0,0.0,0.0,0.0,0.0,0.0,0.0,0.0,0.0,0.0,0.0,0.0,-1.3487,-1.4055,-1.4088,-1.4088,-1.4088,-1.4088,-1.4088,-1.4088,-1.4088,-1.4088,-1.4088,-1.4088,-1.4088,-1.4088,-1.4088,-1.4088,-1.4088,-1.4088,-1.4088,-1.4088,-1.4088,-1.4088,-1.4115,-1.4396,-1.4516,-1.4603,-1.517,-1.5391,-1.5451,-1.5732,-1.6487,-1.7512,-1.8473,-1.9521,-2.0529,-2.141,-2.1696,-2.1696,-2.1696,-2.1696,-2.1696,-2.1696,-2.1696,-2.1696,-2.1696,-2.1696,-2.1696,-2.1696,-2.1696,-2.1696,-2.1696,-2.1696,-2.1365,-2.0439,-2.0249,-1.9521,-1.7552,-1.7286,-1.6904,-1.592,-1.5784,-1.5784,-1.5784,-1.5784,-1.5784,-1.5784,-1.5784,-1.5784,-1.5784,-1.5784,-1.5784,-1.5784,-1.5784,-1.5594,-1.5131,-1.5083,-1.4838,-1.4298,-1.4592,-1.4544,-1.4298,-1.4298,-1.4298,-0.8721,0.0,0.0,0.0,0.0,0.0,0.0,0.0,0.0,0.0,0.0,0.0,0.0,0.0,0.0,0.0,0.0,0.0,0.0,0.0,0.0,0.0,0.0,0.0,0.0,0.0,0.0,0.0,-1.3721,-1.3915,-1.4082,-1.4088,-1.4088,-1.4088,-1.4088,-1.4088,-1.4088,-1.4088,-1.4088,-1.4088,-1.4088,-1.4088,-1.4088,-1.4088,-1.4088,-1.4088,-1.4088,-1.4088,-1.4088,-1.4088,-1.4088,-1.4095,-1.4175,-1.4469,-1.4863,-1.5068,-1.5351,-1.5718,-1.5751,-1.6943,-1.8427,-1.8696,-1.994,-2.1365,-2.1642,-2.1696,-2.1696,-2.1696,-2.1696,-2.1696,-2.1696,-2.1696,-2.1696,-2.1696,-2.1696,-2.1696,-2.1696,-2.1696,-2.1696,-2.1696,-2.1132,-2.0348,-1.9384,-1.8611,-1.7684,-1.6386,-1.6204,-1.6109,-1.5832,-1.5784,-1.5784,-1.5784,-1.5784,-1.5784,-1.5784,-1.5784,-1.5784,-1.5784,-1.5784,-1.5784,-1.5784,-1.5784,-1.5689,-1.5404,-1.522,-1.4933,-1.4592,-1.4496,-1.4394,-1.4298,-1.4298,-1.4298,0.0,0.0,0.0,0.0,0.0,0.0,0.0,0.0,0.0,0.0,0.0,0.0,0.0,0.0,0.0,0.0,0.0,0.0,0.0,0.0,0.0,0.0,0.0,0.0,0.0,0.0,0.0,-1.3593,-1.376,-1.3955,-1.4082,-1.4088,-1.4088,-1.4088,-1.4088,-1.4088,-1.4088,-1.4088,-1.4088,-1.4088,-1.4088,-1.4088,-1.4088,-1.4088,-1.4088,-1.4088,-1.4088,-1.4088,-1.4095,-1.4215,-1.4269,-1.4282,-1.4402,-1.478,-1.5157,-1.5284,-1.5538,-1.5879,-1.6298,-1.7451,-1.888,-1.9293,-2.0447,-2.1696,-2.1696,-2.1696,-2.1696,-2.1696,-2.1696,-2.1696,-2.1696,-2.1696,-2.1696,-2.1696,-2.1696,-2.1696,-2.1696,-2.141,-2.1132,-2.1132,-2.0664,-1.984,-1.8427,-1.7692,-1.6958,-1.5967,-1.5784,-1.5784,-1.5784,-1.5784,-1.5784,-1.5784,-1.5784,-1.5784,-1.5784,-1.5784,-1.5784,-1.5784,-1.5784,-1.5778,-1.5683,-1.5683,-1.5493,-1.5159,-1.5029,-1.479,-1.4544,-1.4394,-1.4298,-1.4298,-1.4298,-1.4298,-0.7717,0.0,0.0,0.0,0.0,0.0,-0.7644,-0.8365,0.0,0.0,0.0,0.0,0.0,0.0,0.0,0.0,0.0,0.0,0.0,0.0,0.0,0.0,0.0,0.0,0.0,-1.3307,-1.3414,-1.3633,-1.3653,-1.3808,-1.4075,-1.4088,-1.4088,-1.4088,-1.4088,-1.4088,-1.4088,-1.4088,-1.4088,-1.4088,-1.4088,-1.4088,-1.4088,-1.4088,-1.4088,-1.4088,-1.4088,-1.4108,-1.4155,-1.4416,-1.4522,-1.4549,-1.485,-1.5137,-1.5424,-1.5772,-1.594,-1.6109,-1.7138,-1.8149,-1.9109,-2.0022,-2.0952,-2.1696,-2.1696,-2.1696,-2.1696,-2.1696,-2.1696,-2.1696,-2.1696,-2.1696,-2.1696,-2.1696,-2.1696,-2.1687,-2.1553,-2.0898,-2.0249,-2.0022,-1.9977,-1.9384,-1.7606,-1.7192,-1.6817,-1.592,-1.5784,-1.5784,-1.5784,-1.5784,-1.5784,-1.5784,-1.5784,-1.5784,-1.5784,-1.5784,-1.5778,-1.5784,-1.5784,-1.5683,-1.5445,-1.5445,-1.5213,-1.4694,-1.4688,-1.4544,-1.4298,-1.4298,-1.4298,-1.4298,-1.4298,-1.4298,-0.7657,-0.71,0.0,0.0,0.0,0.0,0.0,-0.7492,0.0,0.0,0.0,0.0,0.0,0.0,0.0,0.0,0.0,0.0,0.0,0.0,0.0,0.0,0.0,0.0,0.0,-1.3915,-1.3941,-1.3995,-1.4001,-1.4021,-1.4082,-1.4088,-1.4088,-1.4088,-1.4088,-1.4088,-1.4088,-1.4088,-1.4088,-1.4088,-1.4088,-1.4088,-1.4088,-1.4088,-1.4088,-1.4088,-1.4088,-1.4222,-1.4442,-1.4496,-1.4522,-1.4549,-1.485,-1.5137,-1.549,-1.6352,-1.6814,-1.7138,-1.8149,-1.9155,-2.0022,-2.0249,-2.0952,-2.1696,-2.1696,-2.1696,-2.1696,-2.1696,-2.1696,-2.1696,-2.1696,-2.1696,-2.1696,-2.1696,-2.1696,-2.1508,-2.0763,-2.0439,-1.984,-1.8195,-1.7878,-1.7738,-1.7372,-1.6629,-1.6015,-1.5832,-1.5784,-1.5784,-1.5784,-1.5784,-1.5784,-1.5784,-1.5784,-1.5784,-1.5784,-1.5784,-1.573,-1.5588,-1.554,-1.5452,-1.5178,-1.5172,-1.5029,-1.4694,-1.449,-1.4346,-1.4298,-1.4298,-1.4298,-1.4298,-1.4298,-1.4298,-0.757,-0.6919,0.0,-0.6738,0.0,0.0,0.0,0.0,0.0,0.0,0.0,0.0,0.0,0.0,0.0,0.0,0.0,0.0,0.0,0.0,0.0,0.0,0.0,0.0,0.0,-1.4088,-1.4148,-1.4295,-1.4168,-1.4155,-1.4295,-1.4168,-1.4088,-1.4088,-1.4088,-1.4088,-1.4088,-1.4088,-1.4088,-1.4088,-1.4088,-1.4088,-1.4088,-1.4088,-1.4088,-1.4088,-1.4088,-1.4168,-1.4322,-1.4623,-1.4743,-1.477,-1.5064,-1.5357,-1.5658,-1.6151,-1.6434,-1.6763,-1.828,-1.9109,-1.9704,-2.0673,-2.132,-2.1696,-2.1696,-2.1696,-2.1696,-2.1696,-2.1696,-2.1696,-2.1696,-2.1696,-2.1597,-2.1132,-2.0997,-2.0718,-1.9749,-1.9155,-1.8519,-1.7512,-1.6904,-1.6534,-1.6534,-1.6109,-1.5784,-1.5784,-1.5784,-1.5784,-1.5784,-1.5784,-1.5784,-1.5784,-1.5784,-1.5784,-1.5784,-1.573,-1.5588,-1.5493,-1.5356,-1.5172,-1.4885,-1.4885,-1.479,-1.4496,-1.4394,-1.4298,-1.4298,-1.4298,-1.4226,-1.4099,-1.4099,-1.4032,0.0,0.0,0.0,0.0,0.0,-0.7139,0.0,0.0,0.0,0.0,0.0,0.0,0.0,0.0,0.0,0.0,0.0,0.0,0.0,0.0,0.0,0.0,0.0,0.0,0.0,-1.4122,-1.4182,-1.4422,-1.4162,-1.4128,-1.4422,-1.4215,-1.4088,-1.4088,-1.4088,-1.4088,-1.4088,-1.4088,-1.4088,-1.4088,-1.4088,-1.4088,-1.4088,-1.4088,-1.4088,-1.4088,-1.4088,-1.4122,-1.4208,-1.4683,-1.4955,-1.5042,-1.5344,-1.5625,-1.5825,-1.6015,-1.6204,-1.6615,-1.8465,-1.9201,-1.9621,-2.1186,-2.1696,-2.1696,-2.1696,-2.1696,-2.1696,-2.1696,-2.1696,-2.1651,-2.1463,-2.1419,-2.1177,-2.0257,-2.0022,-1.9749,-1.8742,-1.7878,-1.7232,-1.7044,-1.6346,-1.5784,-1.5784,-1.5784,-1.5784,-1.5784,-1.5784,-1.5784,-1.5784,-1.5784,-1.5784,-1.5784,-1.5784,-1.5784,-1.5737,-1.5588,-1.5445,-1.5356,-1.5124,-1.4885,-1.464,-1.464,-1.4538,-1.4298,-1.4298,-1.4298,-1.4298,-1.4298,-1.4165,-1.3906,-1.3713,-1.3483,0.0,0.0,0.0,0.0,-0.7167,0.0,0.0,0.0,0.0,0.0,0.0,0.0,0.0,0.0,0.0,0.0,0.0,0.0,0.0,0.0,0.0,0.0,0.0,0.0,0.0,0.0,-1.4102,-1.4135,-1.382,-1.378,-1.4122,-1.4108,-1.4088,-1.4088,-1.4088,-1.4088,-1.4088,-1.4088,-1.4088,-1.4088,-1.4088,-1.4088,-1.4088,-1.4088,-1.4088,-1.4088,-1.4088,-1.4229,-1.4476,-1.4543,-1.473,-1.5062,-1.5565,-1.5751,-1.5927,-1.681,-1.7684,-1.8603,-1.9749,-2.0673,-2.1419,-2.1642,-2.1696,-2.1696,-2.1696,-2.1696,-2.1696,-2.1696,-2.1696,-2.1508,-2.0673,-2.0484,-2.0212,-1.9201,-1.8972,-1.8696,-1.7692,-1.7372,-1.7052,-1.6157,-1.5879,-1.5784,-1.5784,-1.5784,-1.5784,-1.5784,-1.5784,-1.5784,-1.5784,-1.5784,-1.5784,-1.5784,-1.5784,-1.573,-1.554,-1.5493,-1.5309,-1.4831,-1.4736,-1.464,-1.4346,-1.4346,-1.4346,-1.4298,-1.4298,-1.4298,-1.4298,-1.4298,-1.4165,-1.3859,-1.3057,-1.2543,0.0,0.0,0.0,0.0,0.0,0.0,-0.6611,0.0,-0.6808,0.0,0.0,0.0,0.0,0.0,0.0,0.0,0.0,0.0,0.0,0.0,0.0,0.0,0.0,0.0,0.0,0.0,0.0,0.0,0.0,-1.4028,-1.4322,-1.4342,-1.4262,-1.4088,-1.4088,-1.4088,-1.4088,-1.4088,-1.4088,-1.4088,-1.4088,-1.4088,-1.4088,-1.4088,-1.4088,-1.4088,-1.4088,-1.4155,-1.4282,-1.4449,-1.4696,-1.5048,-1.5418,-1.5578,-1.5645,-1.6236,-1.7091,-1.8056,-1.9063,-2.0076,-2.0997,-2.1508,-2.1696,-2.1696,-2.1696,-2.1696,-2.1597,-2.1042,-2.0898,-2.0673,-1.9658,-1.943,-1.9201,-1.8149,-1.7924,-1.7645,-1.6676,-1.644,-1.6298,-1.5879,-1.5784,-1.5784,-1.5784,-1.5784,-1.5784,-1.5784,-1.5784,-1.5784,-1.5784,-1.5784,-1.5784,-1.5784,-1.5683,-1.5588,-1.5493,-1.5213,-1.4927,-1.4688,-1.4544,-1.4442,-1.4298,-1.4298,-1.4298,-1.4298,-1.4298,-1.4004,-1.3366,-1.3366,-1.2877,-1.1987,-1.2178,-1.1745,-0.6861,0.0,0.0,0.0,0.0,0.0,0.0,0.0,0.0,0.0,0.0,0.0,0.0,0.0,0.0,0.0,0.0,0.0,0.0,0.0,0.0,0.0,0.0,0.0,0.0,0.0,0.0,0.0,0.0,0.0,-1.4496,-1.4522,-1.4462,-1.4329,-1.4249,-1.4242,-1.4329,-1.4168,-1.4168,-1.4322,-1.4162,-1.4128,-1.4202,-1.4122,-1.4088,-1.4088,-1.4088,-1.4088,-1.4108,-1.4315,-1.4576,-1.487,-1.5164,-1.5331,-1.5431,-1.5718,-1.644,-1.7419,-1.8473,-1.9613,-2.0808,-2.1454,-2.1553,-2.132,-2.132,-2.1132,-2.0772,-2.0076,-1.9886,-1.9658,-1.8657,-1.838,-1.8149,-1.7138,-1.6904,-1.6669,-1.5967,-1.5784,-1.5784,-1.5784,-1.5784,-1.5784,-1.5784,-1.5784,-1.5784,-1.5784,-1.5784,-1.5784,-1.5784,-1.5784,-1.5784,-1.5737,-1.5588,-1.5445,-1.5302,-1.4927,-1.4688,-1.4592,-1.4394,-1.4298,-1.4298,-1.4298,-1.4148,-1.3854,-1.3854,-1.3318,-1.229,-1.229,-1.1579,-1.0228,-1.0966,-1.064,0.0,0.0,0.0,-0.6507,0.0,0.0,0.0,0.0,-0.629,0.0,0.0,0.0,0.0,0.0,0.0,0.0,0.0,0.0,0.0,0.0,0.0,0.0,0.0,0.0,0.0,0.0,0.0,0.0,0.0,0.0,-1.4426,-1.4522,-1.4649,-1.4975,-1.4656,-1.4643,-1.4981,-1.4369,-1.4369,-1.4975,-1.4398,-1.4235,-1.4496,-1.4215,-1.4088,-1.4088,-1.4088,-1.4088,-1.4088,-1.4095,-1.4269,-1.4563,-1.4863,-1.515,-1.5431,-1.5718,-1.644,-1.7419,-1.8473,-2.0031,-2.1651,-2.1687,-2.1087,-2.0339,-2.0339,-1.9658,-1.888,-1.888,-1.8834,-1.8611,-1.7606,-1.7326,-1.7091,-1.6109,-1.5825,-1.5825,-1.5832,-1.5784,-1.5784,-1.5784,-1.5784,-1.5784,-1.5784,-1.5784,-1.5784,-1.5784,-1.5784,-1.5784,-1.5784,-1.5784,-1.573,-1.554,-1.5493,-1.5302,-1.4783,-1.4694,-1.4592,-1.4346,-1.4298,-1.4298,-1.4298,-1.4298,-1.3806,-1.2775,-1.2732,-1.2242,-1.1268,-1.1268,-1.0578,-0.9266,-0.9266,-0.9022,0.0,0.0,-0.6492,-0.6217,0.0,0.0,0.0,0.0,0.0,0.0,0.0,0.0,0.0,0.0,0.0,0.0,0.0,0.0,0.0,0.0,0.0,0.0,0.0,0.0,0.0,0.0,0.0,0.0,0.0,0.0,0.0,-1.489,-1.5057,-1.5015,-1.4914,-1.4908,-1.5008,-1.4814,-1.4814,-1.5008,-1.4807,-1.4616,-1.4516,-1.4422,-1.4269,-1.4088,-1.4088,-1.4088,-1.4102,-1.4295,-1.4549,-1.4843,-1.5137,-1.5431,-1.5698,-1.5792,-1.644,-1.7419,-1.8473,-1.9255,-1.9803,-1.9803,-1.9567,-1.9293,-1.9293,-1.9063,-1.865,-1.7971,-1.7831,-1.7598,-1.6574,-1.6298,-1.6204,-1.5879,-1.5784,-1.5784,-1.5784,-1.5784,-1.5784,-1.5784,-1.5784,-1.5784,-1.5784,-1.5784,-1.5784,-1.5784,-1.5689,-1.5588,-1.5588,-1.5452,-1.5315,-1.522,-1.507,-1.4879,-1.4736,-1.4544,-1.4394,-1.4298,-1.4298,-1.4298,-1.4298,-1.3613,-1.3071,-1.2732,-1.1948,-1.1058,-1.0,-0.9932,-0.923,-0.7993,-0.7993,-0.7831,-0.6327,-0.6337,0.0,-0.6043,-0.6033,0.0,-0.6191,0.0,0.0,0.0,0.0,0.0,0.0,0.0,0.0,0.0,0.0,0.0,0.0,0.0,0.0,0.0,0.0,0.0,0.0,0.0,-1.3667,-1.3753,0.0,0.0,0.0,0.0,-1.5357,-1.5277,-1.517,-1.5209,-1.5271,-1.5115,-1.5115,-1.5271,-1.5109,-1.4908,-1.4676,-1.4569,-1.4362,-1.4088,-1.4088,-1.4088,-1.4108,-1.4402,-1.4696,-1.5035,-1.5284,-1.5571,-1.5784,-1.5784,-1.644,-1.7372,-1.8056,-1.8519,-1.8788,-1.8788,-1.8565,-1.8288,-1.8288,-1.801,-1.7591,-1.6951,-1.6763,-1.6622,-1.5967,-1.5784,-1.5784,-1.5784,-1.5784,-1.5784,-1.5784,-1.5784,-1.5784,-1.5784,-1.5784,-1.5784,-1.5784,-1.573,-1.5689,-1.5689,-1.5588,-1.5452,-1.5356,-1.5226,-1.5083,-1.4981,-1.479,-1.464,-1.4592,-1.4394,-1.4298,-1.4298,-1.3956,-1.3709,-1.3709,-1.2732,-1.1958,-1.154,-1.0851,-0.994,-0.8771,-0.8725,-0.8264,-0.7415,-0.7415,-0.7288]}]]